Wetterdaten: Dienstag, 13.12.2016
Datum Zeit Temp. A. Feuchte A. Luftdruck Regen Wind Richtung Richtung Sonnenschein ET UV Solar Taupunkt Windchill Windben Empfang
13.12.2016 00:00 4,3 C 91 % 1027,3 hPa 0,0 l/m 7,6 km/h (2 Bft) W-SW 238 0 min 0,000 mm 0,0 UV-I 0 W/m 3,0 C 3,2 C 11,3 km/h (2 Bft) 100,00 %
13.12.2016 00:02 4,3 C 91 % 1027,3 hPa 0,0 l/m 8,0 km/h (2 Bft) SW 225 0 min 0,000 mm 0,0 UV-I 0 W/m 3,0 C 2,9 C 14,5 km/h (3 Bft) 97,67 %
13.12.2016 00:04 4,3 C 91 % 1027,2 hPa 0,0 l/m 7,6 km/h (2 Bft) SW 225 0 min 0,000 mm 0,0 UV-I 0 W/m 3,0 C 3,2 C 12,9 km/h (3 Bft) 100,00 %
13.12.2016 00:06 4,3 C 91 % 1027,3 hPa 0,0 l/m 7,1 km/h (2 Bft) SW 227 0 min 0,000 mm 0,0 UV-I 0 W/m 3,0 C 3,7 C 11,3 km/h (2 Bft) 100,00 %
13.12.2016 00:08 4,3 C 91 % 1027,2 hPa 0,0 l/m 6,1 km/h (2 Bft) W 260 0 min 0,000 mm 0,0 UV-I 0 W/m 3,0 C 4,3 C 9,7 km/h (2 Bft) 100,00 %
13.12.2016 00:10 4,3 C 91 % 1027,2 hPa 0,0 l/m 6,4 km/h (2 Bft) W-SW 247 0 min 0,000 mm 0,0 UV-I 0 W/m 3,0 C 4,3 C 9,7 km/h (2 Bft) 96,49 %
13.12.2016 00:12 4,3 C 91 % 1027,2 hPa 0,0 l/m 7,4 km/h (2 Bft) W-SW 246 0 min 0,000 mm 0,0 UV-I 0 W/m 3,0 C 3,4 C 12,9 km/h (3 Bft) 98,95 %
13.12.2016 00:14 4,3 C 91 % 1027,3 hPa 0,0 l/m 7,4 km/h (2 Bft) W-SW 253 0 min 0,000 mm 0,0 UV-I 0 W/m 3,0 C 3,4 C 12,9 km/h (3 Bft) 100,00 %
13.12.2016 00:16 4,3 C 91 % 1027,3 hPa 0,0 l/m 8,0 km/h (2 Bft) W-SW 256 0 min 0,000 mm 0,0 UV-I 0 W/m 3,0 C 2,9 C 12,9 km/h (3 Bft) 100,00 %
13.12.2016 00:18 4,3 C 91 % 1027,3 hPa 0,0 l/m 6,9 km/h (2 Bft) W-SW 242 0 min 0,000 mm 0,0 UV-I 0 W/m 3,0 C 3,9 C 11,3 km/h (2 Bft) 95,45 %
13.12.2016 00:20 4,3 C 91 % 1027,3 hPa 0,0 l/m 8,9 km/h (2 Bft) W-SW 245 0 min 0,000 mm 0,0 UV-I 0 W/m 3,0 C 2,1 C 16,1 km/h (3 Bft) 100,00 %
13.12.2016 00:22 4,3 C 91 % 1027,3 hPa 0,0 l/m 6,8 km/h (2 Bft) SW 228 0 min 0,000 mm 0,0 UV-I 0 W/m 3,0 C 3,9 C 9,7 km/h (2 Bft) 100,00 %
13.12.2016 00:24 4,3 C 91 % 1027,3 hPa 0,0 l/m 8,2 km/h (2 Bft) W-SW 240 0 min 0,000 mm 0,0 UV-I 0 W/m 3,0 C 2,7 C 12,9 km/h (3 Bft) 100,00 %
13.12.2016 00:26 4,3 C 91 % 1027,3 hPa 0,0 l/m 9,4 km/h (2 Bft) W-SW 238 0 min 0,000 mm 0,0 UV-I 0 W/m 3,0 C 1,7 C 16,1 km/h (3 Bft) 100,00 %
13.12.2016 00:28 4,3 C 91 % 1027,3 hPa 0,0 l/m 7,1 km/h (2 Bft) W 261 0 min 0,000 mm 0,0 UV-I 0 W/m 3,0 C 3,7 C 9,7 km/h (2 Bft) 100,00 %
13.12.2016 00:30 4,3 C 91 % 1027,3 hPa 0,0 l/m 8,2 km/h (2 Bft) SW 226 0 min 0,000 mm 0,0 UV-I 0 W/m 3,0 C 2,7 C 12,9 km/h (3 Bft) 100,00 %
13.12.2016 00:32 4,3 C 91 % 1027,3 hPa 0,0 l/m 6,2 km/h (2 Bft) W-SW 237 0 min 0,000 mm 0,0 UV-I 0 W/m 3,0 C 4,3 C 11,3 km/h (2 Bft) 100,00 %
13.12.2016 00:34 4,3 C 91 % 1027,4 hPa 0,0 l/m 6,4 km/h (2 Bft) W-SW 238 0 min 0,000 mm 0,0 UV-I 0 W/m 3,0 C 4,3 C 14,5 km/h (3 Bft) 100,00 %
13.12.2016 00:36 4,3 C 91 % 1027,5 hPa 0,0 l/m 5,3 km/h (1 Bft) W-SW 242 0 min 0,000 mm 0,0 UV-I 0 W/m 3,0 C 4,3 C 11,3 km/h (2 Bft) 98,00 %
13.12.2016 00:38 4,3 C 91 % 1027,5 hPa 0,0 l/m 6,4 km/h (2 Bft) SW 229 0 min 0,000 mm 0,0 UV-I 0 W/m 3,0 C 4,3 C 11,3 km/h (2 Bft) 100,00 %
13.12.2016 00:40 4,3 C 91 % 1027,5 hPa 0,0 l/m 7,8 km/h (2 Bft) W-SW 257 0 min 0,000 mm 0,0 UV-I 0 W/m 3,0 C 3,0 C 11,3 km/h (2 Bft) 100,00 %
13.12.2016 00:42 4,3 C 91 % 1027,5 hPa 0,0 l/m 6,6 km/h (2 Bft) W-SW 247 0 min 0,000 mm 0,0 UV-I 0 W/m 3,0 C 4,1 C 9,7 km/h (2 Bft) 100,00 %
13.12.2016 00:44 4,3 C 91 % 1027,5 hPa 0,0 l/m 6,5 km/h (2 Bft) W-SW 244 0 min 0,000 mm 0,0 UV-I 0 W/m 3,0 C 4,2 C 11,3 km/h (2 Bft) 100,00 %
13.12.2016 00:46 4,3 C 91 % 1027,5 hPa 0,0 l/m 6,3 km/h (2 Bft) SW 229 0 min 0,000 mm 0,0 UV-I 0 W/m 3,0 C 4,3 C 9,7 km/h (2 Bft) 100,00 %
13.12.2016 00:48 4,3 C 91 % 1027,5 hPa 0,0 l/m 7,7 km/h (2 Bft) SW 219 0 min 0,000 mm 0,0 UV-I 0 W/m 3,0 C 3,1 C 11,3 km/h (2 Bft) 100,00 %
13.12.2016 00:50 4,3 C 91 % 1027,5 hPa 0,0 l/m 5,4 km/h (1 Bft) SW 230 0 min 0,000 mm 0,0 UV-I 0 W/m 3,0 C 4,3 C 8,0 km/h (2 Bft) 98,00 %
13.12.2016 00:52 4,3 C 91 % 1027,5 hPa 0,0 l/m 5,1 km/h (1 Bft) SW 236 0 min 0,000 mm 0,0 UV-I 0 W/m 3,0 C 4,3 C 8,0 km/h (2 Bft) 97,37 %
13.12.2016 00:54 4,3 C 91 % 1027,5 hPa 0,0 l/m 6,4 km/h (2 Bft) W-SW 250 0 min 0,000 mm 0,0 UV-I 0 W/m 3,0 C 4,3 C 9,7 km/h (2 Bft) 100,00 %
13.12.2016 00:56 4,3 C 91 % 1027,5 hPa 0,0 l/m 5,6 km/h (1 Bft) SW 224 0 min 0,000 mm 0,0 UV-I 0 W/m 3,0 C 4,3 C 8,0 km/h (2 Bft) 97,37 %
13.12.2016 00:58 4,3 C 91 % 1027,5 hPa 0,0 l/m 7,2 km/h (2 Bft) W-SW 244 0 min 0,000 mm 0,0 UV-I 0 W/m 3,0 C 3,6 C 11,3 km/h (2 Bft) 100,00 %
13.12.2016 01:00 4,3 C 91 % 1027,5 hPa 0,0 l/m 5,2 km/h (1 Bft) W-SW 239 0 min 0,000 mm 0,0 UV-I 0 W/m 3,0 C 4,3 C 6,4 km/h (2 Bft) 100,00 %
13.12.2016 01:02 4,3 C 91 % 1027,5 hPa 0,0 l/m 4,9 km/h (1 Bft) W 260 0 min 0,000 mm 0,0 UV-I 0 W/m 3,0 C 4,3 C 8,0 km/h (2 Bft) 100,00 %
13.12.2016 01:04 4,3 C 91 % 1027,6 hPa 0,0 l/m 5,8 km/h (2 Bft) W-SW 251 0 min 0,000 mm 0,0 UV-I 0 W/m 3,0 C 4,3 C 9,7 km/h (2 Bft) 100,00 %
13.12.2016 01:06 4,3 C 91 % 1027,6 hPa 0,0 l/m 5,2 km/h (1 Bft) W-SW 245 0 min 0,000 mm 0,0 UV-I 0 W/m 3,0 C 4,3 C 6,4 km/h (2 Bft) 97,37 %
13.12.2016 01:08 4,3 C 91 % 1027,6 hPa 0,0 l/m 5,1 km/h (1 Bft) SW 218 0 min 0,000 mm 0,0 UV-I 0 W/m 3,0 C 4,3 C 6,4 km/h (2 Bft) 96,00 %
13.12.2016 01:10 4,3 C 91 % 1027,6 hPa 0,0 l/m 4,8 km/h (1 Bft) SW 229 0 min 0,000 mm 0,0 UV-I 0 W/m 3,0 C 4,3 C 6,4 km/h (2 Bft) 96,00 %
13.12.2016 01:12 4,3 C 91 % 1027,6 hPa 0,0 l/m 5,6 km/h (1 Bft) SW 221 0 min 0,000 mm 0,0 UV-I 0 W/m 3,0 C 4,3 C 8,0 km/h (2 Bft) 98,00 %
13.12.2016 01:14 4,3 C 91 % 1027,5 hPa 0,0 l/m 5,6 km/h (1 Bft) SW 232 0 min 0,000 mm 0,0 UV-I 0 W/m 3,0 C 4,3 C 8,0 km/h (2 Bft) 100,00 %
13.12.2016 01:16 4,3 C 91 % 1027,6 hPa 0,0 l/m 6,4 km/h (2 Bft) S-SW 211 0 min 0,000 mm 0,0 UV-I 0 W/m 3,0 C 4,3 C 8,0 km/h (2 Bft) 95,08 %
13.12.2016 01:18 4,3 C 91 % 1027,6 hPa 0,0 l/m 7,1 km/h (2 Bft) SW 229 0 min 0,000 mm 0,0 UV-I 0 W/m 3,0 C 3,7 C 9,7 km/h (2 Bft) 96,23 %
13.12.2016 01:20 4,3 C 91 % 1027,6 hPa 0,0 l/m 7,9 km/h (2 Bft) W-SW 239 0 min 0,000 mm 0,0 UV-I 0 W/m 3,0 C 3,0 C 12,9 km/h (3 Bft) 94,74 %
13.12.2016 01:22 4,3 C 91 % 1027,6 hPa 0,0 l/m 5,4 km/h (1 Bft) W-SW 252 0 min 0,000 mm 0,0 UV-I 0 W/m 3,0 C 4,3 C 12,9 km/h (3 Bft) 97,62 %
13.12.2016 01:24 4,3 C 91 % 1027,6 hPa 0,0 l/m 4,8 km/h (1 Bft) SW 227 0 min 0,000 mm 0,0 UV-I 0 W/m 3,0 C 4,3 C 8,0 km/h (2 Bft) 96,23 %
13.12.2016 01:26 4,3 C 91 % 1027,6 hPa 0,0 l/m 5,5 km/h (1 Bft) SW 231 0 min 0,000 mm 0,0 UV-I 0 W/m 3,0 C 4,3 C 8,0 km/h (2 Bft) 95,45 %
13.12.2016 01:28 4,3 C 91 % 1027,5 hPa 0,0 l/m 4,8 km/h (1 Bft) W-SW 238 0 min 0,000 mm 0,0 UV-I 0 W/m 3,0 C 4,3 C 8,0 km/h (2 Bft) 96,23 %
13.12.2016 01:30 4,3 C 91 % 1027,5 hPa 0,0 l/m 5,2 km/h (1 Bft) W 261 0 min 0,000 mm 0,0 UV-I 0 W/m 3,0 C 4,3 C 6,4 km/h (2 Bft) 97,56 %
13.12.2016 01:32 4,3 C 91 % 1027,6 hPa 0,0 l/m 6,6 km/h (2 Bft) W-SW 250 0 min 0,000 mm 0,0 UV-I 0 W/m 3,0 C 4,1 C 11,3 km/h (2 Bft) 98,11 %
13.12.2016 01:34 4,3 C 91 % 1027,6 hPa 0,0 l/m 5,4 km/h (1 Bft) W-SW 246 0 min 0,000 mm 0,0 UV-I 0 W/m 3,0 C 4,3 C 9,7 km/h (2 Bft) 98,11 %
13.12.2016 01:36 4,3 C 91 % 1027,6 hPa 0,0 l/m 5,4 km/h (1 Bft) W 260 0 min 0,000 mm 0,0 UV-I 0 W/m 3,0 C 4,3 C 8,0 km/h (2 Bft) 97,56 %
13.12.2016 01:38 4,3 C 91 % 1027,7 hPa 0,0 l/m 4,7 km/h (1 Bft) W 264 0 min 0,000 mm 0,0 UV-I 0 W/m 3,0 C 4,3 C 6,4 km/h (2 Bft) 98,11 %
13.12.2016 01:40 4,3 C 91 % 1027,7 hPa 0,0 l/m 4,8 km/h (1 Bft) W 268 0 min 0,000 mm 0,0 UV-I 0 W/m 3,0 C 4,3 C 6,4 km/h (2 Bft) 97,37 %
13.12.2016 01:42 4,2 C 91 % 1027,7 hPa 0,0 l/m 4,1 km/h (1 Bft) W-SW 248 0 min 0,000 mm 0,0 UV-I 0 W/m 2,9 C 4,2 C 6,4 km/h (2 Bft) 95,74 %
13.12.2016 01:44 4,2 C 91 % 1027,7 hPa 0,0 l/m 4,5 km/h (1 Bft) W-SW 249 0 min 0,000 mm 0,0 UV-I 0 W/m 2,9 C 4,2 C 6,4 km/h (2 Bft) 100,00 %
13.12.2016 01:46 4,2 C 91 % 1027,7 hPa 0,0 l/m 4,1 km/h (1 Bft) W-SW 256 0 min 0,000 mm 0,0 UV-I 0 W/m 2,9 C 4,2 C 4,8 km/h (1 Bft) 97,73 %
13.12.2016 01:48 4,3 C 91 % 1027,7 hPa 0,0 l/m 5,3 km/h (1 Bft) W-SW 254 0 min 0,000 mm 0,0 UV-I 0 W/m 3,0 C 4,3 C 9,7 km/h (2 Bft) 100,00 %
13.12.2016 01:50 4,2 C 91 % 1027,8 hPa 0,0 l/m 4,3 km/h (1 Bft) W-SW 248 0 min 0,000 mm 0,0 UV-I 0 W/m 2,9 C 4,2 C 6,4 km/h (2 Bft) 98,11 %
13.12.2016 01:52 4,2 C 91 % 1027,8 hPa 0,0 l/m 5,6 km/h (1 Bft) W 259 0 min 0,000 mm 0,0 UV-I 0 W/m 2,9 C 4,2 C 8,0 km/h (2 Bft) 100,00 %
13.12.2016 01:54 4,2 C 91 % 1027,8 hPa 0,0 l/m 4,2 km/h (1 Bft) W 268 0 min 0,000 mm 0,0 UV-I 0 W/m 2,9 C 4,2 C 6,4 km/h (2 Bft) 97,56 %
13.12.2016 01:56 4,2 C 91 % 1027,8 hPa 0,0 l/m 2,9 km/h (1 Bft) W 268 0 min 0,000 mm 0,0 UV-I 0 W/m 2,9 C 4,2 C 4,8 km/h (1 Bft) 96,00 %
13.12.2016 01:58 4,2 C 91 % 1027,8 hPa 0,0 l/m 0,9 km/h (0 Bft) W 268 0 min 0,000 mm 0,0 UV-I 0 W/m 2,9 C 4,2 C 3,2 km/h (1 Bft) 100,00 %
13.12.2016 02:00 4,2 C 91 % 1027,8 hPa 0,0 l/m 0,3 km/h (0 Bft) W 268 0 min 0,000 mm 0,0 UV-I 0 W/m 2,9 C 4,2 C 1,6 km/h (1 Bft) 100,00 %
13.12.2016 02:02 4,2 C 91 % 1027,8 hPa 0,0 l/m 0,5 km/h (0 Bft) W 268 0 min 0,000 mm 0,0 UV-I 0 W/m 2,9 C 4,2 C 1,6 km/h (1 Bft) 97,87 %
13.12.2016 02:04 4,2 C 91 % 1027,8 hPa 0,0 l/m 0,0 km/h (0 Bft) W 268 0 min 0,000 mm 0,0 UV-I 0 W/m 2,9 C 4,2 C 0,0 km/h (0 Bft) 100,00 %
13.12.2016 02:06 4,2 C 91 % 1027,8 hPa 0,0 l/m 0,0 km/h (0 Bft) W 268 0 min 0,000 mm 0,0 UV-I 0 W/m 2,9 C 4,2 C 0,0 km/h (0 Bft) 100,00 %
13.12.2016 02:08 4,2 C 91 % 1027,8 hPa 0,0 l/m 1,1 km/h (1 Bft) W 268 0 min 0,000 mm 0,0 UV-I 0 W/m 2,9 C 4,2 C 1,6 km/h (1 Bft) 100,00 %
13.12.2016 02:10 4,2 C 91 % 1027,8 hPa 0,0 l/m 0,5 km/h (0 Bft) W 268 0 min 0,000 mm 0,0 UV-I 0 W/m 2,9 C 4,2 C 1,6 km/h (1 Bft) 100,00 %
13.12.2016 02:12 4,2 C 91 % 1027,8 hPa 0,0 l/m 0,3 km/h (0 Bft) W 268 0 min 0,000 mm 0,0 UV-I 0 W/m 2,9 C 4,2 C 1,6 km/h (1 Bft) 100,00 %
13.12.2016 02:14 4,2 C 91 % 1027,8 hPa 0,0 l/m 0,0 km/h (0 Bft) W 268 0 min 0,000 mm 0,0 UV-I 0 W/m 2,9 C 4,2 C 0,0 km/h (0 Bft) 100,00 %
13.12.2016 02:16 4,2 C 91 % 1027,8 hPa 0,0 l/m 0,9 km/h (0 Bft) W 268 0 min 0,000 mm 0,0 UV-I 0 W/m 2,9 C 4,2 C 3,2 km/h (1 Bft) 100,00 %
13.12.2016 02:18 4,2 C 91 % 1027,8 hPa 0,0 l/m 0,0 km/h (0 Bft) W 268 0 min 0,000 mm 0,0 UV-I 0 W/m 2,9 C 4,2 C 0,0 km/h (0 Bft) 100,00 %
13.12.2016 02:20 4,2 C 91 % 1027,9 hPa 0,0 l/m 0,1 km/h (0 Bft) W 268 0 min 0,000 mm 0,0 UV-I 0 W/m 2,9 C 4,2 C 1,6 km/h (1 Bft) 100,00 %
13.12.2016 02:22 4,2 C 91 % 1027,8 hPa 0,0 l/m 0,0 km/h (0 Bft) W 268 0 min 0,000 mm 0,0 UV-I 0 W/m 2,9 C 4,2 C 0,0 km/h (0 Bft) 98,11 %
13.12.2016 02:24 4,2 C 91 % 1027,8 hPa 0,0 l/m 1,1 km/h (1 Bft) W 268 0 min 0,000 mm 0,0 UV-I 0 W/m 2,9 C 4,2 C 3,2 km/h (1 Bft) 100,00 %
13.12.2016 02:26 4,2 C 91 % 1027,9 hPa 0,0 l/m 1,1 km/h (1 Bft) W 268 0 min 0,000 mm 0,0 UV-I 0 W/m 2,9 C 4,2 C 3,2 km/h (1 Bft) 100,00 %
13.12.2016 02:28 4,2 C 91 % 1027,8 hPa 0,0 l/m 0,8 km/h (0 Bft) W 268 0 min 0,000 mm 0,0 UV-I 0 W/m 2,9 C 4,2 C 1,6 km/h (1 Bft) 100,00 %
13.12.2016 02:30 4,2 C 91 % 1027,8 hPa 0,0 l/m 0,5 km/h (0 Bft) W 268 0 min 0,000 mm 0,0 UV-I 0 W/m 2,9 C 4,2 C 1,6 km/h (1 Bft) 100,00 %
13.12.2016 02:32 4,2 C 91 % 1027,8 hPa 0,0 l/m 0,3 km/h (0 Bft) W 268 0 min 0,000 mm 0,0 UV-I 0 W/m 2,9 C 4,2 C 1,6 km/h (1 Bft) 100,00 %
13.12.2016 02:34 4,2 C 91 % 1027,8 hPa 0,0 l/m 0,2 km/h (0 Bft) W 268 0 min 0,000 mm 0,0 UV-I 0 W/m 2,9 C 4,2 C 1,6 km/h (1 Bft) 100,00 %
13.12.2016 02:36 4,1 C 91 % 1027,8 hPa 0,0 l/m 0,0 km/h (0 Bft) W 268 0 min 0,000 mm 0,0 UV-I 0 W/m 2,8 C 4,1 C 0,0 km/h (0 Bft) 98,00 %
13.12.2016 02:38 4,2 C 91 % 1027,8 hPa 0,0 l/m 0,0 km/h (0 Bft) W 268 0 min 0,000 mm 0,0 UV-I 0 W/m 2,9 C 4,2 C 0,0 km/h (0 Bft) 100,00 %
13.12.2016 02:40 4,1 C 91 % 1027,8 hPa 0,0 l/m 0,1 km/h (0 Bft) W 268 0 min 0,000 mm 0,0 UV-I 0 W/m 2,8 C 4,1 C 1,6 km/h (1 Bft) 97,87 %
13.12.2016 02:42 4,1 C 91 % 1027,8 hPa 0,0 l/m 0,0 km/h (0 Bft) W 268 0 min 0,000 mm 0,0 UV-I 0 W/m 2,8 C 4,1 C 0,0 km/h (0 Bft) 97,22 %
13.12.2016 02:44 4,1 C 92 % 1027,8 hPa 0,0 l/m 0,1 km/h (0 Bft) W 268 0 min 0,000 mm 0,0 UV-I 0 W/m 2,9 C 4,1 C 1,6 km/h (1 Bft) 96,15 %
13.12.2016 02:46 4,1 C 92 % 1027,7 hPa 0,0 l/m 0,0 km/h (0 Bft) W 268 0 min 0,000 mm 0,0 UV-I 0 W/m 2,9 C 4,1 C 0,0 km/h (0 Bft) 100,00 %
13.12.2016 02:48 4,1 C 92 % 1027,8 hPa 0,0 l/m 0,0 km/h (0 Bft) W 268 0 min 0,000 mm 0,0 UV-I 0 W/m 2,9 C 4,1 C 0,0 km/h (0 Bft) 98,00 %
13.12.2016 02:50 4,1 C 92 % 1027,7 hPa 0,0 l/m 0,8 km/h (0 Bft) W 268 0 min 0,000 mm 0,0 UV-I 0 W/m 2,9 C 4,1 C 1,6 km/h (1 Bft) 100,00 %
13.12.2016 02:52 4,1 C 92 % 1027,7 hPa 0,0 l/m 0,7 km/h (0 Bft) W 268 0 min 0,000 mm 0,0 UV-I 0 W/m 2,9 C 4,1 C 1,6 km/h (1 Bft) 100,00 %
13.12.2016 02:54 4,1 C 92 % 1027,8 hPa 0,0 l/m 0,7 km/h (0 Bft) W 268 0 min 0,000 mm 0,0 UV-I 0 W/m 2,9 C 4,1 C 1,6 km/h (1 Bft) 100,00 %
13.12.2016 02:56 4,0 C 92 % 1027,8 hPa 0,0 l/m 0,5 km/h (0 Bft) W 268 0 min 0,000 mm 0,0 UV-I 0 W/m 2,8 C 4,0 C 1,6 km/h (1 Bft) 97,87 %
13.12.2016 02:58 4,0 C 92 % 1027,7 hPa 0,0 l/m 0,8 km/h (0 Bft) W 268 0 min 0,000 mm 0,0 UV-I 0 W/m 2,8 C 4,0 C 1,6 km/h (1 Bft) 100,00 %
13.12.2016 03:00 4,0 C 92 % 1027,7 hPa 0,0 l/m 0,9 km/h (0 Bft) W 268 0 min 0,000 mm 0,0 UV-I 0 W/m 2,8 C 4,0 C 1,6 km/h (1 Bft) 95,74 %
13.12.2016 03:02 4,0 C 92 % 1027,7 hPa 0,0 l/m 0,3 km/h (0 Bft) W 268 0 min 0,000 mm 0,0 UV-I 0 W/m 2,8 C 4,0 C 1,6 km/h (1 Bft) 100,00 %
13.12.2016 03:04 4,0 C 92 % 1027,7 hPa 0,0 l/m 0,0 km/h (0 Bft) W 268 0 min 0,000 mm 0,0 UV-I 0 W/m 2,8 C 4,0 C 0,0 km/h (0 Bft) 100,00 %
13.12.2016 03:06 4,0 C 92 % 1027,7 hPa 0,0 l/m 0,0 km/h (0 Bft) W 268 0 min 0,000 mm 0,0 UV-I 0 W/m 2,8 C 4,0 C 0,0 km/h (0 Bft) 100,00 %
13.12.2016 03:08 3,9 C 92 % 1027,7 hPa 0,0 l/m 0,0 km/h (0 Bft) W 268 0 min 0,000 mm 0,0 UV-I 0 W/m 2,7 C 3,9 C 0,0 km/h (0 Bft) 95,74 %
13.12.2016 03:10 3,9 C 92 % 1027,7 hPa 0,0 l/m 0,0 km/h (0 Bft) W 268 0 min 0,000 mm 0,0 UV-I 0 W/m 2,7 C 3,9 C 0,0 km/h (0 Bft) 100,00 %
13.12.2016 03:12 3,9 C 92 % 1027,7 hPa 0,0 l/m 0,0 km/h (0 Bft) W 268 0 min 0,000 mm 0,0 UV-I 0 W/m 2,7 C 3,9 C 1,6 km/h (1 Bft) 96,30 %
13.12.2016 03:14 3,9 C 92 % 1027,7 hPa 0,0 l/m 0,3 km/h (0 Bft) W 268 0 min 0,000 mm 0,0 UV-I 0 W/m 2,7 C 3,9 C 1,6 km/h (1 Bft) 97,87 %
13.12.2016 03:16 3,9 C 92 % 1027,7 hPa 0,0 l/m 0,2 km/h (0 Bft) W 268 0 min 0,000 mm 0,0 UV-I 0 W/m 2,7 C 3,9 C 1,6 km/h (1 Bft) 96,00 %
13.12.2016 03:18 3,9 C 92 % 1027,7 hPa 0,0 l/m 0,1 km/h (0 Bft) W 268 0 min 0,000 mm 0,0 UV-I 0 W/m 2,7 C 3,9 C 1,6 km/h (1 Bft) 97,22 %
13.12.2016 03:20 3,9 C 92 % 1027,8 hPa 0,0 l/m 0,4 km/h (0 Bft) W 268 0 min 0,000 mm 0,0 UV-I 0 W/m 2,7 C 3,9 C 1,6 km/h (1 Bft) 98,00 %
13.12.2016 03:22 3,9 C 92 % 1027,8 hPa 0,0 l/m 0,0 km/h (0 Bft) W 268 0 min 0,000 mm 0,0 UV-I 0 W/m 2,7 C 3,9 C 0,0 km/h (0 Bft) 98,18 %
13.12.2016 03:24 3,9 C 92 % 1027,8 hPa 0,0 l/m 0,0 km/h (0 Bft) W 268 0 min 0,000 mm 0,0 UV-I 0 W/m 2,7 C 3,9 C 0,0 km/h (0 Bft) 97,62 %
13.12.2016 03:26 3,9 C 92 % 1027,7 hPa 0,0 l/m 0,0 km/h (0 Bft) W 268 0 min 0,000 mm 0,0 UV-I 0 W/m 2,7 C 3,9 C 0,0 km/h (0 Bft) 97,87 %
13.12.2016 03:28 3,9 C 92 % 1027,7 hPa 0,0 l/m 0,0 km/h (0 Bft) W 268 0 min 0,000 mm 0,0 UV-I 0 W/m 2,7 C 3,9 C 0,0 km/h (0 Bft) 93,62 %
13.12.2016 03:30 3,9 C 92 % 1027,8 hPa 0,0 l/m 0,1 km/h (0 Bft) W 268 0 min 0,000 mm 0,0 UV-I 0 W/m 2,7 C 3,9 C 1,6 km/h (1 Bft) 97,87 %
13.12.2016 03:32 3,9 C 92 % 1027,7 hPa 0,0 l/m 0,2 km/h (0 Bft) W 268 0 min 0,000 mm 0,0 UV-I 0 W/m 2,7 C 3,9 C 1,6 km/h (1 Bft) 95,12 %
13.12.2016 03:34 3,8 C 92 % 1027,8 hPa 0,0 l/m 0,2 km/h (0 Bft) W 268 0 min 0,000 mm 0,0 UV-I 0 W/m 2,6 C 3,8 C 1,6 km/h (1 Bft) 96,00 %
13.12.2016 03:36 3,8 C 92 % 1027,7 hPa 0,0 l/m 0,0 km/h (0 Bft) W 268 0 min 0,000 mm 0,0 UV-I 0 W/m 2,6 C 3,8 C 0,0 km/h (0 Bft) 98,11 %
13.12.2016 03:38 3,8 C 92 % 1027,7 hPa 0,0 l/m 0,0 km/h (0 Bft) W 268 0 min 0,000 mm 0,0 UV-I 0 W/m 2,6 C 3,8 C 0,0 km/h (0 Bft) 98,00 %
13.12.2016 03:40 3,8 C 92 % 1027,6 hPa 0,0 l/m 0,0 km/h (0 Bft) W 268 0 min 0,000 mm 0,0 UV-I 0 W/m 2,6 C 3,8 C 0,0 km/h (0 Bft) 97,87 %
13.12.2016 03:42 3,8 C 92 % 1027,6 hPa 0,0 l/m 0,0 km/h (0 Bft) W 268 0 min 0,000 mm 0,0 UV-I 0 W/m 2,6 C 3,8 C 0,0 km/h (0 Bft) 91,49 %
13.12.2016 03:44 3,8 C 92 % 1027,6 hPa 0,0 l/m 0,0 km/h (0 Bft) W 268 0 min 0,000 mm 0,0 UV-I 0 W/m 2,6 C 3,8 C 0,0 km/h (0 Bft) 100,00 %
13.12.2016 03:46 3,8 C 92 % 1027,6 hPa 0,0 l/m 0,0 km/h (0 Bft) W 268 0 min 0,000 mm 0,0 UV-I 0 W/m 2,6 C 3,8 C 0,0 km/h (0 Bft) 95,74 %
13.12.2016 03:48 3,8 C 92 % 1027,6 hPa 0,0 l/m 0,0 km/h (0 Bft) W 268 0 min 0,000 mm 0,0 UV-I 0 W/m 2,6 C 3,8 C 0,0 km/h (0 Bft) 98,00 %
13.12.2016 03:50 3,8 C 92 % 1027,6 hPa 0,0 l/m 0,1 km/h (0 Bft) W 268 0 min 0,000 mm 0,0 UV-I 0 W/m 2,6 C 3,8 C 1,6 km/h (1 Bft) 97,87 %
13.12.2016 03:52 3,8 C 92 % 1027,6 hPa 0,0 l/m 1,1 km/h (1 Bft) W 268 0 min 0,000 mm 0,0 UV-I 0 W/m 2,6 C 3,8 C 3,2 km/h (1 Bft) 100,00 %
13.12.2016 03:54 3,8 C 92 % 1027,6 hPa 0,0 l/m 2,6 km/h (1 Bft) W 268 0 min 0,000 mm 0,0 UV-I 0 W/m 2,6 C 3,8 C 3,2 km/h (1 Bft) 100,00 %
13.12.2016 03:56 3,8 C 92 % 1027,6 hPa 0,0 l/m 3,5 km/h (1 Bft) W 268 0 min 0,000 mm 0,0 UV-I 0 W/m 2,6 C 3,8 C 4,8 km/h (1 Bft) 98,00 %
13.12.2016 03:58 3,7 C 92 % 1027,7 hPa 0,0 l/m 3,3 km/h (1 Bft) W-SW 257 0 min 0,000 mm 0,0 UV-I 0 W/m 2,5 C 3,7 C 4,8 km/h (1 Bft) 100,00 %
13.12.2016 04:00 3,7 C 92 % 1027,7 hPa 0,0 l/m 2,2 km/h (1 Bft) W-SW 257 0 min 0,000 mm 0,0 UV-I 0 W/m 2,5 C 3,7 C 4,8 km/h (1 Bft) 97,92 %
13.12.2016 04:02 3,7 C 92 % 1027,7 hPa 0,0 l/m 2,1 km/h (1 Bft) SW 236 0 min 0,000 mm 0,0 UV-I 0 W/m 2,5 C 3,7 C 3,2 km/h (1 Bft) 100,00 %
13.12.2016 04:04 3,7 C 92 % 1027,6 hPa 0,0 l/m 1,4 km/h (1 Bft) SW 225 0 min 0,000 mm 0,0 UV-I 0 W/m 2,5 C 3,7 C 3,2 km/h (1 Bft) 100,00 %
13.12.2016 04:06 3,7 C 92 % 1027,7 hPa 0,0 l/m 1,0 km/h (0 Bft) SW 225 0 min 0,000 mm 0,0 UV-I 0 W/m 2,5 C 3,7 C 3,2 km/h (1 Bft) 96,61 %
13.12.2016 04:08 3,6 C 92 % 1027,6 hPa 0,0 l/m 3,1 km/h (1 Bft) SW 225 0 min 0,000 mm 0,0 UV-I 0 W/m 2,4 C 3,6 C 4,8 km/h (1 Bft) 95,74 %
13.12.2016 04:10 3,6 C 92 % 1027,6 hPa 0,0 l/m 3,6 km/h (1 Bft) SW 216 0 min 0,000 mm 0,0 UV-I 0 W/m 2,4 C 3,6 C 4,8 km/h (1 Bft) 100,00 %
13.12.2016 04:12 3,6 C 92 % 1027,6 hPa 0,0 l/m 3,3 km/h (1 Bft) O 100 0 min 0,000 mm 0,0 UV-I 0 W/m 2,4 C 3,6 C 4,8 km/h (1 Bft) 100,00 %
13.12.2016 04:14 3,6 C 93 % 1027,6 hPa 0,0 l/m 4,1 km/h (1 Bft) O-NO 74 0 min 0,000 mm 0,0 UV-I 0 W/m 2,6 C 3,6 C 4,8 km/h (1 Bft) 100,00 %
13.12.2016 04:16 3,6 C 93 % 1027,6 hPa 0,0 l/m 3,2 km/h (1 Bft) O-NO 74 0 min 0,000 mm 0,0 UV-I 0 W/m 2,6 C 3,6 C 4,8 km/h (1 Bft) 100,00 %
13.12.2016 04:18 3,6 C 93 % 1027,6 hPa 0,0 l/m 2,5 km/h (1 Bft) O-NO 74 0 min 0,000 mm 0,0 UV-I 0 W/m 2,6 C 3,6 C 3,2 km/h (1 Bft) 95,74 %
13.12.2016 04:20 3,6 C 93 % 1027,5 hPa 0,0 l/m 4,0 km/h (1 Bft) O-NO 74 0 min 0,000 mm 0,0 UV-I 0 W/m 2,6 C 3,6 C 4,8 km/h (1 Bft) 100,00 %
13.12.2016 04:22 3,6 C 93 % 1027,6 hPa 0,0 l/m 2,2 km/h (1 Bft) O-NO 74 0 min 0,000 mm 0,0 UV-I 0 W/m 2,6 C 3,6 C 4,8 km/h (1 Bft) 100,00 %
13.12.2016 04:24 3,6 C 93 % 1027,6 hPa 0,0 l/m 1,9 km/h (1 Bft) O-NO 74 0 min 0,000 mm 0,0 UV-I 0 W/m 2,6 C 3,6 C 3,2 km/h (1 Bft) 93,33 %
13.12.2016 04:26 3,6 C 93 % 1027,6 hPa 0,0 l/m 2,1 km/h (1 Bft) O-NO 74 0 min 0,000 mm 0,0 UV-I 0 W/m 2,6 C 3,6 C 3,2 km/h (1 Bft) 98,73 %
13.12.2016 04:28 3,6 C 93 % 1027,6 hPa 0,0 l/m 1,8 km/h (1 Bft) O-NO 74 0 min 0,000 mm 0,0 UV-I 0 W/m 2,6 C 3,6 C 3,2 km/h (1 Bft) 100,00 %
13.12.2016 04:30 3,5 C 93 % 1027,6 hPa 0,0 l/m 2,2 km/h (1 Bft) O-NO 74 0 min 0,000 mm 0,0 UV-I 0 W/m 2,5 C 3,5 C 3,2 km/h (1 Bft) 100,00 %
13.12.2016 04:32 3,5 C 93 % 1027,6 hPa 0,0 l/m 1,7 km/h (1 Bft) O-NO 74 0 min 0,000 mm 0,0 UV-I 0 W/m 2,5 C 3,5 C 3,2 km/h (1 Bft) 100,00 %
13.12.2016 04:34 3,5 C 93 % 1027,6 hPa 0,0 l/m 1,7 km/h (1 Bft) O-NO 74 0 min 0,000 mm 0,0 UV-I 0 W/m 2,5 C 3,5 C 3,2 km/h (1 Bft) 94,64 %
13.12.2016 04:36 3,5 C 93 % 1027,5 hPa 0,0 l/m 1,9 km/h (1 Bft) O-NO 74 0 min 0,000 mm 0,0 UV-I 0 W/m 2,5 C 3,5 C 3,2 km/h (1 Bft) 97,87 %
13.12.2016 04:38 3,5 C 93 % 1027,6 hPa 0,0 l/m 2,3 km/h (1 Bft) O-NO 74 0 min 0,000 mm 0,0 UV-I 0 W/m 2,5 C 3,5 C 3,2 km/h (1 Bft) 97,87 %
13.12.2016 04:40 3,5 C 93 % 1027,5 hPa 0,0 l/m 1,6 km/h (1 Bft) O-NO 74 0 min 0,000 mm 0,0 UV-I 0 W/m 2,5 C 3,5 C 3,2 km/h (1 Bft) 100,00 %
13.12.2016 04:42 3,4 C 93 % 1027,6 hPa 0,0 l/m 1,2 km/h (1 Bft) O-NO 74 0 min 0,000 mm 0,0 UV-I 0 W/m 2,4 C 3,4 C 3,2 km/h (1 Bft) 95,83 %
13.12.2016 04:44 3,4 C 93 % 1027,6 hPa 0,0 l/m 0,1 km/h (0 Bft) O-NO 74 0 min 0,000 mm 0,0 UV-I 0 W/m 2,4 C 3,4 C 1,6 km/h (1 Bft) 100,00 %
13.12.2016 04:46 3,4 C 93 % 1027,6 hPa 0,0 l/m 0,1 km/h (0 Bft) O-NO 74 0 min 0,000 mm 0,0 UV-I 0 W/m 2,4 C 3,4 C 1,6 km/h (1 Bft) 97,87 %
13.12.2016 04:48 3,4 C 93 % 1027,6 hPa 0,0 l/m 0,1 km/h (0 Bft) O-NO 74 0 min 0,000 mm 0,0 UV-I 0 W/m 2,4 C 3,4 C 1,6 km/h (1 Bft) 100,00 %
13.12.2016 04:50 3,4 C 93 % 1027,6 hPa 0,0 l/m 0,0 km/h (0 Bft) O-NO 74 0 min 0,000 mm 0,0 UV-I 0 W/m 2,4 C 3,4 C 1,6 km/h (1 Bft) 100,00 %
13.12.2016 04:52 3,4 C 93 % 1027,6 hPa 0,0 l/m 0,0 km/h (0 Bft) O-NO 74 0 min 0,000 mm 0,0 UV-I 0 W/m 2,4 C 3,4 C 0,0 km/h (0 Bft) 100,00 %
13.12.2016 04:54 3,4 C 93 % 1027,6 hPa 0,0 l/m 0,0 km/h (0 Bft) O-NO 74 0 min 0,000 mm 0,0 UV-I 0 W/m 2,4 C 3,4 C 0,0 km/h (0 Bft) 97,87 %
13.12.2016 04:56 3,4 C 93 % 1027,7 hPa 0,0 l/m 0,0 km/h (0 Bft) O-NO 74 0 min 0,000 mm 0,0 UV-I 0 W/m 2,4 C 3,4 C 0,0 km/h (0 Bft) 100,00 %
13.12.2016 04:58 3,4 C 93 % 1027,6 hPa 0,0 l/m 3,4 km/h (1 Bft) O-NO 58 0 min 0,000 mm 0,0 UV-I 0 W/m 2,4 C 3,4 C 4,8 km/h (1 Bft) 100,00 %
13.12.2016 05:00 3,4 C 93 % 1027,6 hPa 0,0 l/m 4,1 km/h (1 Bft) O-NO 64 0 min 0,000 mm 0,0 UV-I 0 W/m 2,4 C 3,4 C 6,4 km/h (2 Bft) 100,00 %
13.12.2016 05:02 3,4 C 93 % 1027,6 hPa 0,0 l/m 4,9 km/h (1 Bft) O-NO 59 0 min 0,000 mm 0,0 UV-I 0 W/m 2,4 C 3,4 C 8,0 km/h (2 Bft) 100,00 %
13.12.2016 05:04 3,4 C 93 % 1027,6 hPa 0,0 l/m 6,0 km/h (2 Bft) O 83 0 min 0,000 mm 0,0 UV-I 0 W/m 2,4 C 3,4 C 9,7 km/h (2 Bft) 98,21 %
13.12.2016 05:06 3,4 C 94 % 1027,7 hPa 0,0 l/m 4,1 km/h (1 Bft) O 81 0 min 0,000 mm 0,0 UV-I 0 W/m 2,5 C 3,4 C 6,4 km/h (2 Bft) 100,00 %
13.12.2016 05:08 3,4 C 94 % 1027,7 hPa 0,0 l/m 3,9 km/h (1 Bft) O-NO 75 0 min 0,000 mm 0,0 UV-I 0 W/m 2,5 C 3,4 C 4,8 km/h (1 Bft) 100,00 %
13.12.2016 05:10 3,4 C 94 % 1027,7 hPa 0,0 l/m 4,0 km/h (1 Bft) O-NO 63 0 min 0,000 mm 0,0 UV-I 0 W/m 2,5 C 3,4 C 6,4 km/h (2 Bft) 100,00 %
13.12.2016 05:12 3,4 C 94 % 1027,7 hPa 0,0 l/m 3,5 km/h (1 Bft) O-NO 63 0 min 0,000 mm 0,0 UV-I 0 W/m 2,5 C 3,4 C 4,8 km/h (1 Bft) 98,11 %
13.12.2016 05:14 3,4 C 94 % 1027,7 hPa 0,0 l/m 4,0 km/h (1 Bft) O-NO 63 0 min 0,000 mm 0,0 UV-I 0 W/m 2,5 C 3,4 C 6,4 km/h (2 Bft) 100,00 %
13.12.2016 05:16 3,4 C 94 % 1027,7 hPa 0,0 l/m 5,5 km/h (1 Bft) O-NO 58 0 min 0,000 mm 0,0 UV-I 0 W/m 2,5 C 3,4 C 6,4 km/h (2 Bft) 100,00 %
13.12.2016 05:18 3,4 C 94 % 1027,7 hPa 0,0 l/m 4,7 km/h (1 Bft) O-NO 58 0 min 0,000 mm 0,0 UV-I 0 W/m 2,5 C 3,4 C 6,4 km/h (2 Bft) 100,00 %
13.12.2016 05:20 3,4 C 94 % 1027,7 hPa 0,0 l/m 4,6 km/h (1 Bft) O-NO 58 0 min 0,000 mm 0,0 UV-I 0 W/m 2,5 C 3,4 C 6,4 km/h (2 Bft) 95,74 %
13.12.2016 05:22 3,4 C 94 % 1027,7 hPa 0,0 l/m 3,9 km/h (1 Bft) O-NO 58 0 min 0,000 mm 0,0 UV-I 0 W/m 2,5 C 3,4 C 4,8 km/h (1 Bft) 97,22 %
13.12.2016 05:24 3,4 C 94 % 1027,7 hPa 0,0 l/m 3,7 km/h (1 Bft) NO 53 0 min 0,000 mm 0,0 UV-I 0 W/m 2,5 C 3,4 C 6,4 km/h (2 Bft) 98,39 %
13.12.2016 05:26 3,4 C 94 % 1027,7 hPa 0,0 l/m 5,5 km/h (1 Bft) NO 51 0 min 0,000 mm 0,0 UV-I 0 W/m 2,5 C 3,4 C 6,4 km/h (2 Bft) 97,87 %
13.12.2016 05:28 3,4 C 94 % 1027,7 hPa 0,0 l/m 4,9 km/h (1 Bft) NO 51 0 min 0,000 mm 0,0 UV-I 0 W/m 2,5 C 3,4 C 6,4 km/h (2 Bft) 97,14 %
13.12.2016 05:30 3,4 C 94 % 1027,6 hPa 0,0 l/m 6,0 km/h (2 Bft) O-NO 59 0 min 0,000 mm 0,0 UV-I 0 W/m 2,5 C 3,4 C 8,0 km/h (2 Bft) 96,30 %
13.12.2016 05:32 3,4 C 94 % 1027,6 hPa 0,0 l/m 6,4 km/h (2 Bft) O-NO 61 0 min 0,000 mm 0,0 UV-I 0 W/m 2,5 C 3,4 C 8,0 km/h (2 Bft) 97,56 %
13.12.2016 05:34 3,3 C 94 % 1027,6 hPa 0,0 l/m 6,3 km/h (2 Bft) O-NO 61 0 min 0,000 mm 0,0 UV-I 0 W/m 2,4 C 3,3 C 8,0 km/h (2 Bft) 98,21 %
13.12.2016 05:36 3,3 C 95 % 1027,6 hPa 0,0 l/m 5,9 km/h (2 Bft) O-NO 60 0 min 0,000 mm 0,0 UV-I 0 W/m 2,6 C 3,3 C 8,0 km/h (2 Bft) 94,74 %
13.12.2016 05:38 3,3 C 95 % 1027,6 hPa 0,0 l/m 5,9 km/h (2 Bft) NO 51 0 min 0,000 mm 0,0 UV-I 0 W/m 2,6 C 3,3 C 8,0 km/h (2 Bft) 98,11 %
13.12.2016 05:40 3,3 C 95 % 1027,7 hPa 0,0 l/m 6,2 km/h (2 Bft) NO 49 0 min 0,000 mm 0,0 UV-I 0 W/m 2,6 C 3,3 C 9,7 km/h (2 Bft) 95,74 %
13.12.2016 05:42 3,3 C 95 % 1027,7 hPa 0,0 l/m 5,9 km/h (2 Bft) NO 52 0 min 0,000 mm 0,0 UV-I 0 W/m 2,6 C 3,3 C 8,0 km/h (2 Bft) 98,00 %
13.12.2016 05:44 3,2 C 95 % 1027,7 hPa 0,0 l/m 6,3 km/h (2 Bft) NO 46 0 min 0,000 mm 0,0 UV-I 0 W/m 2,5 C 3,2 C 9,7 km/h (2 Bft) 95,12 %
13.12.2016 05:46 3,2 C 95 % 1027,7 hPa 0,0 l/m 5,1 km/h (1 Bft) O-NO 64 0 min 0,000 mm 0,0 UV-I 0 W/m 2,5 C 3,2 C 6,4 km/h (2 Bft) 94,00 %
13.12.2016 05:48 3,2 C 95 % 1027,7 hPa 0,0 l/m 5,0 km/h (1 Bft) NO 46 0 min 0,000 mm 0,0 UV-I 0 W/m 2,5 C 3,2 C 8,0 km/h (2 Bft) 96,00 %
13.12.2016 05:50 3,1 C 95 % 1027,7 hPa 0,0 l/m 5,8 km/h (2 Bft) O-NO 65 0 min 0,000 mm 0,0 UV-I 0 W/m 2,4 C 3,1 C 8,0 km/h (2 Bft) 97,37 %
13.12.2016 05:52 3,1 C 95 % 1027,6 hPa 0,0 l/m 7,4 km/h (2 Bft) NO 55 0 min 0,000 mm 0,0 UV-I 0 W/m 2,4 C 2,2 C 9,7 km/h (2 Bft) 98,00 %
13.12.2016 05:54 3,0 C 95 % 1027,6 hPa 0,0 l/m 7,8 km/h (2 Bft) O-NO 62 0 min 0,000 mm 0,0 UV-I 0 W/m 2,3 C 1,7 C 12,9 km/h (3 Bft) 100,00 %
13.12.2016 05:56 2,9 C 95 % 1027,6 hPa 0,0 l/m 7,4 km/h (2 Bft) NO 55 0 min 0,000 mm 0,0 UV-I 0 W/m 2,2 C 1,9 C 9,7 km/h (2 Bft) 97,87 %
13.12.2016 05:58 2,8 C 95 % 1027,6 hPa 0,0 l/m 7,2 km/h (2 Bft) NO 51 0 min 0,000 mm 0,0 UV-I 0 W/m 2,1 C 2,0 C 9,7 km/h (2 Bft) 100,00 %
13.12.2016 06:00 2,8 C 95 % 1027,6 hPa 0,0 l/m 5,9 km/h (2 Bft) NO 34 0 min 0,000 mm 0,0 UV-I 0 W/m 2,1 C 2,8 C 9,7 km/h (2 Bft) 100,00 %
13.12.2016 06:02 2,8 C 95 % 1027,6 hPa 0,0 l/m 6,5 km/h (2 Bft) O-NO 60 0 min 0,000 mm 0,0 UV-I 0 W/m 2,1 C 2,7 C 9,7 km/h (2 Bft) 95,12 %
13.12.2016 06:04 2,7 C 95 % 1027,6 hPa 0,0 l/m 7,0 km/h (2 Bft) O-NO 71 0 min 0,000 mm 0,0 UV-I 0 W/m 2,0 C 2,1 C 11,3 km/h (2 Bft) 100,00 %
13.12.2016 06:06 2,6 C 95 % 1027,6 hPa 0,0 l/m 7,1 km/h (2 Bft) O-NO 65 0 min 0,000 mm 0,0 UV-I 0 W/m 1,9 C 1,9 C 9,7 km/h (2 Bft) 100,00 %
13.12.2016 06:08 2,5 C 95 % 1027,6 hPa 0,0 l/m 6,5 km/h (2 Bft) NO 50 0 min 0,000 mm 0,0 UV-I 0 W/m 1,8 C 2,4 C 9,7 km/h (2 Bft) 100,00 %
13.12.2016 06:10 2,4 C 95 % 1027,6 hPa 0,0 l/m 8,4 km/h (2 Bft) O-NO 57 0 min 0,000 mm 0,0 UV-I 0 W/m 1,7 C 0,5 C 11,3 km/h (2 Bft) 100,00 %
13.12.2016 06:12 2,3 C 95 % 1027,6 hPa 0,0 l/m 7,6 km/h (2 Bft) O-NO 66 0 min 0,000 mm 0,0 UV-I 0 W/m 1,6 C 1,1 C 9,7 km/h (2 Bft) 100,00 %
13.12.2016 06:14 2,2 C 95 % 1027,5 hPa 0,0 l/m 7,6 km/h (2 Bft) O-NO 68 0 min 0,000 mm 0,0 UV-I 0 W/m 1,5 C 1,0 C 9,7 km/h (2 Bft) 100,00 %
13.12.2016 06:16 2,2 C 95 % 1027,5 hPa 0,0 l/m 8,6 km/h (2 Bft) O-NO 59 0 min 0,000 mm 0,0 UV-I 0 W/m 1,5 C 0,1 C 12,9 km/h (3 Bft) 100,00 %
13.12.2016 06:18 2,1 C 95 % 1027,5 hPa 0,0 l/m 8,0 km/h (2 Bft) O-NO 62 0 min 0,000 mm 0,0 UV-I 0 W/m 1,4 C 0,6 C 12,9 km/h (3 Bft) 100,00 %
13.12.2016 06:20 2,0 C 95 % 1027,6 hPa 0,0 l/m 7,3 km/h (2 Bft) O-NO 67 0 min 0,000 mm 0,0 UV-I 0 W/m 1,3 C 1,1 C 11,3 km/h (2 Bft) 100,00 %
13.12.2016 06:22 1,9 C 95 % 1027,5 hPa 0,0 l/m 10,8 km/h (2 Bft) O-NO 61 0 min 0,000 mm 0,0 UV-I 0 W/m 1,2 C -2,0 C 16,1 km/h (3 Bft) 100,00 %
13.12.2016 06:24 1,8 C 95 % 1027,5 hPa 0,0 l/m 10,6 km/h (2 Bft) O-NO 71 0 min 0,000 mm 0,0 UV-I 0 W/m 1,1 C -1,9 C 16,1 km/h (3 Bft) 98,11 %
13.12.2016 06:26 1,7 C 95 % 1027,5 hPa 0,0 l/m 11,3 km/h (2 Bft) O-NO 71 0 min 0,000 mm 0,0 UV-I 0 W/m 1,0 C -2,6 C 14,5 km/h (3 Bft) 100,00 %
13.12.2016 06:28 1,7 C 95 % 1027,5 hPa 0,0 l/m 9,6 km/h (2 Bft) O-NO 71 0 min 0,000 mm 0,0 UV-I 0 W/m 1,0 C -1,3 C 14,5 km/h (3 Bft) 100,00 %
13.12.2016 06:30 1,6 C 95 % 1027,5 hPa 0,0 l/m 9,4 km/h (2 Bft) O-NO 71 0 min 0,000 mm 0,0 UV-I 0 W/m 0,9 C -1,2 C 14,5 km/h (3 Bft) 97,73 %
13.12.2016 06:32 1,6 C 95 % 1027,6 hPa 0,0 l/m 8,6 km/h (2 Bft) O-NO 59 0 min 0,000 mm 0,0 UV-I 0 W/m 0,9 C -0,5 C 12,9 km/h (3 Bft) 100,00 %
13.12.2016 06:34 1,5 C 95 % 1027,6 hPa 0,0 l/m 10,8 km/h (2 Bft) O-NO 65 0 min 0,000 mm 0,0 UV-I 0 W/m 0,8 C -2,4 C 14,5 km/h (3 Bft) 100,00 %
13.12.2016 06:36 1,4 C 95 % 1027,5 hPa 0,0 l/m 10,5 km/h (2 Bft) NO 51 0 min 0,000 mm 0,0 UV-I 0 W/m 0,7 C -2,3 C 14,5 km/h (3 Bft) 98,11 %
13.12.2016 06:38 1,4 C 95 % 1027,5 hPa 0,0 l/m 12,9 km/h (3 Bft) NO 49 0 min 0,000 mm 0,0 UV-I 0 W/m 0,7 C -4,0 C 17,7 km/h (3 Bft) 100,00 %
13.12.2016 06:40 1,3 C 95 % 1027,5 hPa 0,0 l/m 11,5 km/h (2 Bft) NO 55 0 min 0,000 mm 0,0 UV-I 0 W/m 0,6 C -3,2 C 16,1 km/h (3 Bft) 100,00 %
13.12.2016 06:42 1,3 C 95 % 1027,5 hPa 0,0 l/m 7,1 km/h (2 Bft) O-NO 64 0 min 0,000 mm 0,0 UV-I 0 W/m 0,6 C 0,6 C 12,9 km/h (3 Bft) 100,00 %
13.12.2016 06:44 1,2 C 95 % 1027,6 hPa 0,0 l/m 6,9 km/h (2 Bft) O 81 0 min 0,000 mm 0,0 UV-I 0 W/m 0,5 C 0,7 C 11,3 km/h (2 Bft) 100,00 %
13.12.2016 06:46 1,2 C 95 % 1027,6 hPa 0,0 l/m 7,7 km/h (2 Bft) O-SO 105 0 min 0,000 mm 0,0 UV-I 0 W/m 0,5 C -0,1 C 14,5 km/h (3 Bft) 100,00 %
13.12.2016 06:48 1,2 C 95 % 1027,7 hPa 0,0 l/m 5,0 km/h (1 Bft) O-SO 118 0 min 0,000 mm 0,0 UV-I 0 W/m 0,5 C 1,2 C 8,0 km/h (2 Bft) 97,73 %
13.12.2016 06:50 1,2 C 95 % 1027,6 hPa 0,0 l/m 7,1 km/h (2 Bft) O 88 0 min 0,000 mm 0,0 UV-I 0 W/m 0,5 C 0,5 C 12,9 km/h (3 Bft) 100,00 %
13.12.2016 06:52 1,2 C 95 % 1027,7 hPa 0,0 l/m 9,3 km/h (2 Bft) NO 49 0 min 0,000 mm 0,0 UV-I 0 W/m 0,5 C -1,5 C 14,5 km/h (3 Bft) 97,87 %
13.12.2016 06:54 1,2 C 95 % 1027,7 hPa 0,0 l/m 8,0 km/h (2 Bft) O-NO 76 0 min 0,000 mm 0,0 UV-I 0 W/m 0,5 C -0,4 C 12,9 km/h (3 Bft) 100,00 %
13.12.2016 06:56 1,1 C 95 % 1027,7 hPa 0,0 l/m 7,5 km/h (2 Bft) O-NO 63 0 min 0,000 mm 0,0 UV-I 0 W/m 0,4 C -0,0 C 11,3 km/h (2 Bft) 100,00 %
13.12.2016 06:58 1,1 C 95 % 1027,6 hPa 0,0 l/m 7,8 km/h (2 Bft) O-NO 61 0 min 0,000 mm 0,0 UV-I 0 W/m 0,4 C -0,3 C 14,5 km/h (3 Bft) 100,00 %
13.12.2016 07:00 1,1 C 95 % 1027,7 hPa 0,0 l/m 10,2 km/h (2 Bft) O-NO 62 0 min 0,000 mm 0,0 UV-I 0 W/m 0,4 C -2,4 C 12,9 km/h (3 Bft) 100,00 %
13.12.2016 07:02 1,1 C 95 % 1027,7 hPa 0,0 l/m 8,9 km/h (2 Bft) NO 55 0 min 0,000 mm 0,0 UV-I 0 W/m 0,4 C -1,3 C 14,5 km/h (3 Bft) 100,00 %
13.12.2016 07:04 1,1 C 95 % 1027,7 hPa 0,0 l/m 6,7 km/h (2 Bft) NO 42 0 min 0,000 mm 0,0 UV-I 0 W/m 0,4 C 0,8 C 9,7 km/h (2 Bft) 100,00 %
13.12.2016 07:06 1,1 C 95 % 1027,7 hPa 0,0 l/m 5,6 km/h (1 Bft) O-NO 61 0 min 0,000 mm 0,0 UV-I 0 W/m 0,4 C 1,1 C 8,0 km/h (2 Bft) 100,00 %
13.12.2016 07:08 1,1 C 95 % 1027,7 hPa 0,0 l/m 6,6 km/h (2 Bft) O-NO 59 0 min 0,000 mm 0,0 UV-I 0 W/m 0,4 C 0,9 C 9,7 km/h (2 Bft) 100,00 %
13.12.2016 07:10 1,1 C 95 % 1027,7 hPa 0,0 l/m 9,1 km/h (2 Bft) NO 53 0 min 0,000 mm 0,0 UV-I 0 W/m 0,4 C -1,5 C 12,9 km/h (3 Bft) 97,37 %
13.12.2016 07:12 1,1 C 95 % 1027,7 hPa 0,0 l/m 7,7 km/h (2 Bft) O-NO 59 0 min 0,000 mm 0,0 UV-I 0 W/m 0,4 C -0,2 C 11,3 km/h (2 Bft) 100,00 %
13.12.2016 07:14 1,1 C 95 % 1027,7 hPa 0,0 l/m 7,6 km/h (2 Bft) NO 44 0 min 0,000 mm 0,0 UV-I 0 W/m 0,4 C -0,1 C 11,3 km/h (2 Bft) 100,00 %
13.12.2016 07:16 1,1 C 95 % 1027,7 hPa 0,0 l/m 7,2 km/h (2 Bft) O-NO 60 0 min 0,000 mm 0,0 UV-I 0 W/m 0,4 C 0,3 C 9,7 km/h (2 Bft) 100,00 %
13.12.2016 07:18 1,1 C 95 % 1027,7 hPa 0,0 l/m 6,0 km/h (2 Bft) O-NO 63 0 min 0,000 mm 0,0 UV-I 0 W/m 0,4 C 1,1 C 9,7 km/h (2 Bft) 100,00 %
13.12.2016 07:20 1,1 C 95 % 1027,7 hPa 0,0 l/m 7,8 km/h (2 Bft) O-NO 65 0 min 0,000 mm 0,0 UV-I 0 W/m 0,4 C -0,3 C 11,3 km/h (2 Bft) 97,62 %
13.12.2016 07:22 1,1 C 95 % 1027,8 hPa 0,0 l/m 6,1 km/h (2 Bft) O 80 0 min 0,000 mm 0,0 UV-I 0 W/m 0,4 C 1,1 C 9,7 km/h (2 Bft) 100,00 %
13.12.2016 07:24 1,1 C 95 % 1027,9 hPa 0,0 l/m 7,0 km/h (2 Bft) O-NO 68 0 min 0,000 mm 0,0 UV-I 0 W/m 0,4 C 0,5 C 12,9 km/h (3 Bft) 98,11 %
13.12.2016 07:26 1,1 C 95 % 1027,9 hPa 0,0 l/m 7,9 km/h (2 Bft) O-NO 71 0 min 0,000 mm 0,0 UV-I 0 W/m 0,4 C -0,4 C 11,3 km/h (2 Bft) 92,68 %
13.12.2016 07:28 1,1 C 95 % 1027,9 hPa 0,0 l/m 7,3 km/h (2 Bft) O-NO 57 0 min 0,000 mm 0,0 UV-I 4 W/m 0,4 C 0,2 C 11,3 km/h (2 Bft) 98,00 %
13.12.2016 07:30 1,1 C 95 % 1027,8 hPa 0,0 l/m 11,2 km/h (2 Bft) O-NO 59 0 min 0,000 mm 0,0 UV-I 5 W/m 0,4 C -3,2 C 16,1 km/h (3 Bft) 97,56 %
13.12.2016 07:32 1,0 C 95 % 1027,8 hPa 0,0 l/m 11,4 km/h (2 Bft) NO 53 0 min 0,000 mm 0,0 UV-I 5 W/m 0,3 C -3,4 C 17,7 km/h (3 Bft) 97,73 %
13.12.2016 07:34 1,0 C 95 % 1027,9 hPa 0,0 l/m 9,9 km/h (2 Bft) O-NO 62 0 min 0,000 mm 0,0 UV-I 5 W/m 0,3 C -2,3 C 14,5 km/h (3 Bft) 94,34 %
13.12.2016 07:36 1,0 C 95 % 1027,9 hPa 0,0 l/m 7,7 km/h (2 Bft) NO 54 0 min 0,000 mm 0,0 UV-I 5 W/m 0,3 C -0,3 C 12,9 km/h (3 Bft) 97,87 %
13.12.2016 07:38 0,9 C 95 % 1027,9 hPa 0,0 l/m 7,8 km/h (2 Bft) O-NO 66 0 min 0,000 mm 0,0 UV-I 5 W/m 0,2 C -0,5 C 11,3 km/h (2 Bft) 98,11 %
13.12.2016 07:40 0,9 C 95 % 1027,9 hPa 0,0 l/m 8,3 km/h (2 Bft) O-NO 70 0 min 0,000 mm 0,0 UV-I 5 W/m 0,2 C -1,0 C 12,9 km/h (3 Bft) 97,87 %
13.12.2016 07:42 0,9 C 96 % 1027,9 hPa 0,0 l/m 6,7 km/h (2 Bft) NO 38 0 min 0,000 mm 0,0 UV-I 5 W/m 0,3 C 0,6 C 9,7 km/h (2 Bft) 97,14 %
13.12.2016 07:44 0,9 C 95 % 1027,9 hPa 0,0 l/m 5,6 km/h (1 Bft) O-NO 60 0 min 0,000 mm 0,0 UV-I 5 W/m 0,2 C 0,9 C 8,0 km/h (2 Bft) 98,11 %
13.12.2016 07:46 0,9 C 95 % 1027,9 hPa 0,0 l/m 6,6 km/h (2 Bft) O-NO 59 0 min 0,000 mm 0,0 UV-I 5 W/m 0,2 C 0,7 C 11,3 km/h (2 Bft) 96,00 %
13.12.2016 07:48 0,9 C 95 % 1028,0 hPa 0,0 l/m 8,6 km/h (2 Bft) NO 55 0 min 0,000 mm 0,0 UV-I 5 W/m 0,2 C -1,3 C 14,5 km/h (3 Bft) 97,73 %
13.12.2016 07:50 0,8 C 95 % 1027,9 hPa 0,0 l/m 9,3 km/h (2 Bft) O-NO 57 0 min 0,000 mm 0,0 UV-I 5 W/m 0,1 C -2,0 C 14,5 km/h (3 Bft) 96,00 %
13.12.2016 07:52 0,8 C 95 % 1027,9 hPa 0,0 l/m 9,2 km/h (2 Bft) O-NO 69 0 min 0,000 mm 0,0 UV-I 5 W/m 0,1 C -1,9 C 14,5 km/h (3 Bft) 97,14 %
13.12.2016 07:54 0,8 C 95 % 1027,9 hPa 0,0 l/m 7,7 km/h (2 Bft) O-NO 65 0 min 0,000 mm 0,0 UV-I 7 W/m 0,1 C -0,5 C 9,7 km/h (2 Bft) 98,11 %
13.12.2016 07:56 0,8 C 95 % 1027,9 hPa 0,0 l/m 7,8 km/h (2 Bft) NO 52 0 min 0,000 mm 0,0 UV-I 7 W/m 0,1 C -0,6 C 11,3 km/h (2 Bft) 96,00 %
13.12.2016 07:58 0,8 C 95 % 1027,9 hPa 0,0 l/m 10,1 km/h (2 Bft) O-NO 58 0 min 0,000 mm 0,0 UV-I 7 W/m 0,1 C -2,6 C 14,5 km/h (3 Bft) 98,00 %
13.12.2016 08:00 0,8 C 95 % 1027,9 hPa 0,0 l/m 8,5 km/h (2 Bft) O 85 0 min 0,000 mm 0,0 UV-I 9 W/m 0,1 C -1,3 C 11,3 km/h (2 Bft) 100,00 %
13.12.2016 08:02 0,8 C 95 % 1027,9 hPa 0,0 l/m 8,2 km/h (2 Bft) O-NO 77 0 min 0,000 mm 0,0 UV-I 9 W/m 0,1 C -1,0 C 12,9 km/h (3 Bft) 100,00 %
13.12.2016 08:04 0,8 C 95 % 1027,9 hPa 0,0 l/m 5,3 km/h (1 Bft) O-NO 63 0 min 0,000 mm 0,0 UV-I 11 W/m 0,1 C 0,8 C 8,0 km/h (2 Bft) 100,00 %
13.12.2016 08:06 0,8 C 95 % 1028,0 hPa 0,0 l/m 6,6 km/h (2 Bft) O-NO 70 0 min 0,000 mm 0,0 UV-I 11 W/m 0,1 C 0,6 C 9,7 km/h (2 Bft) 97,87 %
13.12.2016 08:08 0,8 C 95 % 1028,0 hPa 0,0 l/m 7,4 km/h (2 Bft) O-NO 65 0 min 0,000 mm 0,0 UV-I 12 W/m 0,1 C -0,2 C 11,3 km/h (2 Bft) 100,00 %
13.12.2016 08:10 0,8 C 95 % 1028,0 hPa 0,0 l/m 9,2 km/h (2 Bft) O-NO 69 0 min 0,000 mm 0,0 UV-I 13 W/m 0,1 C -1,9 C 14,5 km/h (3 Bft) 100,00 %
13.12.2016 08:12 0,7 C 95 % 1028,0 hPa 0,0 l/m 9,1 km/h (2 Bft) O-NO 69 0 min 0,000 mm 0,0 UV-I 15 W/m -0,0 C -1,9 C 14,5 km/h (3 Bft) 100,00 %
13.12.2016 08:14 0,7 C 95 % 1028,0 hPa 0,0 l/m 8,7 km/h (2 Bft) O-NO 74 0 min 0,000 mm 0,0 UV-I 18 W/m -0,0 C -1,6 C 12,9 km/h (3 Bft) 100,00 %
13.12.2016 08:16 0,7 C 95 % 1028,0 hPa 0,0 l/m 11,2 km/h (2 Bft) O-NO 78 0 min 0,000 mm 0,0 UV-I 19 W/m -0,0 C -3,6 C 14,5 km/h (3 Bft) 100,00 %
13.12.2016 08:18 0,7 C 95 % 1027,9 hPa 0,0 l/m 11,9 km/h (2 Bft) O-NO 62 0 min 0,000 mm 0,0 UV-I 19 W/m -0,0 C -4,1 C 14,5 km/h (3 Bft) 98,11 %
13.12.2016 08:20 0,7 C 95 % 1027,9 hPa 0,0 l/m 9,0 km/h (2 Bft) O 90 0 min 0,000 mm 0,0 UV-I 19 W/m -0,0 C -1,8 C 12,9 km/h (3 Bft) 100,00 %
13.12.2016 08:22 0,7 C 95 % 1027,9 hPa 0,0 l/m 10,0 km/h (2 Bft) O 90 0 min 0,000 mm 0,0 UV-I 18 W/m -0,0 C -2,7 C 12,9 km/h (3 Bft) 100,00 %
13.12.2016 08:24 0,7 C 95 % 1027,9 hPa 0,0 l/m 9,3 km/h (2 Bft) O 85 0 min 0,000 mm 0,0 UV-I 18 W/m -0,0 C -2,1 C 12,9 km/h (3 Bft) 100,00 %
13.12.2016 08:26 0,7 C 95 % 1027,9 hPa 0,0 l/m 7,4 km/h (2 Bft) NO 54 0 min 0,000 mm 0,0 UV-I 16 W/m -0,0 C -0,3 C 11,3 km/h (2 Bft) 98,00 %
13.12.2016 08:28 0,7 C 95 % 1027,9 hPa 0,0 l/m 6,7 km/h (2 Bft) O-NO 62 0 min 0,000 mm 0,0 UV-I 17 W/m -0,0 C 0,4 C 11,3 km/h (2 Bft) 100,00 %
13.12.2016 08:30 0,7 C 95 % 1027,9 hPa 0,0 l/m 6,5 km/h (2 Bft) O-NO 71 0 min 0,000 mm 0,0 UV-I 16 W/m -0,0 C 0,6 C 11,3 km/h (2 Bft) 100,00 %
13.12.2016 08:32 0,7 C 95 % 1027,9 hPa 0,0 l/m 6,4 km/h (2 Bft) NO 44 0 min 0,000 mm 0,0 UV-I 16 W/m -0,0 C 0,7 C 9,7 km/h (2 Bft) 97,87 %
13.12.2016 08:34 0,6 C 95 % 1028,0 hPa 0,0 l/m 6,4 km/h (2 Bft) O-NO 62 0 min 0,000 mm 0,0 UV-I 18 W/m -0,1 C 0,6 C 9,7 km/h (2 Bft) 100,00 %
13.12.2016 08:36 0,6 C 95 % 1028,0 hPa 0,0 l/m 6,2 km/h (2 Bft) O-NO 67 0 min 0,000 mm 0,0 UV-I 18 W/m -0,1 C 0,6 C 11,3 km/h (2 Bft) 100,00 %
13.12.2016 08:38 0,6 C 95 % 1028,0 hPa 0,0 l/m 4,4 km/h (1 Bft) O-NO 69 0 min 0,000 mm 0,0 UV-I 20 W/m -0,1 C 0,6 C 8,0 km/h (2 Bft) 100,00 %
13.12.2016 08:40 0,6 C 95 % 1028,0 hPa 0,0 l/m 5,7 km/h (1 Bft) O-NO 60 0 min 0,000 mm 0,0 UV-I 22 W/m -0,1 C 0,6 C 9,7 km/h (2 Bft) 100,00 %
13.12.2016 08:42 0,6 C 95 % 1028,0 hPa 0,0 l/m 6,0 km/h (2 Bft) O-NO 58 0 min 0,000 mm 0,0 UV-I 26 W/m -0,1 C 0,6 C 9,7 km/h (2 Bft) 100,00 %
13.12.2016 08:44 0,6 C 95 % 1027,9 hPa 0,0 l/m 6,8 km/h (2 Bft) O-NO 60 0 min 0,000 mm 0,0 UV-I 28 W/m -0,1 C 0,2 C 9,7 km/h (2 Bft) 100,00 %
13.12.2016 08:46 0,6 C 95 % 1028,0 hPa 0,0 l/m 6,7 km/h (2 Bft) O-NO 59 0 min 0,000 mm 0,0 UV-I 27 W/m -0,1 C 0,3 C 9,7 km/h (2 Bft) 100,00 %
13.12.2016 08:48 0,6 C 95 % 1028,0 hPa 0,0 l/m 6,6 km/h (2 Bft) O-NO 64 0 min 0,000 mm 0,0 UV-I 28 W/m -0,1 C 0,4 C 9,7 km/h (2 Bft) 100,00 %
13.12.2016 08:50 0,5 C 95 % 1028,0 hPa 0,0 l/m 6,5 km/h (2 Bft) NO 55 0 min 0,000 mm 0,0 UV-I 30 W/m -0,2 C 0,4 C 11,3 km/h (2 Bft) 100,00 %
13.12.2016 08:52 0,5 C 95 % 1028,0 hPa 0,0 l/m 8,6 km/h (2 Bft) O-NO 77 0 min 0,000 mm 0,0 UV-I 31 W/m -0,2 C -1,7 C 12,9 km/h (3 Bft) 100,00 %
13.12.2016 08:54 0,5 C 95 % 1028,1 hPa 0,0 l/m 6,7 km/h (2 Bft) O-NO 61 0 min 0,000 mm 0,0 UV-I 31 W/m -0,2 C 0,2 C 9,7 km/h (2 Bft) 100,00 %
13.12.2016 08:56 0,5 C 95 % 1028,1 hPa 0,0 l/m 5,2 km/h (1 Bft) NO 34 0 min 0,000 mm 0,0 UV-I 33 W/m -0,2 C 0,5 C 8,0 km/h (2 Bft) 100,00 %
13.12.2016 08:58 0,5 C 95 % 1028,1 hPa 0,0 l/m 6,4 km/h (2 Bft) O-NO 57 0 min 0,000 mm 0,0 UV-I 35 W/m -0,2 C 0,5 C 9,7 km/h (2 Bft) 98,11 %
13.12.2016 09:00 0,5 C 95 % 1028,1 hPa 0,0 l/m 6,6 km/h (2 Bft) O-NO 58 0 min 0,000 mm 0,0 UV-I 34 W/m -0,2 C 0,3 C 8,0 km/h (2 Bft) 97,37 %
13.12.2016 09:02 0,5 C 95 % 1028,1 hPa 0,0 l/m 6,8 km/h (2 Bft) O-NO 61 0 min 0,000 mm 0,0 UV-I 31 W/m -0,2 C 0,1 C 9,7 km/h (2 Bft) 100,00 %
13.12.2016 09:04 0,5 C 95 % 1028,2 hPa 0,0 l/m 6,6 km/h (2 Bft) NO 51 0 min 0,000 mm 0,0 UV-I 30 W/m -0,2 C 0,3 C 9,7 km/h (2 Bft) 100,00 %
13.12.2016 09:06 0,5 C 95 % 1028,2 hPa 0,0 l/m 8,0 km/h (2 Bft) O-NO 58 0 min 0,000 mm 0,0 UV-I 32 W/m -0,2 C -1,1 C 11,3 km/h (2 Bft) 97,87 %
13.12.2016 09:08 0,5 C 95 % 1028,2 hPa 0,0 l/m 7,4 km/h (2 Bft) O-NO 61 0 min 0,000 mm 0,0 UV-I 36 W/m -0,2 C -0,5 C 12,9 km/h (3 Bft) 100,00 %
13.12.2016 09:10 0,5 C 94 % 1028,2 hPa 0,0 l/m 7,0 km/h (2 Bft) O-NO 76 0 min 0,000 mm 0,0 UV-I 43 W/m -0,4 C -0,1 C 8,0 km/h (2 Bft) 100,00 %
13.12.2016 09:12 0,5 C 94 % 1028,2 hPa 0,0 l/m 5,3 km/h (1 Bft) O-NO 57 0 min 0,000 mm 0,0 UV-I 47 W/m -0,4 C 0,5 C 8,0 km/h (2 Bft) 98,00 %
13.12.2016 09:14 0,5 C 94 % 1028,2 hPa 0,0 l/m 6,4 km/h (2 Bft) NO 52 0 min 0,000 mm 0,0 UV-I 47 W/m -0,4 C 0,5 C 9,7 km/h (2 Bft) 100,00 %
13.12.2016 09:16 0,5 C 94 % 1028,2 hPa 0,0 l/m 7,6 km/h (2 Bft) NO 54 0 min 0,000 mm 0,0 UV-I 42 W/m -0,4 C -0,7 C 9,7 km/h (2 Bft) 100,00 %
13.12.2016 09:18 0,6 C 95 % 1028,3 hPa 0,0 l/m 8,2 km/h (2 Bft) O-NO 59 0 min 0,000 mm 0,0 UV-I 43 W/m -0,1 C -1,2 C 11,3 km/h (2 Bft) 100,00 %
13.12.2016 09:20 0,6 C 94 % 1028,3 hPa 0,0 l/m 8,4 km/h (2 Bft) O-NO 57 0 min 0,000 mm 0,0 UV-I 45 W/m -0,3 C -1,4 C 11,3 km/h (2 Bft) 100,00 %
13.12.2016 09:22 0,6 C 94 % 1028,3 hPa 0,0 l/m 7,1 km/h (2 Bft) O-NO 72 0 min 0,000 mm 0,0 UV-I 46 W/m -0,3 C -0,1 C 9,7 km/h (2 Bft) 97,56 %
13.12.2016 09:24 0,6 C 94 % 1028,3 hPa 0,0 l/m 6,8 km/h (2 Bft) O-NO 71 0 min 0,000 mm 0,0 UV-I 46 W/m -0,3 C 0,2 C 9,7 km/h (2 Bft) 100,00 %
13.12.2016 09:26 0,6 C 94 % 1028,3 hPa 0,0 l/m 6,6 km/h (2 Bft) O-NO 64 0 min 0,000 mm 0,0 UV-I 46 W/m -0,3 C 0,4 C 8,0 km/h (2 Bft) 100,00 %
13.12.2016 09:28 0,6 C 94 % 1028,3 hPa 0,0 l/m 6,0 km/h (2 Bft) O-NO 61 0 min 0,000 mm 0,0 UV-I 47 W/m -0,3 C 0,6 C 9,7 km/h (2 Bft) 98,00 %
13.12.2016 09:30 0,6 C 94 % 1028,2 hPa 0,0 l/m 7,1 km/h (2 Bft) O-NO 65 0 min 0,000 mm 0,0 UV-I 45 W/m -0,3 C -0,1 C 12,9 km/h (3 Bft) 97,56 %
13.12.2016 09:32 0,6 C 94 % 1028,2 hPa 0,0 l/m 7,0 km/h (2 Bft) O-NO 57 0 min 0,000 mm 0,0 UV-I 45 W/m -0,3 C -0,0 C 9,7 km/h (2 Bft) 96,00 %
13.12.2016 09:34 0,6 C 94 % 1028,2 hPa 0,0 l/m 7,1 km/h (2 Bft) NO 53 0 min 0,000 mm 0,0 UV-I 52 W/m -0,3 C -0,1 C 11,3 km/h (2 Bft) 98,11 %
13.12.2016 09:36 0,6 C 94 % 1028,3 hPa 0,0 l/m 8,9 km/h (2 Bft) O-NO 61 0 min 0,000 mm 0,0 UV-I 59 W/m -0,3 C -1,8 C 12,9 km/h (3 Bft) 97,14 %
13.12.2016 09:38 0,6 C 94 % 1028,2 hPa 0,0 l/m 8,9 km/h (2 Bft) O-NO 58 0 min 0,000 mm 0,0 UV-I 62 W/m -0,3 C -1,8 C 12,9 km/h (3 Bft) 96,23 %
13.12.2016 09:40 0,6 C 94 % 1028,3 hPa 0,0 l/m 8,2 km/h (2 Bft) NO 50 0 min 0,000 mm 0,0 UV-I 57 W/m -0,3 C -1,2 C 9,7 km/h (2 Bft) 98,11 %
13.12.2016 09:42 0,6 C 94 % 1028,3 hPa 0,0 l/m 7,2 km/h (2 Bft) O-NO 57 0 min 0,000 mm 0,0 UV-I 59 W/m -0,3 C -0,2 C 11,3 km/h (2 Bft) 97,73 %
13.12.2016 09:44 0,6 C 94 % 1028,3 hPa 0,0 l/m 7,5 km/h (2 Bft) O-NO 63 0 min 0,000 mm 0,0 UV-I 62 W/m -0,3 C -0,5 C 9,7 km/h (2 Bft) 96,55 %
13.12.2016 09:46 0,6 C 94 % 1028,3 hPa 0,0 l/m 9,0 km/h (2 Bft) NO 51 0 min 0,000 mm 0,0 UV-I 70 W/m -0,3 C -1,9 C 12,9 km/h (3 Bft) 97,06 %
13.12.2016 09:48 0,6 C 93 % 1028,3 hPa 0,0 l/m 7,6 km/h (2 Bft) NO 46 0 min 0,000 mm 0,0 UV-I 70 W/m -0,4 C -0,6 C 11,3 km/h (2 Bft) 97,87 %
13.12.2016 09:50 0,6 C 94 % 1028,3 hPa 0,0 l/m 8,0 km/h (2 Bft) N-NO 30 0 min 0,000 mm 0,0 UV-I 68 W/m -0,3 C -1,0 C 12,9 km/h (3 Bft) 97,56 %
13.12.2016 09:52 0,6 C 94 % 1028,3 hPa 0,0 l/m 8,9 km/h (2 Bft) O-NO 57 0 min 0,000 mm 0,0 UV-I 68 W/m -0,3 C -1,8 C 12,9 km/h (3 Bft) 98,00 %
13.12.2016 09:54 0,6 C 93 % 1028,3 hPa 0,0 l/m 8,1 km/h (2 Bft) NO 51 0 min 0,000 mm 0,0 UV-I 68 W/m -0,4 C -1,1 C 12,9 km/h (3 Bft) 95,12 %
13.12.2016 09:56 0,6 C 93 % 1028,3 hPa 0,0 l/m 9,6 km/h (2 Bft) NO 49 0 min 0,000 mm 0,0 UV-I 72 W/m -0,4 C -2,5 C 14,5 km/h (3 Bft) 97,62 %
13.12.2016 09:58 0,6 C 93 % 1028,3 hPa 0,0 l/m 9,6 km/h (2 Bft) NO 34 0 min 0,000 mm 0,0 UV-I 72 W/m -0,4 C -2,5 C 11,3 km/h (2 Bft) 98,28 %
13.12.2016 10:00 0,6 C 93 % 1028,3 hPa 0,0 l/m 8,3 km/h (2 Bft) NO 55 0 min 0,025 mm 0,0 UV-I 71 W/m -0,4 C -1,3 C 9,7 km/h (2 Bft) 94,87 %
13.12.2016 10:03 0,6 C 93 % 1028,3 hPa 0,0 l/m 8,0 km/h (2 Bft) NO 55 0 min 0,000 mm 0,0 UV-I 67 W/m -0,4 C -1,0 C 14,5 km/h (3 Bft) 100,00 %
13.12.2016 10:04 0,6 C 93 % 1028,3 hPa 0,0 l/m 6,8 km/h (2 Bft) O-NO 67 0 min 0,000 mm 0,0 UV-I 67 W/m -0,4 C 0,2 C 8,0 km/h (2 Bft) 95,83 %
13.12.2016 10:06 0,6 C 93 % 1028,4 hPa 0,0 l/m 9,0 km/h (2 Bft) NO 39 0 min 0,000 mm 0,0 UV-I 65 W/m -0,4 C -1,9 C 14,5 km/h (3 Bft) 100,00 %
13.12.2016 10:08 0,6 C 93 % 1028,3 hPa 0,0 l/m 8,7 km/h (2 Bft) O-NO 61 0 min 0,000 mm 0,0 UV-I 66 W/m -0,4 C -1,7 C 14,5 km/h (3 Bft) 97,56 %
13.12.2016 10:10 0,6 C 93 % 1028,4 hPa 0,0 l/m 9,4 km/h (2 Bft) O-NO 65 0 min 0,000 mm 0,0 UV-I 69 W/m -0,4 C -2,3 C 14,5 km/h (3 Bft) 97,56 %
13.12.2016 10:12 0,6 C 92 % 1028,4 hPa 0,0 l/m 9,4 km/h (2 Bft) O-NO 61 0 min 0,000 mm 0,0 UV-I 68 W/m -0,5 C -2,3 C 12,9 km/h (3 Bft) 100,00 %
13.12.2016 10:14 0,6 C 92 % 1028,4 hPa 0,0 l/m 8,3 km/h (2 Bft) O-NO 57 0 min 0,000 mm 0,0 UV-I 69 W/m -0,5 C -1,3 C 12,9 km/h (3 Bft) 98,21 %
13.12.2016 10:16 0,6 C 92 % 1028,3 hPa 0,0 l/m 10,6 km/h (2 Bft) O-NO 63 0 min 0,000 mm 0,0 UV-I 67 W/m -0,5 C -3,3 C 14,5 km/h (3 Bft) 97,37 %
13.12.2016 10:18 0,6 C 92 % 1028,4 hPa 0,0 l/m 8,0 km/h (2 Bft) NO 48 0 min 0,000 mm 0,0 UV-I 69 W/m -0,5 C -1,0 C 11,3 km/h (2 Bft) 100,00 %
13.12.2016 10:20 0,6 C 92 % 1028,4 hPa 0,0 l/m 8,3 km/h (2 Bft) NO 40 0 min 0,000 mm 0,0 UV-I 69 W/m -0,5 C -1,3 C 16,1 km/h (3 Bft) 100,00 %
13.12.2016 10:22 0,6 C 92 % 1028,5 hPa 0,0 l/m 9,3 km/h (2 Bft) NO 38 0 min 0,000 mm 0,0 UV-I 68 W/m -0,5 C -2,2 C 14,5 km/h (3 Bft) 97,37 %
13.12.2016 10:24 0,6 C 92 % 1028,5 hPa 0,0 l/m 10,6 km/h (2 Bft) NO 38 0 min 0,000 mm 0,0 UV-I 66 W/m -0,5 C -3,3 C 14,5 km/h (3 Bft) 100,00 %
13.12.2016 10:26 0,6 C 92 % 1028,6 hPa 0,0 l/m 8,4 km/h (2 Bft) O-NO 60 0 min 0,000 mm 0,0 UV-I 61 W/m -0,5 C -1,4 C 14,5 km/h (3 Bft) 100,00 %
13.12.2016 10:28 0,6 C 92 % 1028,6 hPa 0,0 l/m 7,2 km/h (2 Bft) O-NO 71 0 min 0,000 mm 0,0 UV-I 64 W/m -0,5 C -0,2 C 9,7 km/h (2 Bft) 100,00 %
13.12.2016 10:30 0,6 C 92 % 1028,6 hPa 0,0 l/m 7,2 km/h (2 Bft) N-NO 23 0 min 0,000 mm 0,0 UV-I 64 W/m -0,5 C -0,2 C 9,7 km/h (2 Bft) 100,00 %
13.12.2016 10:32 0,6 C 92 % 1028,6 hPa 0,0 l/m 8,6 km/h (2 Bft) NO 41 0 min 0,000 mm 0,0 UV-I 67 W/m -0,5 C -1,6 C 12,9 km/h (3 Bft) 100,00 %
13.12.2016 10:34 0,6 C 91 % 1028,5 hPa 0,0 l/m 10,2 km/h (2 Bft) O-NO 58 0 min 0,000 mm 0,0 UV-I 69 W/m -0,7 C -2,9 C 14,5 km/h (3 Bft) 97,44 %
13.12.2016 10:36 0,6 C 91 % 1028,5 hPa 0,0 l/m 10,0 km/h (2 Bft) O-NO 63 0 min 0,000 mm 0,0 UV-I 70 W/m -0,7 C -2,8 C 16,1 km/h (3 Bft) 98,18 %
13.12.2016 10:38 0,6 C 91 % 1028,5 hPa 0,0 l/m 10,0 km/h (2 Bft) O-NO 60 0 min 0,000 mm 0,0 UV-I 69 W/m -0,7 C -2,8 C 14,5 km/h (3 Bft) 100,00 %
13.12.2016 10:40 0,6 C 91 % 1028,5 hPa 0,0 l/m 8,3 km/h (2 Bft) O-NO 74 0 min 0,000 mm 0,0 UV-I 70 W/m -0,7 C -1,3 C 12,9 km/h (3 Bft) 100,00 %
13.12.2016 10:42 0,6 C 91 % 1028,5 hPa 0,0 l/m 9,1 km/h (2 Bft) O-NO 57 0 min 0,000 mm 0,0 UV-I 69 W/m -0,7 C -2,0 C 12,9 km/h (3 Bft) 96,15 %
13.12.2016 10:44 0,6 C 91 % 1028,6 hPa 0,0 l/m 8,5 km/h (2 Bft) O-NO 57 0 min 0,000 mm 0,0 UV-I 70 W/m -0,7 C -1,5 C 12,9 km/h (3 Bft) 100,00 %
13.12.2016 10:46 0,6 C 91 % 1028,5 hPa 0,0 l/m 7,9 km/h (2 Bft) O-NO 67 0 min 0,000 mm 0,0 UV-I 71 W/m -0,7 C -0,9 C 12,9 km/h (3 Bft) 100,00 %
13.12.2016 10:48 0,6 C 92 % 1028,5 hPa 0,0 l/m 8,7 km/h (2 Bft) O-NO 58 0 min 0,000 mm 0,0 UV-I 70 W/m -0,5 C -1,7 C 12,9 km/h (3 Bft) 100,00 %
13.12.2016 10:50 0,7 C 92 % 1028,5 hPa 0,0 l/m 8,0 km/h (2 Bft) O-NO 67 0 min 0,000 mm 0,0 UV-I 72 W/m -0,4 C -0,9 C 12,9 km/h (3 Bft) 100,00 %
13.12.2016 10:52 0,7 C 92 % 1028,5 hPa 0,0 l/m 8,4 km/h (2 Bft) NO 49 0 min 0,000 mm 0,0 UV-I 74 W/m -0,4 C -1,3 C 12,9 km/h (3 Bft) 100,00 %
13.12.2016 10:54 0,7 C 92 % 1028,5 hPa 0,0 l/m 8,6 km/h (2 Bft) O-NO 74 0 min 0,000 mm 0,0 UV-I 74 W/m -0,4 C -1,5 C 12,9 km/h (3 Bft) 100,00 %
13.12.2016 10:56 0,7 C 92 % 1028,5 hPa 0,0 l/m 7,9 km/h (2 Bft) O-NO 57 0 min 0,000 mm 0,0 UV-I 74 W/m -0,4 C -0,8 C 12,9 km/h (3 Bft) 100,00 %
13.12.2016 10:58 0,7 C 92 % 1028,5 hPa 0,0 l/m 6,6 km/h (2 Bft) NO 43 0 min 0,000 mm 0,0 UV-I 74 W/m -0,4 C 0,5 C 9,7 km/h (2 Bft) 100,00 %
13.12.2016 11:00 0,7 C 91 % 1028,5 hPa 0,0 l/m 7,9 km/h (2 Bft) NO 53 0 min 0,026 mm 0,0 UV-I 75 W/m -0,6 C -0,8 C 9,7 km/h (2 Bft) 100,00 %
13.12.2016 11:02 0,7 C 91 % 1028,5 hPa 0,0 l/m 5,6 km/h (1 Bft) O-NO 59 0 min 0,000 mm 0,0 UV-I 72 W/m -0,6 C 0,7 C 8,0 km/h (2 Bft) 100,00 %
13.12.2016 11:04 0,7 C 91 % 1028,5 hPa 0,0 l/m 7,1 km/h (2 Bft) O-NO 59 0 min 0,000 mm 0,0 UV-I 72 W/m -0,6 C -0,0 C 9,7 km/h (2 Bft) 100,00 %
13.12.2016 11:06 0,7 C 91 % 1028,5 hPa 0,0 l/m 8,3 km/h (2 Bft) NO 55 0 min 0,000 mm 0,0 UV-I 73 W/m -0,6 C -1,2 C 12,9 km/h (3 Bft) 100,00 %
13.12.2016 11:08 0,7 C 91 % 1028,4 hPa 0,0 l/m 6,9 km/h (2 Bft) NO 52 0 min 0,000 mm 0,0 UV-I 76 W/m -0,6 C 0,2 C 9,7 km/h (2 Bft) 100,00 %
13.12.2016 11:10 1,1 C 93 % 1028,4 hPa 0,0 l/m 6,8 km/h (2 Bft) O-NO 72 0 min 0,000 mm 0,0 UV-I 77 W/m 0,1 C 0,7 C 9,7 km/h (2 Bft) 100,00 %
13.12.2016 11:12 1,5 C 92 % 1028,3 hPa 0,0 l/m 8,9 km/h (2 Bft) O-NO 61 0 min 0,000 mm 0,0 UV-I 80 W/m 0,3 C -0,9 C 12,9 km/h (3 Bft) 100,00 %
13.12.2016 11:14 1,5 C 91 % 1028,3 hPa 0,0 l/m 9,3 km/h (2 Bft) O 80 0 min 0,000 mm 0,0 UV-I 87 W/m 0,2 C -1,2 C 14,5 km/h (3 Bft) 100,00 %
13.12.2016 11:16 1,3 C 89 % 1028,3 hPa 0,0 l/m 7,1 km/h (2 Bft) NO 53 0 min 0,000 mm 0,0 UV-I 87 W/m -0,3 C 0,6 C 9,7 km/h (2 Bft) 97,87 %
13.12.2016 11:18 1,1 C 89 % 1028,3 hPa 0,0 l/m 5,6 km/h (1 Bft) NO 53 0 min 0,000 mm 0,0 UV-I 87 W/m -0,5 C 1,1 C 6,4 km/h (2 Bft) 100,00 %
13.12.2016 11:20 1,0 C 90 % 1028,3 hPa 0,0 l/m 5,3 km/h (1 Bft) O 81 0 min 0,000 mm 0,0 UV-I 91 W/m -0,5 C 1,0 C 8,0 km/h (2 Bft) 100,00 %
13.12.2016 11:22 1,0 C 90 % 1028,3 hPa 0,0 l/m 6,1 km/h (2 Bft) O-NO 57 0 min 0,000 mm 0,0 UV-I 92 W/m -0,5 C 1,0 C 8,0 km/h (2 Bft) 100,00 %
13.12.2016 11:24 1,0 C 91 % 1028,3 hPa 0,0 l/m 6,0 km/h (2 Bft) O-NO 61 0 min 0,000 mm 0,0 UV-I 92 W/m -0,3 C 1,0 C 9,7 km/h (2 Bft) 98,11 %
13.12.2016 11:26 1,0 C 91 % 1028,3 hPa 0,0 l/m 7,5 km/h (2 Bft) O-NO 78 0 min 0,000 mm 0,0 UV-I 91 W/m -0,3 C -0,1 C 9,7 km/h (2 Bft) 97,37 %
13.12.2016 11:28 0,9 C 91 % 1028,3 hPa 0,0 l/m 8,6 km/h (2 Bft) O-NO 71 0 min 0,000 mm 0,0 UV-I 90 W/m -0,4 C -1,3 C 11,3 km/h (2 Bft) 100,00 %
13.12.2016 11:30 0,9 C 91 % 1028,2 hPa 0,0 l/m 6,4 km/h (2 Bft) O 82 0 min 0,000 mm 0,0 UV-I 90 W/m -0,4 C 0,9 C 11,3 km/h (2 Bft) 100,00 %
13.12.2016 11:32 0,9 C 91 % 1028,2 hPa 0,0 l/m 5,1 km/h (1 Bft) O-NO 74 0 min 0,000 mm 0,0 UV-I 91 W/m -0,4 C 0,9 C 6,4 km/h (2 Bft) 95,74 %
13.12.2016 11:34 1,0 C 91 % 1028,2 hPa 0,0 l/m 4,9 km/h (1 Bft) O 95 0 min 0,000 mm 0,0 UV-I 90 W/m -0,3 C 1,0 C 6,4 km/h (2 Bft) 96,00 %
13.12.2016 11:36 1,0 C 91 % 1028,3 hPa 0,0 l/m 5,6 km/h (1 Bft) NO 54 0 min 0,000 mm 0,0 UV-I 88 W/m -0,3 C 1,0 C 8,0 km/h (2 Bft) 97,87 %
13.12.2016 11:38 1,1 C 91 % 1028,2 hPa 0,0 l/m 4,9 km/h (1 Bft) O-NO 58 0 min 0,000 mm 0,0 UV-I 87 W/m -0,2 C 1,1 C 6,4 km/h (2 Bft) 95,12 %
13.12.2016 11:40 1,1 C 91 % 1028,2 hPa 0,0 l/m 4,6 km/h (1 Bft) O-NO 71 0 min 0,000 mm 0,0 UV-I 82 W/m -0,2 C 1,1 C 6,4 km/h (2 Bft) 92,00 %
13.12.2016 11:42 1,1 C 91 % 1028,2 hPa 0,0 l/m 5,5 km/h (1 Bft) NO 40 0 min 0,000 mm 0,0 UV-I 83 W/m -0,2 C 1,1 C 8,0 km/h (2 Bft) 98,11 %
13.12.2016 11:44 1,2 C 91 % 1028,2 hPa 0,0 l/m 5,6 km/h (1 Bft) O-NO 62 0 min 0,000 mm 0,0 UV-I 86 W/m -0,1 C 1,2 C 8,0 km/h (2 Bft) 94,74 %
13.12.2016 11:46 1,2 C 91 % 1028,2 hPa 0,0 l/m 5,5 km/h (1 Bft) O-NO 68 0 min 0,000 mm 0,0 UV-I 90 W/m -0,1 C 1,2 C 8,0 km/h (2 Bft) 98,21 %
13.12.2016 11:48 1,2 C 91 % 1028,2 hPa 0,0 l/m 3,9 km/h (1 Bft) O-NO 69 0 min 0,000 mm 0,0 UV-I 92 W/m -0,1 C 1,2 C 6,4 km/h (2 Bft) 97,56 %
13.12.2016 11:50 1,2 C 91 % 1028,1 hPa 0,0 l/m 5,9 km/h (2 Bft) O-NO 65 0 min 0,000 mm 0,0 UV-I 93 W/m -0,1 C 1,2 C 8,0 km/h (2 Bft) 97,87 %
13.12.2016 11:52 1,2 C 91 % 1028,2 hPa 0,0 l/m 5,0 km/h (1 Bft) O-NO 65 0 min 0,000 mm 0,0 UV-I 91 W/m -0,1 C 1,2 C 6,4 km/h (2 Bft) 95,74 %
13.12.2016 11:54 1,3 C 91 % 1028,1 hPa 0,0 l/m 3,3 km/h (1 Bft) NO 56 0 min 0,000 mm 0,0 UV-I 90 W/m -0,0 C 1,3 C 6,4 km/h (2 Bft) 98,00 %
13.12.2016 11:56 1,3 C 91 % 1028,1 hPa 0,0 l/m 4,0 km/h (1 Bft) NO 53 0 min 0,000 mm 0,0 UV-I 90 W/m -0,0 C 1,3 C 6,4 km/h (2 Bft) 97,62 %
13.12.2016 11:58 1,3 C 91 % 1028,1 hPa 0,0 l/m 5,1 km/h (1 Bft) NO 54 0 min 0,000 mm 0,0 UV-I 91 W/m -0,0 C 1,3 C 6,4 km/h (2 Bft) 98,08 %
13.12.2016 12:00 1,3 C 91 % 1028,1 hPa 0,0 l/m 4,5 km/h (1 Bft) O-NO 67 0 min 0,025 mm 0,0 UV-I 93 W/m -0,0 C 1,3 C 8,0 km/h (2 Bft) 94,87 %
13.12.2016 12:02 1,3 C 91 % 1028,1 hPa 0,0 l/m 4,8 km/h (1 Bft) O-NO 67 0 min 0,000 mm 0,0 UV-I 91 W/m -0,0 C 1,3 C 8,0 km/h (2 Bft) 98,00 %
13.12.2016 12:04 1,3 C 90 % 1028,0 hPa 0,0 l/m 6,0 km/h (2 Bft) O-NO 75 0 min 0,000 mm 0,0 UV-I 91 W/m -0,2 C 1,3 C 8,0 km/h (2 Bft) 97,87 %
13.12.2016 12:06 1,3 C 91 % 1028,0 hPa 0,0 l/m 6,6 km/h (2 Bft) O-NO 75 0 min 0,000 mm 0,0 UV-I 91 W/m -0,0 C 1,1 C 8,0 km/h (2 Bft) 100,00 %
13.12.2016 12:08 1,3 C 91 % 1028,0 hPa 0,0 l/m 7,2 km/h (2 Bft) O-NO 78 0 min 0,000 mm 0,0 UV-I 90 W/m -0,0 C 0,5 C 11,3 km/h (2 Bft) 96,23 %
13.12.2016 12:10 1,3 C 91 % 1027,9 hPa 0,0 l/m 6,3 km/h (2 Bft) O-NO 74 0 min 0,000 mm 0,0 UV-I 87 W/m -0,0 C 1,3 C 8,0 km/h (2 Bft) 100,00 %
13.12.2016 12:12 1,3 C 91 % 1027,9 hPa 0,0 l/m 7,0 km/h (2 Bft) O-NO 77 0 min 0,000 mm 0,0 UV-I 86 W/m -0,0 C 0,7 C 11,3 km/h (2 Bft) 97,87 %
13.12.2016 12:14 1,3 C 90 % 1027,8 hPa 0,0 l/m 7,8 km/h (2 Bft) O-NO 76 0 min 0,000 mm 0,0 UV-I 90 W/m -0,2 C -0,1 C 11,3 km/h (2 Bft) 95,74 %
13.12.2016 12:16 1,3 C 91 % 1027,8 hPa 0,0 l/m 7,2 km/h (2 Bft) O 81 0 min 0,000 mm 0,0 UV-I 91 W/m -0,0 C 0,5 C 11,3 km/h (2 Bft) 100,00 %
13.12.2016 12:18 1,4 C 90 % 1027,7 hPa 0,0 l/m 8,0 km/h (2 Bft) O-NO 70 0 min 0,000 mm 0,0 UV-I 91 W/m -0,1 C -0,2 C 11,3 km/h (2 Bft) 100,00 %
13.12.2016 12:20 1,3 C 90 % 1027,8 hPa 0,0 l/m 6,8 km/h (2 Bft) O-NO 73 0 min 0,000 mm 0,0 UV-I 89 W/m -0,2 C 0,9 C 8,0 km/h (2 Bft) 100,00 %
13.12.2016 12:22 1,3 C 90 % 1027,8 hPa 0,0 l/m 6,5 km/h (2 Bft) O-NO 77 0 min 0,000 mm 0,0 UV-I 84 W/m -0,2 C 1,2 C 8,0 km/h (2 Bft) 100,00 %
13.12.2016 12:24 1,3 C 90 % 1027,8 hPa 0,0 l/m 6,0 km/h (2 Bft) O-NO 74 0 min 0,000 mm 0,0 UV-I 81 W/m -0,2 C 1,3 C 8,0 km/h (2 Bft) 98,11 %
13.12.2016 12:26 1,3 C 90 % 1027,8 hPa 0,0 l/m 4,5 km/h (1 Bft) O-NO 65 0 min 0,000 mm 0,0 UV-I 80 W/m -0,2 C 1,3 C 6,4 km/h (2 Bft) 100,00 %
13.12.2016 12:28 1,4 C 90 % 1027,8 hPa 0,0 l/m 4,4 km/h (1 Bft) NO 56 0 min 0,000 mm 0,0 UV-I 83 W/m -0,1 C 1,4 C 6,4 km/h (2 Bft) 100,00 %
13.12.2016 12:30 1,4 C 91 % 1027,8 hPa 0,0 l/m 3,9 km/h (1 Bft) NO 56 0 min 0,000 mm 0,0 UV-I 83 W/m 0,1 C 1,4 C 6,4 km/h (2 Bft) 100,00 %
13.12.2016 12:32 1,5 C 90 % 1027,8 hPa 0,0 l/m 4,1 km/h (1 Bft) O-NO 72 0 min 0,000 mm 0,0 UV-I 81 W/m 0,0 C 1,5 C 8,0 km/h (2 Bft) 100,00 %
13.12.2016 12:34 1,5 C 90 % 1027,8 hPa 0,0 l/m 4,3 km/h (1 Bft) O-NO 68 0 min 0,000 mm 0,0 UV-I 76 W/m 0,0 C 1,5 C 4,8 km/h (1 Bft) 100,00 %
13.12.2016 12:36 1,4 C 90 % 1027,7 hPa 0,0 l/m 4,9 km/h (1 Bft) O-NO 60 0 min 0,000 mm 0,0 UV-I 76 W/m -0,1 C 1,4 C 6,4 km/h (2 Bft) 100,00 %
13.12.2016 12:38 1,4 C 90 % 1027,7 hPa 0,0 l/m 4,0 km/h (1 Bft) O-NO 61 0 min 0,000 mm 0,0 UV-I 76 W/m -0,1 C 1,4 C 6,4 km/h (2 Bft) 100,00 %
13.12.2016 12:40 1,5 C 90 % 1027,6 hPa 0,0 l/m 4,7 km/h (1 Bft) O 86 0 min 0,000 mm 0,0 UV-I 76 W/m 0,0 C 1,5 C 8,0 km/h (2 Bft) 98,00 %
13.12.2016 12:42 1,5 C 90 % 1027,6 hPa 0,0 l/m 6,0 km/h (2 Bft) O-NO 67 0 min 0,000 mm 0,0 UV-I 80 W/m 0,0 C 1,5 C 8,0 km/h (2 Bft) 100,00 %
13.12.2016 12:44 1,5 C 90 % 1027,6 hPa 0,0 l/m 4,5 km/h (1 Bft) O-NO 67 0 min 0,000 mm 0,0 UV-I 76 W/m 0,0 C 1,5 C 6,4 km/h (2 Bft) 100,00 %
13.12.2016 12:46 1,5 C 90 % 1027,6 hPa 0,0 l/m 4,6 km/h (1 Bft) O-NO 71 0 min 0,000 mm 0,0 UV-I 77 W/m 0,0 C 1,5 C 8,0 km/h (2 Bft) 98,00 %
13.12.2016 12:48 1,6 C 91 % 1027,6 hPa 0,0 l/m 4,6 km/h (1 Bft) NO 46 0 min 0,000 mm 0,0 UV-I 76 W/m 0,3 C 1,6 C 6,4 km/h (2 Bft) 100,00 %
13.12.2016 12:50 1,6 C 91 % 1027,6 hPa 0,0 l/m 4,2 km/h (1 Bft) NO 38 0 min 0,000 mm 0,0 UV-I 76 W/m 0,3 C 1,6 C 6,4 km/h (2 Bft) 98,11 %
13.12.2016 12:52 1,6 C 91 % 1027,6 hPa 0,0 l/m 5,0 km/h (1 Bft) NO 53 0 min 0,000 mm 0,0 UV-I 76 W/m 0,3 C 1,6 C 6,4 km/h (2 Bft) 94,00 %
13.12.2016 12:54 1,7 C 91 % 1027,6 hPa 0,0 l/m 5,1 km/h (1 Bft) N-NO 26 0 min 0,000 mm 0,0 UV-I 79 W/m 0,4 C 1,7 C 8,0 km/h (2 Bft) 100,00 %
13.12.2016 12:56 1,7 C 91 % 1027,6 hPa 0,0 l/m 7,0 km/h (2 Bft) N-NO 21 0 min 0,000 mm 0,0 UV-I 83 W/m 0,4 C 1,1 C 11,3 km/h (2 Bft) 100,00 %
13.12.2016 12:58 1,7 C 91 % 1027,5 hPa 0,0 l/m 6,7 km/h (2 Bft) N-NO 28 0 min 0,000 mm 0,0 UV-I 83 W/m 0,4 C 1,4 C 9,7 km/h (2 Bft) 100,00 %
13.12.2016 13:00 1,7 C 91 % 1027,5 hPa 0,0 l/m 4,7 km/h (1 Bft) NO 46 0 min 0,000 mm 0,0 UV-I 84 W/m 0,4 C 1,7 C 8,0 km/h (2 Bft) 97,56 %
13.12.2016 13:02 1,7 C 91 % 1027,5 hPa 0,0 l/m 5,4 km/h (1 Bft) NO 38 0 min 0,026 mm 0,0 UV-I 86 W/m 0,4 C 1,7 C 8,0 km/h (2 Bft) 100,00 %
13.12.2016 13:04 1,7 C 91 % 1027,5 hPa 0,0 l/m 5,8 km/h (2 Bft) NO 44 0 min 0,000 mm 0,0 UV-I 86 W/m 0,4 C 1,7 C 9,7 km/h (2 Bft) 100,00 %
13.12.2016 13:06 1,8 C 91 % 1027,5 hPa 0,0 l/m 1,6 km/h (1 Bft) NO 36 0 min 0,000 mm 0,0 UV-I 86 W/m 0,5 C 1,8 C 4,8 km/h (1 Bft) 96,00 %
13.12.2016 13:08 1,8 C 91 % 1027,5 hPa 0,0 l/m 2,1 km/h (1 Bft) NO 46 0 min 0,000 mm 0,0 UV-I 90 W/m 0,5 C 1,8 C 4,8 km/h (1 Bft) 97,37 %
13.12.2016 13:10 1,8 C 91 % 1027,4 hPa 0,0 l/m 6,2 km/h (2 Bft) NO 55 0 min 0,000 mm 0,0 UV-I 95 W/m 0,5 C 1,8 C 8,0 km/h (2 Bft) 100,00 %
13.12.2016 13:12 1,8 C 90 % 1027,3 hPa 0,0 l/m 5,0 km/h (1 Bft) NO 51 0 min 0,000 mm 0,0 UV-I 100 W/m 0,3 C 1,8 C 6,4 km/h (2 Bft) 100,00 %
13.12.2016 13:14 1,8 C 91 % 1027,3 hPa 0,0 l/m 3,7 km/h (1 Bft) NO 50 0 min 0,000 mm 0,0 UV-I 100 W/m 0,5 C 1,8 C 6,4 km/h (2 Bft) 100,00 %
13.12.2016 13:16 1,9 C 91 % 1027,3 hPa 0,0 l/m 2,4 km/h (1 Bft) NO 46 0 min 0,000 mm 0,0 UV-I 100 W/m 0,6 C 1,9 C 4,8 km/h (1 Bft) 100,00 %
13.12.2016 13:18 1,9 C 91 % 1027,3 hPa 0,0 l/m 2,4 km/h (1 Bft) NO 46 0 min 0,000 mm 0,0 UV-I 99 W/m 0,6 C 1,9 C 4,8 km/h (1 Bft) 97,44 %
13.12.2016 13:20 1,9 C 91 % 1027,3 hPa 0,0 l/m 4,5 km/h (1 Bft) N-NO 30 0 min 0,000 mm 0,0 UV-I 95 W/m 0,6 C 1,9 C 6,4 km/h (2 Bft) 94,74 %
13.12.2016 13:22 2,0 C 91 % 1027,4 hPa 0,0 l/m 3,3 km/h (1 Bft) N-NO 23 0 min 0,000 mm 0,0 UV-I 91 W/m 0,7 C 2,0 C 4,8 km/h (1 Bft) 100,00 %
13.12.2016 13:24 1,9 C 90 % 1027,4 hPa 0,0 l/m 1,8 km/h (1 Bft) N-NO 23 0 min 0,000 mm 0,0 UV-I 91 W/m 0,4 C 1,9 C 3,2 km/h (1 Bft) 100,00 %
13.12.2016 13:26 1,9 C 90 % 1027,4 hPa 0,0 l/m 4,4 km/h (1 Bft) NO 34 0 min 0,000 mm 0,0 UV-I 91 W/m 0,4 C 1,9 C 6,4 km/h (2 Bft) 100,00 %
13.12.2016 13:28 1,8 C 90 % 1027,3 hPa 0,0 l/m 2,3 km/h (1 Bft) N-NO 32 0 min 0,000 mm 0,0 UV-I 91 W/m 0,3 C 1,8 C 4,8 km/h (1 Bft) 98,11 %
13.12.2016 13:30 1,9 C 90 % 1027,4 hPa 0,0 l/m 3,3 km/h (1 Bft) N-NO 32 0 min 0,000 mm 0,0 UV-I 95 W/m 0,4 C 1,9 C 4,8 km/h (1 Bft) 95,74 %
13.12.2016 13:32 1,9 C 90 % 1027,3 hPa 0,0 l/m 4,1 km/h (1 Bft) NO 55 0 min 0,000 mm 0,0 UV-I 98 W/m 0,4 C 1,9 C 6,4 km/h (2 Bft) 95,12 %
13.12.2016 13:34 1,9 C 90 % 1027,3 hPa 0,0 l/m 4,4 km/h (1 Bft) O 80 0 min 0,000 mm 0,0 UV-I 109 W/m 0,4 C 1,9 C 8,0 km/h (2 Bft) 96,00 %
13.12.2016 13:36 1,9 C 90 % 1027,3 hPa 0,0 l/m 4,5 km/h (1 Bft) O-NO 68 0 min 0,000 mm 0,0 UV-I 122 W/m 0,4 C 1,9 C 6,4 km/h (2 Bft) 98,00 %
13.12.2016 13:38 1,8 C 90 % 1027,3 hPa 0,0 l/m 2,6 km/h (1 Bft) O-NO 68 0 min 0,000 mm 0,0 UV-I 127 W/m 0,3 C 1,8 C 6,4 km/h (2 Bft) 97,56 %
13.12.2016 13:40 1,8 C 90 % 1027,3 hPa 0,0 l/m 3,4 km/h (1 Bft) O-NO 68 0 min 0,000 mm 0,0 UV-I 104 W/m 0,3 C 1,8 C 6,4 km/h (2 Bft) 98,00 %
13.12.2016 13:42 1,9 C 90 % 1027,4 hPa 0,0 l/m 3,0 km/h (1 Bft) O-NO 67 0 min 0,000 mm 0,0 UV-I 87 W/m 0,4 C 1,9 C 6,4 km/h (2 Bft) 97,37 %
13.12.2016 13:44 1,9 C 90 % 1027,4 hPa 0,0 l/m 4,9 km/h (1 Bft) O-NO 67 0 min 0,000 mm 0,0 UV-I 80 W/m 0,4 C 1,9 C 6,4 km/h (2 Bft) 98,11 %
13.12.2016 13:46 1,9 C 90 % 1027,3 hPa 0,0 l/m 4,6 km/h (1 Bft) O-NO 67 0 min 0,000 mm 0,0 UV-I 77 W/m 0,4 C 1,9 C 6,4 km/h (2 Bft) 97,87 %
13.12.2016 13:48 1,9 C 90 % 1027,3 hPa 0,0 l/m 4,5 km/h (1 Bft) O 81 0 min 0,000 mm 0,0 UV-I 77 W/m 0,4 C 1,9 C 6,4 km/h (2 Bft) 98,00 %
13.12.2016 13:50 1,9 C 90 % 1027,3 hPa 0,0 l/m 4,3 km/h (1 Bft) O-NO 76 0 min 0,000 mm 0,0 UV-I 73 W/m 0,4 C 1,9 C 6,4 km/h (2 Bft) 93,62 %
13.12.2016 13:52 1,8 C 90 % 1027,3 hPa 0,0 l/m 5,2 km/h (1 Bft) O-NO 68 0 min 0,000 mm 0,0 UV-I 65 W/m 0,3 C 1,8 C 8,0 km/h (2 Bft) 100,00 %
13.12.2016 13:54 1,8 C 90 % 1027,3 hPa 0,0 l/m 4,5 km/h (1 Bft) O-NO 65 0 min 0,000 mm 0,0 UV-I 57 W/m 0,3 C 1,8 C 6,4 km/h (2 Bft) 96,00 %
13.12.2016 13:56 1,9 C 90 % 1027,3 hPa 0,0 l/m 4,0 km/h (1 Bft) O-NO 59 0 min 0,000 mm 0,0 UV-I 44 W/m 0,4 C 1,9 C 8,0 km/h (2 Bft) 98,00 %
13.12.2016 13:58 1,9 C 90 % 1027,3 hPa 0,0 l/m 3,0 km/h (1 Bft) O-NO 59 0 min 0,000 mm 0,0 UV-I 35 W/m 0,4 C 1,9 C 4,8 km/h (1 Bft) 97,44 %
13.12.2016 14:00 1,9 C 90 % 1027,3 hPa 0,0 l/m 5,3 km/h (1 Bft) O-NO 68 0 min 0,000 mm 0,0 UV-I 32 W/m 0,4 C 1,9 C 8,0 km/h (2 Bft) 97,87 %
13.12.2016 14:02 1,9 C 90 % 1027,3 hPa 0,0 l/m 5,6 km/h (1 Bft) O-NO 59 0 min 0,025 mm 0,0 UV-I 29 W/m 0,4 C 1,9 C 8,0 km/h (2 Bft) 98,00 %
13.12.2016 14:04 1,9 C 90 % 1027,3 hPa 0,0 l/m 4,7 km/h (1 Bft) O 80 0 min 0,000 mm 0,0 UV-I 35 W/m 0,4 C 1,9 C 8,0 km/h (2 Bft) 98,00 %
13.12.2016 14:06 1,9 C 91 % 1027,2 hPa 0,0 l/m 5,2 km/h (1 Bft) O 79 0 min 0,000 mm 0,0 UV-I 66 W/m 0,6 C 1,9 C 8,0 km/h (2 Bft) 98,00 %
13.12.2016 14:08 1,9 C 90 % 1027,2 hPa 0,0 l/m 6,0 km/h (2 Bft) O-NO 74 0 min 0,000 mm 0,0 UV-I 81 W/m 0,4 C 1,9 C 8,0 km/h (2 Bft) 100,00 %
13.12.2016 14:10 1,9 C 90 % 1027,3 hPa 0,0 l/m 5,5 km/h (1 Bft) O-NO 74 0 min 0,000 mm 0,0 UV-I 83 W/m 0,4 C 1,9 C 8,0 km/h (2 Bft) 100,00 %
13.12.2016 14:12 1,9 C 90 % 1027,2 hPa 0,0 l/m 3,9 km/h (1 Bft) O-NO 66 0 min 0,000 mm 0,0 UV-I 90 W/m 0,4 C 1,9 C 8,0 km/h (2 Bft) 100,00 %
13.12.2016 14:14 1,9 C 90 % 1027,3 hPa 0,0 l/m 5,2 km/h (1 Bft) O-NO 68 0 min 0,000 mm 0,0 UV-I 79 W/m 0,4 C 1,9 C 8,0 km/h (2 Bft) 96,00 %
13.12.2016 14:16 1,9 C 90 % 1027,3 hPa 0,0 l/m 4,5 km/h (1 Bft) O-NO 59 0 min 0,000 mm 0,0 UV-I 52 W/m 0,4 C 1,9 C 6,4 km/h (2 Bft) 100,00 %
13.12.2016 14:18 1,9 C 90 % 1027,3 hPa 0,0 l/m 3,3 km/h (1 Bft) O-NO 59 0 min 0,000 mm 0,0 UV-I 57 W/m 0,4 C 1,9 C 4,8 km/h (1 Bft) 100,00 %
13.12.2016 14:20 1,9 C 90 % 1027,2 hPa 0,0 l/m 2,8 km/h (1 Bft) O-NO 59 0 min 0,000 mm 0,0 UV-I 62 W/m 0,4 C 1,9 C 4,8 km/h (1 Bft) 100,00 %
13.12.2016 14:22 1,9 C 90 % 1027,2 hPa 0,0 l/m 3,4 km/h (1 Bft) O 85 0 min 0,000 mm 0,0 UV-I 62 W/m 0,4 C 1,9 C 6,4 km/h (2 Bft) 98,31 %
13.12.2016 14:24 1,9 C 90 % 1027,2 hPa 0,0 l/m 4,7 km/h (1 Bft) O 80 0 min 0,000 mm 0,0 UV-I 58 W/m 0,4 C 1,9 C 6,4 km/h (2 Bft) 97,87 %
13.12.2016 14:26 2,0 C 91 % 1027,2 hPa 0,0 l/m 3,2 km/h (1 Bft) O 80 0 min 0,000 mm 0,0 UV-I 56 W/m 0,7 C 2,0 C 4,8 km/h (1 Bft) 100,00 %
13.12.2016 14:28 2,0 C 91 % 1027,3 hPa 0,0 l/m 1,6 km/h (1 Bft) O 80 0 min 0,000 mm 0,0 UV-I 54 W/m 0,7 C 2,0 C 3,2 km/h (1 Bft) 100,00 %
13.12.2016 14:30 2,0 C 91 % 1027,2 hPa 0,0 l/m 3,4 km/h (1 Bft) O 80 0 min 0,000 mm 0,0 UV-I 52 W/m 0,7 C 2,0 C 4,8 km/h (1 Bft) 100,00 %
13.12.2016 14:32 2,1 C 91 % 1027,2 hPa 0,0 l/m 4,6 km/h (1 Bft) O 85 0 min 0,000 mm 0,0 UV-I 54 W/m 0,8 C 2,1 C 6,4 km/h (2 Bft) 97,87 %
13.12.2016 14:34 2,1 C 91 % 1027,1 hPa 0,0 l/m 3,8 km/h (1 Bft) O-NO 76 0 min 0,000 mm 0,0 UV-I 54 W/m 0,8 C 2,1 C 4,8 km/h (1 Bft) 100,00 %
13.12.2016 14:36 2,1 C 91 % 1027,1 hPa 0,0 l/m 4,8 km/h (1 Bft) O 80 0 min 0,000 mm 0,0 UV-I 56 W/m 0,8 C 2,1 C 6,4 km/h (2 Bft) 100,00 %
13.12.2016 14:38 2,1 C 91 % 1027,1 hPa 0,0 l/m 3,9 km/h (1 Bft) O 79 0 min 0,000 mm 0,0 UV-I 56 W/m 0,8 C 2,1 C 6,4 km/h (2 Bft) 100,00 %
13.12.2016 14:40 2,1 C 91 % 1027,2 hPa 0,0 l/m 4,8 km/h (1 Bft) O-NO 70 0 min 0,000 mm 0,0 UV-I 54 W/m 0,8 C 2,1 C 8,0 km/h (2 Bft) 100,00 %
13.12.2016 14:42 2,1 C 90 % 1027,1 hPa 0,0 l/m 3,7 km/h (1 Bft) O-NO 74 0 min 0,000 mm 0,0 UV-I 54 W/m 0,6 C 2,1 C 6,4 km/h (2 Bft) 100,00 %
13.12.2016 14:44 2,1 C 90 % 1027,2 hPa 0,0 l/m 5,8 km/h (2 Bft) O-NO 68 0 min 0,000 mm 0,0 UV-I 54 W/m 0,6 C 2,1 C 8,0 km/h (2 Bft) 100,00 %
13.12.2016 14:46 2,1 C 90 % 1027,3 hPa 0,0 l/m 3,1 km/h (1 Bft) O-NO 68 0 min 0,000 mm 0,0 UV-I 51 W/m 0,6 C 2,1 C 4,8 km/h (1 Bft) 97,87 %
13.12.2016 14:48 2,1 C 91 % 1027,3 hPa 0,0 l/m 3,8 km/h (1 Bft) NO 54 0 min 0,000 mm 0,0 UV-I 43 W/m 0,8 C 2,1 C 6,4 km/h (2 Bft) 100,00 %
13.12.2016 14:50 2,1 C 91 % 1027,4 hPa 0,0 l/m 4,8 km/h (1 Bft) NO 47 0 min 0,000 mm 0,0 UV-I 40 W/m 0,8 C 2,1 C 6,4 km/h (2 Bft) 98,00 %
13.12.2016 14:52 2,1 C 91 % 1027,4 hPa 0,0 l/m 2,2 km/h (1 Bft) NO 48 0 min 0,000 mm 0,0 UV-I 39 W/m 0,8 C 2,1 C 3,2 km/h (1 Bft) 100,00 %
13.12.2016 14:54 2,1 C 91 % 1027,4 hPa 0,0 l/m 2,7 km/h (1 Bft) N-NO 27 0 min 0,000 mm 0,0 UV-I 39 W/m 0,8 C 2,1 C 6,4 km/h (2 Bft) 93,62 %
13.12.2016 14:56 2,1 C 91 % 1027,4 hPa 0,0 l/m 1,1 km/h (1 Bft) N-NO 27 0 min 0,000 mm 0,0 UV-I 40 W/m 0,8 C 2,1 C 3,2 km/h (1 Bft) 100,00 %
13.12.2016 14:58 2,1 C 91 % 1027,4 hPa 0,0 l/m 1,0 km/h (0 Bft) N-NO 27 0 min 0,000 mm 0,0 UV-I 40 W/m 0,8 C 2,1 C 3,2 km/h (1 Bft) 100,00 %
13.12.2016 15:00 2,1 C 91 % 1027,4 hPa 0,0 l/m 0,1 km/h (0 Bft) N-NO 27 0 min 0,025 mm 0,0 UV-I 40 W/m 0,8 C 2,1 C 1,6 km/h (1 Bft) 100,00 %
13.12.2016 15:02 2,1 C 91 % 1027,4 hPa 0,0 l/m 0,8 km/h (0 Bft) N-NO 27 0 min 0,000 mm 0,0 UV-I 38 W/m 0,8 C 2,1 C 3,2 km/h (1 Bft) 100,00 %
13.12.2016 15:04 2,2 C 91 % 1027,4 hPa 0,0 l/m 1,7 km/h (1 Bft) NO 41 0 min 0,000 mm 0,0 UV-I 36 W/m 0,9 C 2,2 C 6,4 km/h (2 Bft) 100,00 %
13.12.2016 15:06 2,2 C 91 % 1027,4 hPa 0,0 l/m 4,0 km/h (1 Bft) NO 40 0 min 0,000 mm 0,0 UV-I 35 W/m 0,9 C 2,2 C 6,4 km/h (2 Bft) 97,87 %
13.12.2016 15:08 2,1 C 91 % 1027,3 hPa 0,0 l/m 1,8 km/h (1 Bft) NO 40 0 min 0,000 mm 0,0 UV-I 33 W/m 0,8 C 2,1 C 4,8 km/h (1 Bft) 97,73 %
13.12.2016 15:10 2,1 C 91 % 1027,4 hPa 0,0 l/m 3,0 km/h (1 Bft) NO 40 0 min 0,000 mm 0,0 UV-I 32 W/m 0,8 C 2,1 C 4,8 km/h (1 Bft) 97,56 %
13.12.2016 15:12 2,1 C 91 % 1027,3 hPa 0,0 l/m 4,9 km/h (1 Bft) NO 35 0 min 0,000 mm 0,0 UV-I 32 W/m 0,8 C 2,1 C 8,0 km/h (2 Bft) 100,00 %
13.12.2016 15:14 2,2 C 91 % 1027,2 hPa 0,0 l/m 5,8 km/h (2 Bft) N-NO 32 0 min 0,000 mm 0,0 UV-I 33 W/m 0,9 C 2,2 C 8,0 km/h (2 Bft) 100,00 %
13.12.2016 15:16 2,2 C 91 % 1027,1 hPa 0,0 l/m 6,4 km/h (2 Bft) NO 55 0 min 0,000 mm 0,0 UV-I 34 W/m 0,9 C 2,2 C 8,0 km/h (2 Bft) 100,00 %
13.12.2016 15:18 2,2 C 91 % 1027,0 hPa 0,0 l/m 7,0 km/h (2 Bft) NO 53 0 min 0,000 mm 0,0 UV-I 35 W/m 0,9 C 1,6 C 8,0 km/h (2 Bft) 100,00 %
13.12.2016 15:20 2,1 C 91 % 1027,1 hPa 0,0 l/m 6,8 km/h (2 Bft) O-NO 65 0 min 0,000 mm 0,0 UV-I 32 W/m 0,8 C 1,7 C 9,7 km/h (2 Bft) 100,00 %
13.12.2016 15:22 2,2 C 91 % 1027,2 hPa 0,0 l/m 5,1 km/h (1 Bft) NO 43 0 min 0,000 mm 0,0 UV-I 29 W/m 0,9 C 2,2 C 8,0 km/h (2 Bft) 100,00 %
13.12.2016 15:24 2,2 C 91 % 1027,3 hPa 0,0 l/m 4,9 km/h (1 Bft) NO 46 0 min 0,000 mm 0,0 UV-I 26 W/m 0,9 C 2,2 C 8,0 km/h (2 Bft) 100,00 %
13.12.2016 15:26 2,2 C 91 % 1027,3 hPa 0,0 l/m 2,4 km/h (1 Bft) NO 42 0 min 0,000 mm 0,0 UV-I 25 W/m 0,9 C 2,2 C 4,8 km/h (1 Bft) 100,00 %
13.12.2016 15:28 2,2 C 91 % 1027,3 hPa 0,0 l/m 4,6 km/h (1 Bft) NO 56 0 min 0,000 mm 0,0 UV-I 24 W/m 0,9 C 2,2 C 6,4 km/h (2 Bft) 97,87 %
13.12.2016 15:30 2,2 C 91 % 1027,3 hPa 0,0 l/m 4,5 km/h (1 Bft) NO 55 0 min 0,000 mm 0,0 UV-I 23 W/m 0,9 C 2,2 C 6,4 km/h (2 Bft) 100,00 %
13.12.2016 15:32 2,2 C 91 % 1027,4 hPa 0,0 l/m 4,5 km/h (1 Bft) O-NO 57 0 min 0,000 mm 0,0 UV-I 22 W/m 0,9 C 2,2 C 8,0 km/h (2 Bft) 100,00 %
13.12.2016 15:34 2,1 C 91 % 1027,4 hPa 0,0 l/m 4,9 km/h (1 Bft) NO 48 0 min 0,000 mm 0,0 UV-I 20 W/m 0,8 C 2,1 C 6,4 km/h (2 Bft) 95,12 %
13.12.2016 15:36 2,2 C 91 % 1027,4 hPa 0,0 l/m 3,1 km/h (1 Bft) NO 52 0 min 0,000 mm 0,0 UV-I 19 W/m 0,9 C 2,2 C 4,8 km/h (1 Bft) 96,23 %
13.12.2016 15:38 2,1 C 91 % 1027,3 hPa 0,0 l/m 3,2 km/h (1 Bft) NO 47 0 min 0,000 mm 0,0 UV-I 18 W/m 0,8 C 2,1 C 6,4 km/h (2 Bft) 97,56 %
13.12.2016 15:40 2,1 C 90 % 1027,2 hPa 0,0 l/m 5,4 km/h (1 Bft) NO 49 0 min 0,000 mm 0,0 UV-I 18 W/m 0,6 C 2,1 C 8,0 km/h (2 Bft) 97,73 %
13.12.2016 15:42 2,1 C 90 % 1027,2 hPa 0,0 l/m 4,8 km/h (1 Bft) O-NO 65 0 min 0,000 mm 0,0 UV-I 18 W/m 0,6 C 2,1 C 6,4 km/h (2 Bft) 98,00 %
13.12.2016 15:44 2,1 C 91 % 1027,2 hPa 0,0 l/m 4,9 km/h (1 Bft) O-NO 76 0 min 0,000 mm 0,0 UV-I 17 W/m 0,8 C 2,1 C 8,0 km/h (2 Bft) 98,00 %
13.12.2016 15:46 2,1 C 91 % 1027,2 hPa 0,0 l/m 5,6 km/h (1 Bft) O-NO 59 0 min 0,000 mm 0,0 UV-I 17 W/m 0,8 C 2,1 C 8,0 km/h (2 Bft) 98,00 %
13.12.2016 15:48 2,1 C 91 % 1027,2 hPa 0,0 l/m 5,9 km/h (2 Bft) NO 52 0 min 0,000 mm 0,0 UV-I 18 W/m 0,8 C 2,1 C 8,0 km/h (2 Bft) 95,12 %
13.12.2016 15:50 2,1 C 90 % 1027,3 hPa 0,0 l/m 5,1 km/h (1 Bft) NO 38 0 min 0,000 mm 0,0 UV-I 16 W/m 0,6 C 2,1 C 8,0 km/h (2 Bft) 98,00 %
13.12.2016 15:52 2,1 C 91 % 1027,4 hPa 0,0 l/m 5,6 km/h (1 Bft) NO 53 0 min 0,000 mm 0,0 UV-I 13 W/m 0,8 C 2,1 C 8,0 km/h (2 Bft) 97,37 %
13.12.2016 15:54 2,1 C 91 % 1027,3 hPa 0,0 l/m 4,5 km/h (1 Bft) O-NO 61 0 min 0,000 mm 0,0 UV-I 11 W/m 0,8 C 2,1 C 6,4 km/h (2 Bft) 96,00 %
13.12.2016 15:56 2,1 C 91 % 1027,3 hPa 0,0 l/m 4,8 km/h (1 Bft) NO 54 0 min 0,000 mm 0,0 UV-I 10 W/m 0,8 C 2,1 C 6,4 km/h (2 Bft) 98,00 %
13.12.2016 15:58 2,1 C 91 % 1027,3 hPa 0,0 l/m 4,0 km/h (1 Bft) NO 54 0 min 0,000 mm 0,0 UV-I 9 W/m 0,8 C 2,1 C 4,8 km/h (1 Bft) 98,00 %
13.12.2016 16:00 2,1 C 91 % 1027,3 hPa 0,0 l/m 3,9 km/h (1 Bft) NO 55 0 min 0,000 mm 0,0 UV-I 7 W/m 0,8 C 2,1 C 6,4 km/h (2 Bft) 97,22 %
13.12.2016 16:02 2,1 C 91 % 1027,2 hPa 0,0 l/m 5,0 km/h (1 Bft) O-NO 61 0 min 0,000 mm 0,0 UV-I 7 W/m 0,8 C 2,1 C 8,0 km/h (2 Bft) 98,00 %
13.12.2016 16:04 2,1 C 91 % 1027,2 hPa 0,0 l/m 4,8 km/h (1 Bft) O-NO 69 0 min 0,000 mm 0,0 UV-I 7 W/m 0,8 C 2,1 C 6,4 km/h (2 Bft) 95,74 %
13.12.2016 16:06 2,0 C 91 % 1027,2 hPa 0,0 l/m 5,1 km/h (1 Bft) NO 53 0 min 0,000 mm 0,0 UV-I 5 W/m 0,7 C 2,0 C 6,4 km/h (2 Bft) 98,11 %
13.12.2016 16:08 2,0 C 91 % 1027,2 hPa 0,0 l/m 4,9 km/h (1 Bft) O-NO 63 0 min 0,000 mm 0,0 UV-I 5 W/m 0,7 C 2,0 C 6,4 km/h (2 Bft) 98,00 %
13.12.2016 16:10 2,0 C 91 % 1027,2 hPa 0,0 l/m 5,9 km/h (2 Bft) NO 46 0 min 0,000 mm 0,0 UV-I 5 W/m 0,7 C 2,0 C 8,0 km/h (2 Bft) 97,73 %
13.12.2016 16:12 2,0 C 91 % 1027,2 hPa 0,0 l/m 4,7 km/h (1 Bft) O-NO 61 0 min 0,000 mm 0,0 UV-I 5 W/m 0,7 C 2,0 C 6,4 km/h (2 Bft) 96,00 %
13.12.2016 16:14 2,0 C 91 % 1027,3 hPa 0,0 l/m 4,6 km/h (1 Bft) O-NO 67 0 min 0,000 mm 0,0 UV-I 5 W/m 0,7 C 2,0 C 8,0 km/h (2 Bft) 100,00 %
13.12.2016 16:16 2,0 C 91 % 1027,2 hPa 0,0 l/m 4,6 km/h (1 Bft) O-NO 59 0 min 0,000 mm 0,0 UV-I 5 W/m 0,7 C 2,0 C 6,4 km/h (2 Bft) 100,00 %
13.12.2016 16:18 1,9 C 91 % 1027,2 hPa 0,0 l/m 5,2 km/h (1 Bft) O-NO 58 0 min 0,000 mm 0,0 UV-I 5 W/m 0,6 C 1,9 C 6,4 km/h (2 Bft) 100,00 %
13.12.2016 16:20 1,9 C 91 % 1027,1 hPa 0,0 l/m 6,1 km/h (2 Bft) O-NO 61 0 min 0,000 mm 0,0 UV-I 5 W/m 0,6 C 1,9 C 8,0 km/h (2 Bft) 97,37 %
13.12.2016 16:22 1,9 C 91 % 1027,1 hPa 0,0 l/m 5,6 km/h (1 Bft) O-NO 57 0 min 0,000 mm 0,0 UV-I 5 W/m 0,6 C 1,9 C 8,0 km/h (2 Bft) 98,00 %
13.12.2016 16:24 1,9 C 91 % 1027,1 hPa 0,0 l/m 4,4 km/h (1 Bft) NO 55 0 min 0,000 mm 0,0 UV-I 2 W/m 0,6 C 1,9 C 6,4 km/h (2 Bft) 100,00 %
13.12.2016 16:26 1,9 C 91 % 1027,2 hPa 0,0 l/m 3,9 km/h (1 Bft) NO 55 0 min 0,000 mm 0,0 UV-I 0 W/m 0,6 C 1,9 C 6,4 km/h (2 Bft) 100,00 %
13.12.2016 16:28 1,9 C 91 % 1027,1 hPa 0,0 l/m 4,9 km/h (1 Bft) O-NO 59 0 min 0,000 mm 0,0 UV-I 0 W/m 0,6 C 1,9 C 8,0 km/h (2 Bft) 100,00 %
13.12.2016 16:30 1,9 C 91 % 1027,1 hPa 0,0 l/m 5,8 km/h (2 Bft) O-NO 66 0 min 0,000 mm 0,0 UV-I 0 W/m 0,6 C 1,9 C 8,0 km/h (2 Bft) 100,00 %
13.12.2016 16:32 1,9 C 91 % 1027,1 hPa 0,0 l/m 4,3 km/h (1 Bft) O-NO 75 0 min 0,000 mm 0,0 UV-I 0 W/m 0,6 C 1,9 C 6,4 km/h (2 Bft) 100,00 %
13.12.2016 16:34 1,9 C 91 % 1027,1 hPa 0,0 l/m 4,2 km/h (1 Bft) O-NO 74 0 min 0,000 mm 0,0 UV-I 0 W/m 0,6 C 1,9 C 6,4 km/h (2 Bft) 100,00 %
13.12.2016 16:36 1,9 C 91 % 1027,1 hPa 0,0 l/m 5,0 km/h (1 Bft) O-NO 67 0 min 0,000 mm 0,0 UV-I 0 W/m 0,6 C 1,9 C 8,0 km/h (2 Bft) 100,00 %
13.12.2016 16:38 1,8 C 91 % 1027,1 hPa 0,0 l/m 4,3 km/h (1 Bft) NO 54 0 min 0,000 mm 0,0 UV-I 0 W/m 0,5 C 1,8 C 6,4 km/h (2 Bft) 100,00 %
13.12.2016 16:40 1,8 C 91 % 1027,2 hPa 0,0 l/m 5,2 km/h (1 Bft) NO 53 0 min 0,000 mm 0,0 UV-I 0 W/m 0,5 C 1,8 C 8,0 km/h (2 Bft) 100,00 %
13.12.2016 16:42 1,8 C 91 % 1027,2 hPa 0,0 l/m 6,0 km/h (2 Bft) O-NO 71 0 min 0,000 mm 0,0 UV-I 0 W/m 0,5 C 1,8 C 8,0 km/h (2 Bft) 98,00 %
13.12.2016 16:44 1,8 C 91 % 1027,1 hPa 0,0 l/m 5,7 km/h (1 Bft) O-NO 67 0 min 0,000 mm 0,0 UV-I 0 W/m 0,5 C 1,8 C 8,0 km/h (2 Bft) 100,00 %
13.12.2016 16:46 1,8 C 91 % 1027,1 hPa 0,0 l/m 5,1 km/h (1 Bft) O-NO 77 0 min 0,000 mm 0,0 UV-I 0 W/m 0,5 C 1,8 C 6,4 km/h (2 Bft) 100,00 %
13.12.2016 16:48 1,8 C 92 % 1027,1 hPa 0,0 l/m 4,1 km/h (1 Bft) O-NO 71 0 min 0,000 mm 0,0 UV-I 0 W/m 0,6 C 1,8 C 6,4 km/h (2 Bft) 100,00 %
13.12.2016 16:50 1,8 C 92 % 1027,1 hPa 0,0 l/m 6,0 km/h (2 Bft) O-NO 65 0 min 0,000 mm 0,0 UV-I 0 W/m 0,6 C 1,8 C 8,0 km/h (2 Bft) 100,00 %
13.12.2016 16:52 1,8 C 92 % 1027,1 hPa 0,0 l/m 5,8 km/h (2 Bft) O-NO 74 0 min 0,000 mm 0,0 UV-I 0 W/m 0,6 C 1,8 C 8,0 km/h (2 Bft) 100,00 %
13.12.2016 16:54 1,8 C 92 % 1027,1 hPa 0,0 l/m 4,8 km/h (1 Bft) O-NO 68 0 min 0,000 mm 0,0 UV-I 0 W/m 0,6 C 1,8 C 8,0 km/h (2 Bft) 100,00 %
13.12.2016 16:56 1,8 C 92 % 1027,2 hPa 0,0 l/m 6,2 km/h (2 Bft) O-NO 74 0 min 0,000 mm 0,0 UV-I 0 W/m 0,6 C 1,8 C 8,0 km/h (2 Bft) 100,00 %
13.12.2016 16:58 1,8 C 92 % 1027,2 hPa 0,0 l/m 5,2 km/h (1 Bft) O-NO 71 0 min 0,000 mm 0,0 UV-I 0 W/m 0,6 C 1,8 C 8,0 km/h (2 Bft) 100,00 %
13.12.2016 17:00 1,8 C 92 % 1027,2 hPa 0,0 l/m 5,4 km/h (1 Bft) O-NO 65 0 min 0,000 mm 0,0 UV-I 0 W/m 0,6 C 1,8 C 8,0 km/h (2 Bft) 95,74 %
13.12.2016 17:02 1,8 C 92 % 1027,2 hPa 0,0 l/m 7,8 km/h (2 Bft) NO 55 0 min 0,000 mm 0,0 UV-I 0 W/m 0,6 C 0,4 C 12,9 km/h (3 Bft) 100,00 %
13.12.2016 17:04 1,8 C 92 % 1027,2 hPa 0,0 l/m 9,1 km/h (2 Bft) O-NO 65 0 min 0,000 mm 0,0 UV-I 0 W/m 0,6 C -0,7 C 14,5 km/h (3 Bft) 100,00 %
13.12.2016 17:06 1,7 C 91 % 1027,2 hPa 0,0 l/m 8,3 km/h (2 Bft) O-NO 69 0 min 0,000 mm 0,0 UV-I 0 W/m 0,4 C -0,1 C 11,3 km/h (2 Bft) 100,00 %
13.12.2016 17:08 1,7 C 91 % 1027,3 hPa 0,0 l/m 8,4 km/h (2 Bft) O-NO 67 0 min 0,000 mm 0,0 UV-I 0 W/m 0,4 C -0,2 C 12,9 km/h (3 Bft) 96,00 %
13.12.2016 17:10 1,7 C 91 % 1027,3 hPa 0,0 l/m 8,5 km/h (2 Bft) O-NO 57 0 min 0,000 mm 0,0 UV-I 0 W/m 0,4 C -0,3 C 12,9 km/h (3 Bft) 100,00 %
13.12.2016 17:12 1,7 C 91 % 1027,2 hPa 0,0 l/m 8,7 km/h (2 Bft) O-NO 60 0 min 0,000 mm 0,0 UV-I 0 W/m 0,4 C -0,5 C 12,9 km/h (3 Bft) 100,00 %
13.12.2016 17:14 1,7 C 91 % 1027,2 hPa 0,0 l/m 7,9 km/h (2 Bft) O-NO 73 0 min 0,000 mm 0,0 UV-I 0 W/m 0,4 C 0,2 C 11,3 km/h (2 Bft) 100,00 %
13.12.2016 17:16 1,7 C 91 % 1027,2 hPa 0,0 l/m 7,6 km/h (2 Bft) O-NO 57 0 min 0,000 mm 0,0 UV-I 0 W/m 0,4 C 0,5 C 11,3 km/h (2 Bft) 100,00 %
13.12.2016 17:18 1,7 C 91 % 1027,2 hPa 0,0 l/m 5,3 km/h (1 Bft) NO 53 0 min 0,000 mm 0,0 UV-I 0 W/m 0,4 C 1,7 C 8,0 km/h (2 Bft) 100,00 %
13.12.2016 17:20 1,6 C 91 % 1027,2 hPa 0,0 l/m 5,5 km/h (1 Bft) NO 55 0 min 0,000 mm 0,0 UV-I 0 W/m 0,3 C 1,6 C 8,0 km/h (2 Bft) 100,00 %
13.12.2016 17:22 1,6 C 91 % 1027,2 hPa 0,0 l/m 6,9 km/h (2 Bft) O-NO 59 0 min 0,000 mm 0,0 UV-I 0 W/m 0,3 C 1,1 C 9,7 km/h (2 Bft) 97,37 %
13.12.2016 17:24 1,6 C 91 % 1027,2 hPa 0,0 l/m 4,7 km/h (1 Bft) NO 52 0 min 0,000 mm 0,0 UV-I 0 W/m 0,3 C 1,6 C 6,4 km/h (2 Bft) 100,00 %
13.12.2016 17:26 1,6 C 91 % 1027,3 hPa 0,0 l/m 5,2 km/h (1 Bft) NO 56 0 min 0,000 mm 0,0 UV-I 0 W/m 0,3 C 1,6 C 8,0 km/h (2 Bft) 96,00 %
13.12.2016 17:28 1,6 C 91 % 1027,3 hPa 0,0 l/m 4,5 km/h (1 Bft) O-NO 59 0 min 0,000 mm 0,0 UV-I 0 W/m 0,3 C 1,6 C 6,4 km/h (2 Bft) 100,00 %
13.12.2016 17:30 1,6 C 91 % 1027,3 hPa 0,0 l/m 3,7 km/h (1 Bft) O-NO 59 0 min 0,000 mm 0,0 UV-I 0 W/m 0,3 C 1,6 C 6,4 km/h (2 Bft) 100,00 %
13.12.2016 17:32 1,6 C 91 % 1027,3 hPa 0,0 l/m 4,0 km/h (1 Bft) O-NO 57 0 min 0,000 mm 0,0 UV-I 0 W/m 0,3 C 1,6 C 6,4 km/h (2 Bft) 97,87 %
13.12.2016 17:34 1,6 C 91 % 1027,3 hPa 0,0 l/m 3,9 km/h (1 Bft) O-NO 57 0 min 0,000 mm 0,0 UV-I 0 W/m 0,3 C 1,6 C 4,8 km/h (1 Bft) 100,00 %
13.12.2016 17:36 1,6 C 91 % 1027,2 hPa 0,0 l/m 3,4 km/h (1 Bft) O-NO 57 0 min 0,000 mm 0,0 UV-I 0 W/m 0,3 C 1,6 C 4,8 km/h (1 Bft) 100,00 %
13.12.2016 17:38 1,6 C 91 % 1027,3 hPa 0,0 l/m 3,8 km/h (1 Bft) O-NO 57 0 min 0,000 mm 0,0 UV-I 0 W/m 0,3 C 1,6 C 4,8 km/h (1 Bft) 100,00 %
13.12.2016 17:40 1,6 C 91 % 1027,2 hPa 0,0 l/m 4,4 km/h (1 Bft) O-NO 69 0 min 0,000 mm 0,0 UV-I 0 W/m 0,3 C 1,6 C 6,4 km/h (2 Bft) 96,00 %
13.12.2016 17:42 1,5 C 91 % 1027,2 hPa 0,0 l/m 5,8 km/h (2 Bft) O-NO 66 0 min 0,000 mm 0,0 UV-I 0 W/m 0,2 C 1,5 C 6,4 km/h (2 Bft) 98,00 %
13.12.2016 17:44 1,5 C 91 % 1027,2 hPa 0,0 l/m 4,0 km/h (1 Bft) O-NO 68 0 min 0,000 mm 0,0 UV-I 0 W/m 0,2 C 1,5 C 6,4 km/h (2 Bft) 98,00 %
13.12.2016 17:46 1,5 C 91 % 1027,2 hPa 0,0 l/m 4,5 km/h (1 Bft) O-NO 67 0 min 0,000 mm 0,0 UV-I 0 W/m 0,2 C 1,5 C 6,4 km/h (2 Bft) 97,73 %
13.12.2016 17:48 1,5 C 91 % 1027,2 hPa 0,0 l/m 4,9 km/h (1 Bft) O 80 0 min 0,000 mm 0,0 UV-I 0 W/m 0,2 C 1,5 C 6,4 km/h (2 Bft) 97,87 %
13.12.2016 17:50 1,5 C 91 % 1027,2 hPa 0,0 l/m 4,9 km/h (1 Bft) O-NO 70 0 min 0,000 mm 0,0 UV-I 0 W/m 0,2 C 1,5 C 6,4 km/h (2 Bft) 97,44 %
13.12.2016 17:52 1,5 C 91 % 1027,2 hPa 0,0 l/m 6,0 km/h (2 Bft) O-NO 72 0 min 0,000 mm 0,0 UV-I 0 W/m 0,2 C 1,5 C 8,0 km/h (2 Bft) 98,08 %
13.12.2016 17:54 1,5 C 91 % 1027,3 hPa 0,0 l/m 5,9 km/h (2 Bft) O-NO 59 0 min 0,000 mm 0,0 UV-I 0 W/m 0,2 C 1,5 C 8,0 km/h (2 Bft) 94,34 %
13.12.2016 17:56 1,5 C 91 % 1027,2 hPa 0,0 l/m 5,7 km/h (1 Bft) O-NO 65 0 min 0,000 mm 0,0 UV-I 0 W/m 0,2 C 1,5 C 8,0 km/h (2 Bft) 97,44 %
13.12.2016 17:58 1,5 C 91 % 1027,2 hPa 0,0 l/m 5,6 km/h (1 Bft) O-NO 61 0 min 0,000 mm 0,0 UV-I 0 W/m 0,2 C 1,5 C 8,0 km/h (2 Bft) 97,87 %
13.12.2016 18:00 1,4 C 91 % 1027,2 hPa 0,0 l/m 6,0 km/h (2 Bft) O-NO 63 0 min 0,000 mm 0,0 UV-I 0 W/m 0,1 C 1,4 C 8,0 km/h (2 Bft) 98,11 %
13.12.2016 18:02 1,4 C 91 % 1027,2 hPa 0,0 l/m 5,7 km/h (1 Bft) NO 54 0 min 0,000 mm 0,0 UV-I 0 W/m 0,1 C 1,4 C 8,0 km/h (2 Bft) 97,56 %
13.12.2016 18:04 1,4 C 91 % 1027,1 hPa 0,0 l/m 4,9 km/h (1 Bft) NO 54 0 min 0,000 mm 0,0 UV-I 0 W/m 0,1 C 1,4 C 6,4 km/h (2 Bft) 98,00 %
13.12.2016 18:06 1,4 C 91 % 1027,2 hPa 0,0 l/m 4,9 km/h (1 Bft) O-NO 67 0 min 0,000 mm 0,0 UV-I 0 W/m 0,1 C 1,4 C 8,0 km/h (2 Bft) 98,11 %
13.12.2016 18:08 1,4 C 91 % 1027,1 hPa 0,0 l/m 4,6 km/h (1 Bft) O-NO 69 0 min 0,000 mm 0,0 UV-I 0 W/m 0,1 C 1,4 C 8,0 km/h (2 Bft) 97,56 %
13.12.2016 18:10 1,4 C 91 % 1027,2 hPa 0,0 l/m 4,5 km/h (1 Bft) O-NO 74 0 min 0,000 mm 0,0 UV-I 0 W/m 0,1 C 1,4 C 6,4 km/h (2 Bft) 97,56 %
13.12.2016 18:12 1,4 C 91 % 1027,2 hPa 0,0 l/m 3,6 km/h (1 Bft) O 79 0 min 0,000 mm 0,0 UV-I 0 W/m 0,1 C 1,4 C 4,8 km/h (1 Bft) 95,74 %
13.12.2016 18:14 1,4 C 91 % 1027,2 hPa 0,0 l/m 2,9 km/h (1 Bft) O 91 0 min 0,000 mm 0,0 UV-I 0 W/m 0,1 C 1,4 C 4,8 km/h (1 Bft) 98,00 %
13.12.2016 18:16 1,4 C 91 % 1027,1 hPa 0,0 l/m 2,6 km/h (1 Bft) O 88 0 min 0,000 mm 0,0 UV-I 0 W/m 0,1 C 1,4 C 4,8 km/h (1 Bft) 94,00 %
13.12.2016 18:18 1,4 C 91 % 1027,1 hPa 0,0 l/m 3,6 km/h (1 Bft) O-SO 102 0 min 0,000 mm 0,0 UV-I 0 W/m 0,1 C 1,4 C 4,8 km/h (1 Bft) 100,00 %
13.12.2016 18:20 1,4 C 91 % 1027,1 hPa 0,0 l/m 1,9 km/h (1 Bft) O-SO 102 0 min 0,000 mm 0,0 UV-I 0 W/m 0,1 C 1,4 C 3,2 km/h (1 Bft) 100,00 %
13.12.2016 18:22 1,4 C 91 % 1027,1 hPa 0,0 l/m 2,9 km/h (1 Bft) O-SO 107 0 min 0,000 mm 0,0 UV-I 0 W/m 0,1 C 1,4 C 4,8 km/h (1 Bft) 98,11 %
13.12.2016 18:24 1,4 C 91 % 1027,1 hPa 0,0 l/m 3,7 km/h (1 Bft) O-SO 120 0 min 0,000 mm 0,0 UV-I 0 W/m 0,1 C 1,4 C 6,4 km/h (2 Bft) 97,37 %
13.12.2016 18:26 1,4 C 92 % 1026,9 hPa 0,0 l/m 3,4 km/h (1 Bft) O-SO 120 0 min 0,000 mm 0,0 UV-I 0 W/m 0,2 C 1,4 C 4,8 km/h (1 Bft) 97,87 %
13.12.2016 18:28 1,4 C 92 % 1026,9 hPa 0,0 l/m 5,6 km/h (1 Bft) O-SO 103 0 min 0,000 mm 0,0 UV-I 0 W/m 0,2 C 1,4 C 9,7 km/h (2 Bft) 100,00 %
13.12.2016 18:30 1,4 C 92 % 1026,9 hPa 0,0 l/m 5,4 km/h (1 Bft) O 92 0 min 0,000 mm 0,0 UV-I 0 W/m 0,2 C 1,4 C 8,0 km/h (2 Bft) 100,00 %
13.12.2016 18:32 1,4 C 92 % 1026,9 hPa 0,0 l/m 5,2 km/h (1 Bft) O 93 0 min 0,000 mm 0,0 UV-I 0 W/m 0,2 C 1,4 C 9,7 km/h (2 Bft) 100,00 %
13.12.2016 18:34 1,4 C 92 % 1026,9 hPa 0,0 l/m 3,7 km/h (1 Bft) O 96 0 min 0,000 mm 0,0 UV-I 0 W/m 0,2 C 1,4 C 4,8 km/h (1 Bft) 100,00 %
13.12.2016 18:36 1,4 C 92 % 1026,9 hPa 0,0 l/m 4,1 km/h (1 Bft) O-SO 119 0 min 0,000 mm 0,0 UV-I 0 W/m 0,2 C 1,4 C 6,4 km/h (2 Bft) 97,44 %
13.12.2016 18:38 1,4 C 92 % 1026,8 hPa 0,0 l/m 4,8 km/h (1 Bft) SO 126 0 min 0,000 mm 0,0 UV-I 0 W/m 0,2 C 1,4 C 6,4 km/h (2 Bft) 100,00 %
13.12.2016 18:40 1,4 C 92 % 1026,9 hPa 0,0 l/m 2,7 km/h (1 Bft) SO 126 0 min 0,000 mm 0,0 UV-I 0 W/m 0,2 C 1,4 C 4,8 km/h (1 Bft) 100,00 %
13.12.2016 18:42 1,4 C 92 % 1026,8 hPa 0,0 l/m 3,2 km/h (1 Bft) SO 130 0 min 0,000 mm 0,0 UV-I 0 W/m 0,2 C 1,4 C 4,8 km/h (1 Bft) 100,00 %
13.12.2016 18:44 1,4 C 92 % 1026,9 hPa 0,0 l/m 0,9 km/h (0 Bft) SO 133 0 min 0,000 mm 0,0 UV-I 0 W/m 0,2 C 1,4 C 3,2 km/h (1 Bft) 97,56 %
13.12.2016 18:46 1,4 C 92 % 1026,8 hPa 0,0 l/m 3,0 km/h (1 Bft) SO 142 0 min 0,000 mm 0,0 UV-I 0 W/m 0,2 C 1,4 C 4,8 km/h (1 Bft) 100,00 %
13.12.2016 18:48 1,4 C 92 % 1026,8 hPa 0,0 l/m 3,2 km/h (1 Bft) O-SO 115 0 min 0,000 mm 0,0 UV-I 0 W/m 0,2 C 1,4 C 6,4 km/h (2 Bft) 100,00 %
13.12.2016 18:50 1,4 C 92 % 1026,8 hPa 0,0 l/m 3,7 km/h (1 Bft) SO 134 0 min 0,000 mm 0,0 UV-I 0 W/m 0,2 C 1,4 C 6,4 km/h (2 Bft) 100,00 %
13.12.2016 18:52 1,4 C 92 % 1026,8 hPa 0,0 l/m 1,9 km/h (1 Bft) SO 136 0 min 0,000 mm 0,0 UV-I 0 W/m 0,2 C 1,4 C 4,8 km/h (1 Bft) 100,00 %
13.12.2016 18:54 1,4 C 92 % 1026,8 hPa 0,0 l/m 2,0 km/h (1 Bft) SO 136 0 min 0,000 mm 0,0 UV-I 0 W/m 0,2 C 1,4 C 3,2 km/h (1 Bft) 98,11 %
13.12.2016 18:56 1,4 C 92 % 1026,8 hPa 0,0 l/m 2,9 km/h (1 Bft) SO 136 0 min 0,000 mm 0,0 UV-I 0 W/m 0,2 C 1,4 C 4,8 km/h (1 Bft) 100,00 %
13.12.2016 18:58 1,4 C 92 % 1026,8 hPa 0,0 l/m 2,9 km/h (1 Bft) SO 136 0 min 0,000 mm 0,0 UV-I 0 W/m 0,2 C 1,4 C 4,8 km/h (1 Bft) 100,00 %
13.12.2016 19:00 1,4 C 92 % 1026,8 hPa 0,0 l/m 2,0 km/h (1 Bft) SO 136 0 min 0,000 mm 0,0 UV-I 0 W/m 0,2 C 1,4 C 4,8 km/h (1 Bft) 100,00 %
13.12.2016 19:02 1,4 C 92 % 1026,8 hPa 0,0 l/m 2,2 km/h (1 Bft) SO 138 0 min 0,000 mm 0,0 UV-I 0 W/m 0,2 C 1,4 C 3,2 km/h (1 Bft) 100,00 %
13.12.2016 19:04 1,4 C 92 % 1026,8 hPa 0,0 l/m 2,2 km/h (1 Bft) SO 138 0 min 0,000 mm 0,0 UV-I 0 W/m 0,2 C 1,4 C 4,8 km/h (1 Bft) 98,00 %
13.12.2016 19:06 1,4 C 92 % 1026,8 hPa 0,0 l/m 1,7 km/h (1 Bft) SO 138 0 min 0,000 mm 0,0 UV-I 0 W/m 0,2 C 1,4 C 3,2 km/h (1 Bft) 100,00 %
13.12.2016 19:08 1,4 C 92 % 1026,8 hPa 0,0 l/m 1,3 km/h (1 Bft) SO 138 0 min 0,000 mm 0,0 UV-I 0 W/m 0,2 C 1,4 C 3,2 km/h (1 Bft) 100,00 %
13.12.2016 19:10 1,4 C 92 % 1026,8 hPa 0,0 l/m 1,3 km/h (1 Bft) SO 138 0 min 0,000 mm 0,0 UV-I 0 W/m 0,2 C 1,4 C 3,2 km/h (1 Bft) 98,00 %
13.12.2016 19:12 1,4 C 92 % 1026,8 hPa 0,0 l/m 0,8 km/h (0 Bft) SO 138 0 min 0,000 mm 0,0 UV-I 0 W/m 0,2 C 1,4 C 3,2 km/h (1 Bft) 98,00 %
13.12.2016 19:14 1,4 C 92 % 1026,8 hPa 0,0 l/m 1,2 km/h (1 Bft) SO 138 0 min 0,000 mm 0,0 UV-I 0 W/m 0,2 C 1,4 C 3,2 km/h (1 Bft) 97,87 %
13.12.2016 19:16 1,4 C 92 % 1026,8 hPa 0,0 l/m 2,0 km/h (1 Bft) SO 138 0 min 0,000 mm 0,0 UV-I 0 W/m 0,2 C 1,4 C 3,2 km/h (1 Bft) 98,00 %
13.12.2016 19:18 1,4 C 92 % 1026,8 hPa 0,0 l/m 0,6 km/h (0 Bft) SO 138 0 min 0,000 mm 0,0 UV-I 0 W/m 0,2 C 1,4 C 3,2 km/h (1 Bft) 97,44 %
13.12.2016 19:20 1,4 C 92 % 1026,8 hPa 0,0 l/m 0,6 km/h (0 Bft) SO 138 0 min 0,000 mm 0,0 UV-I 0 W/m 0,2 C 1,4 C 3,2 km/h (1 Bft) 100,00 %
13.12.2016 19:22 1,5 C 92 % 1026,8 hPa 0,0 l/m 0,0 km/h (0 Bft) SO 138 0 min 0,000 mm 0,0 UV-I 0 W/m 0,3 C 1,5 C 0,0 km/h (0 Bft) 100,00 %
13.12.2016 19:24 1,5 C 92 % 1026,8 hPa 0,0 l/m 0,0 km/h (0 Bft) SO 138 0 min 0,000 mm 0,0 UV-I 0 W/m 0,3 C 1,5 C 1,6 km/h (1 Bft) 100,00 %
13.12.2016 19:26 1,5 C 93 % 1026,7 hPa 0,0 l/m 0,0 km/h (0 Bft) SO 138 0 min 0,000 mm 0,0 UV-I 0 W/m 0,5 C 1,5 C 1,6 km/h (1 Bft) 97,37 %
13.12.2016 19:28 1,4 C 93 % 1026,7 hPa 0,0 l/m 0,0 km/h (0 Bft) SO 138 0 min 0,000 mm 0,0 UV-I 0 W/m 0,4 C 1,4 C 1,6 km/h (1 Bft) 100,00 %
13.12.2016 19:30 1,5 C 93 % 1026,8 hPa 0,0 l/m 0,0 km/h (0 Bft) SO 138 0 min 0,000 mm 0,0 UV-I 0 W/m 0,5 C 1,5 C 0,0 km/h (0 Bft) 100,00 %
13.12.2016 19:32 1,5 C 93 % 1026,8 hPa 0,0 l/m 0,0 km/h (0 Bft) SO 138 0 min 0,000 mm 0,0 UV-I 0 W/m 0,5 C 1,5 C 0,0 km/h (0 Bft) 95,74 %
13.12.2016 19:34 1,4 C 93 % 1026,8 hPa 0,0 l/m 0,0 km/h (0 Bft) SO 138 0 min 0,000 mm 0,0 UV-I 0 W/m 0,4 C 1,4 C 0,0 km/h (0 Bft) 100,00 %
13.12.2016 19:36 1,5 C 93 % 1026,8 hPa 0,0 l/m 0,0 km/h (0 Bft) SO 138 0 min 0,000 mm 0,0 UV-I 0 W/m 0,5 C 1,5 C 0,0 km/h (0 Bft) 100,00 %
13.12.2016 19:38 1,4 C 93 % 1026,8 hPa 0,0 l/m 0,0 km/h (0 Bft) SO 138 0 min 0,000 mm 0,0 UV-I 0 W/m 0,4 C 1,4 C 0,0 km/h (0 Bft) 100,00 %
13.12.2016 19:40 1,4 C 92 % 1026,7 hPa 0,0 l/m 0,0 km/h (0 Bft) SO 138 0 min 0,000 mm 0,0 UV-I 0 W/m 0,2 C 1,4 C 0,0 km/h (0 Bft) 100,00 %
13.12.2016 19:42 1,4 C 92 % 1026,7 hPa 0,0 l/m 0,0 km/h (0 Bft) SO 138 0 min 0,000 mm 0,0 UV-I 0 W/m 0,2 C 1,4 C 0,0 km/h (0 Bft) 97,87 %
13.12.2016 19:44 1,4 C 93 % 1026,7 hPa 0,0 l/m 0,0 km/h (0 Bft) SO 138 0 min 0,000 mm 0,0 UV-I 0 W/m 0,4 C 1,4 C 0,0 km/h (0 Bft) 97,87 %
13.12.2016 19:46 1,4 C 93 % 1026,6 hPa 0,0 l/m 0,0 km/h (0 Bft) SO 138 0 min 0,000 mm 0,0 UV-I 0 W/m 0,4 C 1,4 C 0,0 km/h (0 Bft) 96,00 %
13.12.2016 19:48 1,4 C 93 % 1026,6 hPa 0,0 l/m 0,0 km/h (0 Bft) SO 138 0 min 0,000 mm 0,0 UV-I 0 W/m 0,4 C 1,4 C 0,0 km/h (0 Bft) 97,87 %
13.12.2016 19:50 1,4 C 93 % 1026,7 hPa 0,0 l/m 0,0 km/h (0 Bft) SO 138 0 min 0,000 mm 0,0 UV-I 0 W/m 0,4 C 1,4 C 0,0 km/h (0 Bft) 98,00 %
13.12.2016 19:52 1,4 C 93 % 1026,6 hPa 0,0 l/m 0,2 km/h (0 Bft) SO 138 0 min 0,000 mm 0,0 UV-I 0 W/m 0,4 C 1,4 C 1,6 km/h (1 Bft) 97,44 %
13.12.2016 19:54 1,4 C 93 % 1026,5 hPa 0,0 l/m 1,9 km/h (1 Bft) SO 138 0 min 0,000 mm 0,0 UV-I 0 W/m 0,4 C 1,4 C 3,2 km/h (1 Bft) 98,00 %
13.12.2016 19:56 1,4 C 93 % 1026,5 hPa 0,0 l/m 2,3 km/h (1 Bft) SO 138 0 min 0,000 mm 0,0 UV-I 0 W/m 0,4 C 1,4 C 3,2 km/h (1 Bft) 93,62 %
13.12.2016 19:58 1,4 C 93 % 1026,5 hPa 0,0 l/m 0,6 km/h (0 Bft) SO 138 0 min 0,000 mm 0,0 UV-I 0 W/m 0,4 C 1,4 C 1,6 km/h (1 Bft) 95,74 %
13.12.2016 20:00 1,4 C 93 % 1026,6 hPa 0,0 l/m 0,0 km/h (0 Bft) SO 138 0 min 0,000 mm 0,0 UV-I 0 W/m 0,4 C 1,4 C 0,0 km/h (0 Bft) 96,00 %
13.12.2016 20:02 1,4 C 93 % 1026,6 hPa 0,0 l/m 0,0 km/h (0 Bft) SO 138 0 min 0,000 mm 0,0 UV-I 0 W/m 0,4 C 1,4 C 0,0 km/h (0 Bft) 95,74 %
13.12.2016 20:04 1,4 C 93 % 1026,7 hPa 0,0 l/m 0,0 km/h (0 Bft) SO 138 0 min 0,000 mm 0,0 UV-I 0 W/m 0,4 C 1,4 C 0,0 km/h (0 Bft) 97,87 %
13.12.2016 20:06 1,4 C 93 % 1026,7 hPa 0,0 l/m 0,0 km/h (0 Bft) SO 138 0 min 0,000 mm 0,0 UV-I 0 W/m 0,4 C 1,4 C 0,0 km/h (0 Bft) 93,18 %
13.12.2016 20:08 1,4 C 93 % 1026,7 hPa 0,0 l/m 0,0 km/h (0 Bft) SO 138 0 min 0,000 mm 0,0 UV-I 0 W/m 0,4 C 1,4 C 0,0 km/h (0 Bft) 96,23 %
13.12.2016 20:10 1,4 C 93 % 1026,6 hPa 0,0 l/m 0,1 km/h (0 Bft) SO 138 0 min 0,000 mm 0,0 UV-I 0 W/m 0,4 C 1,4 C 1,6 km/h (1 Bft) 94,74 %
13.12.2016 20:12 1,4 C 93 % 1026,6 hPa 0,0 l/m 0,0 km/h (0 Bft) SO 138 0 min 0,000 mm 0,0 UV-I 0 W/m 0,4 C 1,4 C 0,0 km/h (0 Bft) 96,23 %
13.12.2016 20:14 1,4 C 93 % 1026,6 hPa 0,0 l/m 0,0 km/h (0 Bft) SO 138 0 min 0,000 mm 0,0 UV-I 0 W/m 0,4 C 1,4 C 0,0 km/h (0 Bft) 100,00 %
13.12.2016 20:16 1,4 C 93 % 1026,5 hPa 0,0 l/m 1,0 km/h (0 Bft) SO 138 0 min 0,000 mm 0,0 UV-I 0 W/m 0,4 C 1,4 C 3,2 km/h (1 Bft) 92,45 %
13.12.2016 20:18 1,4 C 93 % 1026,6 hPa 0,0 l/m 0,1 km/h (0 Bft) SO 138 0 min 0,000 mm 0,0 UV-I 0 W/m 0,4 C 1,4 C 1,6 km/h (1 Bft) 97,87 %
13.12.2016 20:20 1,4 C 93 % 1026,6 hPa 0,0 l/m 0,0 km/h (0 Bft) SO 138 0 min 0,000 mm 0,0 UV-I 0 W/m 0,4 C 1,4 C 0,0 km/h (0 Bft) 100,00 %
13.12.2016 20:22 1,4 C 93 % 1026,7 hPa 0,0 l/m 0,0 km/h (0 Bft) SO 138 0 min 0,000 mm 0,0 UV-I 0 W/m 0,4 C 1,4 C 0,0 km/h (0 Bft) 98,00 %
13.12.2016 20:24 1,3 C 93 % 1026,6 hPa 0,0 l/m 0,5 km/h (0 Bft) SO 138 0 min 0,000 mm 0,0 UV-I 0 W/m 0,3 C 1,3 C 1,6 km/h (1 Bft) 97,87 %
13.12.2016 20:26 1,3 C 93 % 1026,6 hPa 0,0 l/m 0,9 km/h (0 Bft) SO 138 0 min 0,000 mm 0,0 UV-I 0 W/m 0,3 C 1,3 C 3,2 km/h (1 Bft) 100,00 %
13.12.2016 20:28 1,3 C 93 % 1026,7 hPa 0,0 l/m 0,3 km/h (0 Bft) SO 138 0 min 0,000 mm 0,0 UV-I 0 W/m 0,3 C 1,3 C 1,6 km/h (1 Bft) 100,00 %
13.12.2016 20:30 1,3 C 93 % 1026,7 hPa 0,0 l/m 0,0 km/h (0 Bft) SO 138 0 min 0,000 mm 0,0 UV-I 0 W/m 0,3 C 1,3 C 0,0 km/h (0 Bft) 94,00 %
13.12.2016 20:32 1,3 C 93 % 1026,7 hPa 0,0 l/m 0,5 km/h (0 Bft) SO 138 0 min 0,000 mm 0,0 UV-I 0 W/m 0,3 C 1,3 C 1,6 km/h (1 Bft) 100,00 %
13.12.2016 20:34 1,3 C 93 % 1026,7 hPa 0,0 l/m 0,9 km/h (0 Bft) SO 138 0 min 0,000 mm 0,0 UV-I 0 W/m 0,3 C 1,3 C 1,6 km/h (1 Bft) 100,00 %
13.12.2016 20:36 1,3 C 93 % 1026,7 hPa 0,0 l/m 1,1 km/h (1 Bft) SO 138 0 min 0,000 mm 0,0 UV-I 0 W/m 0,3 C 1,3 C 3,2 km/h (1 Bft) 100,00 %
13.12.2016 20:38 1,3 C 93 % 1026,7 hPa 0,0 l/m 0,6 km/h (0 Bft) SO 138 0 min 0,000 mm 0,0 UV-I 0 W/m 0,3 C 1,3 C 1,6 km/h (1 Bft) 100,00 %
13.12.2016 20:40 1,3 C 93 % 1026,8 hPa 0,0 l/m 1,0 km/h (0 Bft) SO 138 0 min 0,000 mm 0,0 UV-I 0 W/m 0,3 C 1,3 C 3,2 km/h (1 Bft) 100,00 %
13.12.2016 20:42 1,3 C 93 % 1026,8 hPa 0,0 l/m 0,2 km/h (0 Bft) SO 138 0 min 0,000 mm 0,0 UV-I 0 W/m 0,3 C 1,3 C 1,6 km/h (1 Bft) 100,00 %
13.12.2016 20:44 1,3 C 93 % 1026,8 hPa 0,0 l/m 0,0 km/h (0 Bft) SO 138 0 min 0,000 mm 0,0 UV-I 0 W/m 0,3 C 1,3 C 0,0 km/h (0 Bft) 100,00 %
13.12.2016 20:46 1,3 C 93 % 1026,8 hPa 0,0 l/m 0,0 km/h (0 Bft) SO 138 0 min 0,000 mm 0,0 UV-I 0 W/m 0,3 C 1,3 C 0,0 km/h (0 Bft) 100,00 %
13.12.2016 20:48 1,3 C 93 % 1026,8 hPa 0,0 l/m 0,0 km/h (0 Bft) SO 138 0 min 0,000 mm 0,0 UV-I 0 W/m 0,3 C 1,3 C 0,0 km/h (0 Bft) 100,00 %
13.12.2016 20:50 1,3 C 93 % 1026,8 hPa 0,0 l/m 0,0 km/h (0 Bft) SO 138 0 min 0,000 mm 0,0 UV-I 0 W/m 0,3 C 1,3 C 0,0 km/h (0 Bft) 100,00 %
13.12.2016 20:52 1,3 C 93 % 1026,8 hPa 0,0 l/m 0,0 km/h (0 Bft) SO 138 0 min 0,000 mm 0,0 UV-I 0 W/m 0,3 C 1,3 C 0,0 km/h (0 Bft) 97,87 %
13.12.2016 20:54 1,3 C 93 % 1026,8 hPa 0,0 l/m 0,0 km/h (0 Bft) SO 138 0 min 0,000 mm 0,0 UV-I 0 W/m 0,3 C 1,3 C 0,0 km/h (0 Bft) 100,00 %
13.12.2016 20:56 1,3 C 93 % 1026,8 hPa 0,0 l/m 0,1 km/h (0 Bft) SO 138 0 min 0,000 mm 0,0 UV-I 0 W/m 0,3 C 1,3 C 1,6 km/h (1 Bft) 100,00 %
13.12.2016 20:58 1,3 C 93 % 1026,7 hPa 0,0 l/m 0,3 km/h (0 Bft) SO 138 0 min 0,000 mm 0,0 UV-I 0 W/m 0,3 C 1,3 C 1,6 km/h (1 Bft) 97,87 %
13.12.2016 21:00 1,3 C 93 % 1026,7 hPa 0,0 l/m 1,0 km/h (0 Bft) SO 138 0 min 0,000 mm 0,0 UV-I 0 W/m 0,3 C 1,3 C 1,6 km/h (1 Bft) 97,56 %
13.12.2016 21:02 1,3 C 93 % 1026,7 hPa 0,0 l/m 1,6 km/h (1 Bft) SO 138 0 min 0,000 mm 0,0 UV-I 0 W/m 0,3 C 1,3 C 3,2 km/h (1 Bft) 100,00 %
13.12.2016 21:04 1,3 C 93 % 1026,6 hPa 0,0 l/m 0,9 km/h (0 Bft) SO 138 0 min 0,000 mm 0,0 UV-I 0 W/m 0,3 C 1,3 C 1,6 km/h (1 Bft) 97,87 %
13.12.2016 21:06 1,3 C 93 % 1026,5 hPa 0,0 l/m 0,9 km/h (0 Bft) SO 138 0 min 0,000 mm 0,0 UV-I 0 W/m 0,3 C 1,3 C 1,6 km/h (1 Bft) 100,00 %
13.12.2016 21:08 1,3 C 93 % 1026,6 hPa 0,0 l/m 0,3 km/h (0 Bft) SO 138 0 min 0,000 mm 0,0 UV-I 0 W/m 0,3 C 1,3 C 1,6 km/h (1 Bft) 100,00 %
13.12.2016 21:10 1,3 C 93 % 1026,5 hPa 0,0 l/m 0,0 km/h (0 Bft) SO 138 0 min 0,000 mm 0,0 UV-I 0 W/m 0,3 C 1,3 C 0,0 km/h (0 Bft) 100,00 %
13.12.2016 21:12 1,3 C 93 % 1026,6 hPa 0,0 l/m 0,0 km/h (0 Bft) SO 138 0 min 0,000 mm 0,0 UV-I 0 W/m 0,3 C 1,3 C 0,0 km/h (0 Bft) 100,00 %
13.12.2016 21:14 1,3 C 93 % 1026,6 hPa 0,0 l/m 0,0 km/h (0 Bft) SO 138 0 min 0,000 mm 0,0 UV-I 0 W/m 0,3 C 1,3 C 0,0 km/h (0 Bft) 97,87 %
13.12.2016 21:16 1,3 C 93 % 1026,6 hPa 0,0 l/m 0,0 km/h (0 Bft) SO 138 0 min 0,000 mm 0,0 UV-I 0 W/m 0,3 C 1,3 C 0,0 km/h (0 Bft) 100,00 %
13.12.2016 21:18 1,4 C 93 % 1026,6 hPa 0,0 l/m 0,0 km/h (0 Bft) SO 138 0 min 0,000 mm 0,0 UV-I 0 W/m 0,4 C 1,4 C 0,0 km/h (0 Bft) 100,00 %
13.12.2016 21:20 1,4 C 93 % 1026,6 hPa 0,0 l/m 0,0 km/h (0 Bft) SO 138 0 min 0,000 mm 0,0 UV-I 0 W/m 0,4 C 1,4 C 0,0 km/h (0 Bft) 96,77 %
13.12.2016 21:22 1,4 C 93 % 1026,6 hPa 0,0 l/m 0,2 km/h (0 Bft) SO 138 0 min 0,000 mm 0,0 UV-I 0 W/m 0,4 C 1,4 C 1,6 km/h (1 Bft) 100,00 %
13.12.2016 21:24 1,4 C 93 % 1026,6 hPa 0,0 l/m 0,2 km/h (0 Bft) SO 138 0 min 0,000 mm 0,0 UV-I 0 W/m 0,4 C 1,4 C 1,6 km/h (1 Bft) 100,00 %
13.12.2016 21:26 1,4 C 93 % 1026,5 hPa 0,0 l/m 0,0 km/h (0 Bft) SO 138 0 min 0,000 mm 0,0 UV-I 0 W/m 0,4 C 1,4 C 0,0 km/h (0 Bft) 100,00 %
13.12.2016 21:28 1,4 C 94 % 1026,5 hPa 0,0 l/m 0,0 km/h (0 Bft) SO 138 0 min 0,000 mm 0,0 UV-I 0 W/m 0,5 C 1,4 C 0,0 km/h (0 Bft) 100,00 %
13.12.2016 21:30 1,4 C 94 % 1026,5 hPa 0,0 l/m 0,0 km/h (0 Bft) SO 138 0 min 0,000 mm 0,0 UV-I 0 W/m 0,5 C 1,4 C 0,0 km/h (0 Bft) 94,34 %
13.12.2016 21:32 1,4 C 94 % 1026,5 hPa 0,0 l/m 0,0 km/h (0 Bft) SO 138 0 min 0,000 mm 0,0 UV-I 0 W/m 0,5 C 1,4 C 0,0 km/h (0 Bft) 95,74 %
13.12.2016 21:34 1,4 C 94 % 1026,5 hPa 0,0 l/m 0,0 km/h (0 Bft) SO 138 0 min 0,000 mm 0,0 UV-I 0 W/m 0,5 C 1,4 C 0,0 km/h (0 Bft) 97,87 %
13.12.2016 21:36 1,4 C 94 % 1026,5 hPa 0,0 l/m 0,0 km/h (0 Bft) SO 138 0 min 0,000 mm 0,0 UV-I 0 W/m 0,5 C 1,4 C 0,0 km/h (0 Bft) 97,87 %
13.12.2016 21:38 1,4 C 94 % 1026,5 hPa 0,0 l/m 0,0 km/h (0 Bft) SO 138 0 min 0,000 mm 0,0 UV-I 0 W/m 0,5 C 1,4 C 0,0 km/h (0 Bft) 100,00 %
13.12.2016 21:40 1,4 C 94 % 1026,5 hPa 0,0 l/m 0,0 km/h (0 Bft) SO 138 0 min 0,000 mm 0,0 UV-I 0 W/m 0,5 C 1,4 C 0,0 km/h (0 Bft) 100,00 %
13.12.2016 21:42 1,4 C 94 % 1026,5 hPa 0,0 l/m 0,0 km/h (0 Bft) SO 138 0 min 0,000 mm 0,0 UV-I 0 W/m 0,5 C 1,4 C 0,0 km/h (0 Bft) 100,00 %
13.12.2016 21:44 1,4 C 94 % 1026,4 hPa 0,0 l/m 0,0 km/h (0 Bft) SO 138 0 min 0,000 mm 0,0 UV-I 0 W/m 0,5 C 1,4 C 0,0 km/h (0 Bft) 95,74 %
13.12.2016 21:46 1,3 C 94 % 1026,4 hPa 0,0 l/m 0,0 km/h (0 Bft) SO 138 0 min 0,000 mm 0,0 UV-I 0 W/m 0,4 C 1,3 C 0,0 km/h (0 Bft) 94,74 %
13.12.2016 21:48 1,3 C 94 % 1026,4 hPa 0,0 l/m 0,0 km/h (0 Bft) SO 138 0 min 0,000 mm 0,0 UV-I 0 W/m 0,4 C 1,3 C 1,6 km/h (1 Bft) 97,87 %
13.12.2016 21:50 1,3 C 94 % 1026,3 hPa 0,0 l/m 0,6 km/h (0 Bft) SO 138 0 min 0,000 mm 0,0 UV-I 0 W/m 0,4 C 1,3 C 1,6 km/h (1 Bft) 98,00 %
13.12.2016 21:52 1,3 C 94 % 1026,3 hPa 0,0 l/m 0,2 km/h (0 Bft) SO 138 0 min 0,000 mm 0,0 UV-I 0 W/m 0,4 C 1,3 C 1,6 km/h (1 Bft) 98,00 %
13.12.2016 21:54 1,3 C 94 % 1026,3 hPa 0,0 l/m 0,0 km/h (0 Bft) SO 138 0 min 0,000 mm 0,0 UV-I 0 W/m 0,4 C 1,3 C 0,0 km/h (0 Bft) 95,74 %
13.12.2016 21:56 1,3 C 94 % 1026,3 hPa 0,0 l/m 0,3 km/h (0 Bft) SO 138 0 min 0,000 mm 0,0 UV-I 0 W/m 0,4 C 1,3 C 1,6 km/h (1 Bft) 97,44 %
13.12.2016 21:58 1,3 C 94 % 1026,3 hPa 0,0 l/m 2,2 km/h (1 Bft) SO 138 0 min 0,000 mm 0,0 UV-I 0 W/m 0,4 C 1,3 C 3,2 km/h (1 Bft) 93,62 %
13.12.2016 22:00 1,3 C 94 % 1026,4 hPa 0,0 l/m 1,4 km/h (1 Bft) SO 138 0 min 0,000 mm 0,0 UV-I 0 W/m 0,4 C 1,3 C 3,2 km/h (1 Bft) 96,23 %
13.12.2016 22:02 1,3 C 94 % 1026,3 hPa 0,0 l/m 0,3 km/h (0 Bft) SO 138 0 min 0,000 mm 0,0 UV-I 0 W/m 0,4 C 1,3 C 1,6 km/h (1 Bft) 93,62 %
13.12.2016 22:04 1,3 C 94 % 1026,4 hPa 0,0 l/m 0,7 km/h (0 Bft) SO 138 0 min 0,000 mm 0,0 UV-I 0 W/m 0,4 C 1,3 C 3,2 km/h (1 Bft) 98,00 %
13.12.2016 22:06 1,3 C 94 % 1026,3 hPa 0,0 l/m 1,5 km/h (1 Bft) SO 138 0 min 0,000 mm 0,0 UV-I 0 W/m 0,4 C 1,3 C 1,6 km/h (1 Bft) 97,37 %
13.12.2016 22:08 1,3 C 94 % 1026,3 hPa 0,0 l/m 1,7 km/h (1 Bft) SO 138 0 min 0,000 mm 0,0 UV-I 0 W/m 0,4 C 1,3 C 3,2 km/h (1 Bft) 96,00 %
13.12.2016 22:10 1,3 C 94 % 1026,2 hPa 0,0 l/m 1,5 km/h (1 Bft) SO 138 0 min 0,000 mm 0,0 UV-I 0 W/m 0,4 C 1,3 C 3,2 km/h (1 Bft) 97,87 %
13.12.2016 22:12 1,3 C 94 % 1026,3 hPa 0,0 l/m 1,2 km/h (1 Bft) SO 138 0 min 0,000 mm 0,0 UV-I 0 W/m 0,4 C 1,3 C 3,2 km/h (1 Bft) 94,00 %
13.12.2016 22:14 1,3 C 94 % 1026,3 hPa 0,0 l/m 1,4 km/h (1 Bft) SO 138 0 min 0,000 mm 0,0 UV-I 0 W/m 0,4 C 1,3 C 3,2 km/h (1 Bft) 95,45 %
13.12.2016 22:16 1,3 C 94 % 1026,2 hPa 0,0 l/m 1,6 km/h (1 Bft) SO 138 0 min 0,000 mm 0,0 UV-I 0 W/m 0,4 C 1,3 C 3,2 km/h (1 Bft) 96,00 %
13.12.2016 22:18 1,3 C 94 % 1026,2 hPa 0,0 l/m 2,7 km/h (1 Bft) SO 138 0 min 0,000 mm 0,0 UV-I 0 W/m 0,4 C 1,3 C 3,2 km/h (1 Bft) 97,87 %
13.12.2016 22:20 1,3 C 94 % 1026,2 hPa 0,0 l/m 2,1 km/h (1 Bft) SO 137 0 min 0,000 mm 0,0 UV-I 0 W/m 0,4 C 1,3 C 3,2 km/h (1 Bft) 95,74 %
13.12.2016 22:22 1,3 C 94 % 1026,2 hPa 0,0 l/m 2,5 km/h (1 Bft) SO 137 0 min 0,000 mm 0,0 UV-I 0 W/m 0,4 C 1,3 C 3,2 km/h (1 Bft) 100,00 %
13.12.2016 22:24 1,3 C 94 % 1026,3 hPa 0,0 l/m 2,8 km/h (1 Bft) SO 137 0 min 0,000 mm 0,0 UV-I 0 W/m 0,4 C 1,3 C 3,2 km/h (1 Bft) 100,00 %
13.12.2016 22:26 1,3 C 94 % 1026,3 hPa 0,0 l/m 2,5 km/h (1 Bft) SO 137 0 min 0,000 mm 0,0 UV-I 0 W/m 0,4 C 1,3 C 3,2 km/h (1 Bft) 97,87 %
13.12.2016 22:28 1,3 C 94 % 1026,3 hPa 0,0 l/m 2,4 km/h (1 Bft) SO 137 0 min 0,000 mm 0,0 UV-I 0 W/m 0,4 C 1,3 C 3,2 km/h (1 Bft) 96,00 %
13.12.2016 22:30 1,3 C 94 % 1026,3 hPa 0,0 l/m 2,6 km/h (1 Bft) SO 137 0 min 0,000 mm 0,0 UV-I 0 W/m 0,4 C 1,3 C 3,2 km/h (1 Bft) 100,00 %
13.12.2016 22:32 1,3 C 94 % 1026,4 hPa 0,0 l/m 2,1 km/h (1 Bft) SO 137 0 min 0,000 mm 0,0 UV-I 0 W/m 0,4 C 1,3 C 3,2 km/h (1 Bft) 100,00 %
13.12.2016 22:34 1,3 C 94 % 1026,4 hPa 0,0 l/m 2,7 km/h (1 Bft) SO 137 0 min 0,000 mm 0,0 UV-I 0 W/m 0,4 C 1,3 C 3,2 km/h (1 Bft) 98,00 %
13.12.2016 22:36 1,3 C 94 % 1026,4 hPa 0,0 l/m 2,1 km/h (1 Bft) SO 137 0 min 0,000 mm 0,0 UV-I 0 W/m 0,4 C 1,3 C 3,2 km/h (1 Bft) 100,00 %
13.12.2016 22:38 1,3 C 94 % 1026,3 hPa 0,0 l/m 2,1 km/h (1 Bft) SO 137 0 min 0,000 mm 0,0 UV-I 0 W/m 0,4 C 1,3 C 3,2 km/h (1 Bft) 97,87 %
13.12.2016 22:40 1,3 C 94 % 1026,3 hPa 0,0 l/m 2,4 km/h (1 Bft) SO 137 0 min 0,000 mm 0,0 UV-I 0 W/m 0,4 C 1,3 C 3,2 km/h (1 Bft) 100,00 %
13.12.2016 22:42 1,3 C 94 % 1026,3 hPa 0,0 l/m 1,9 km/h (1 Bft) SO 137 0 min 0,000 mm 0,0 UV-I 0 W/m 0,4 C 1,3 C 3,2 km/h (1 Bft) 100,00 %
13.12.2016 22:44 1,3 C 94 % 1026,3 hPa 0,0 l/m 2,6 km/h (1 Bft) SO 137 0 min 0,000 mm 0,0 UV-I 0 W/m 0,4 C 1,3 C 3,2 km/h (1 Bft) 100,00 %
13.12.2016 22:46 1,3 C 94 % 1026,3 hPa 0,0 l/m 1,9 km/h (1 Bft) SO 137 0 min 0,000 mm 0,0 UV-I 0 W/m 0,4 C 1,3 C 3,2 km/h (1 Bft) 100,00 %
13.12.2016 22:48 1,3 C 94 % 1026,3 hPa 0,0 l/m 1,5 km/h (1 Bft) SO 137 0 min 0,000 mm 0,0 UV-I 0 W/m 0,4 C 1,3 C 3,2 km/h (1 Bft) 100,00 %
13.12.2016 22:50 1,3 C 94 % 1026,3 hPa 0,0 l/m 1,7 km/h (1 Bft) SO 137 0 min 0,000 mm 0,0 UV-I 0 W/m 0,4 C 1,3 C 3,2 km/h (1 Bft) 100,00 %
13.12.2016 22:52 1,3 C 94 % 1026,3 hPa 0,0 l/m 1,3 km/h (1 Bft) SO 137 0 min 0,000 mm 0,0 UV-I 0 W/m 0,4 C 1,3 C 3,2 km/h (1 Bft) 100,00 %
13.12.2016 22:54 1,3 C 94 % 1026,3 hPa 0,0 l/m 0,7 km/h (0 Bft) SO 137 0 min 0,000 mm 0,0 UV-I 0 W/m 0,4 C 1,3 C 1,6 km/h (1 Bft) 100,00 %
13.12.2016 22:56 1,3 C 93 % 1026,3 hPa 0,0 l/m 0,1 km/h (0 Bft) SO 137 0 min 0,000 mm 0,0 UV-I 0 W/m 0,3 C 1,3 C 1,6 km/h (1 Bft) 100,00 %
13.12.2016 22:58 1,3 C 93 % 1026,2 hPa 0,0 l/m 1,0 km/h (0 Bft) SO 137 0 min 0,000 mm 0,0 UV-I 0 W/m 0,3 C 1,3 C 1,6 km/h (1 Bft) 100,00 %
13.12.2016 23:00 1,3 C 93 % 1026,2 hPa 0,0 l/m 1,0 km/h (0 Bft) SO 137 0 min 0,000 mm 0,0 UV-I 0 W/m 0,3 C 1,3 C 1,6 km/h (1 Bft) 100,00 %
13.12.2016 23:02 1,3 C 93 % 1026,2 hPa 0,0 l/m 1,2 km/h (1 Bft) SO 137 0 min 0,000 mm 0,0 UV-I 0 W/m 0,3 C 1,3 C 3,2 km/h (1 Bft) 98,11 %
13.12.2016 23:04 1,3 C 93 % 1026,2 hPa 0,0 l/m 1,5 km/h (1 Bft) SO 137 0 min 0,000 mm 0,0 UV-I 0 W/m 0,3 C 1,3 C 3,2 km/h (1 Bft) 95,45 %
13.12.2016 23:06 1,3 C 93 % 1026,2 hPa 0,0 l/m 1,9 km/h (1 Bft) SO 137 0 min 0,000 mm 0,0 UV-I 0 W/m 0,3 C 1,3 C 3,2 km/h (1 Bft) 100,00 %
13.12.2016 23:08 1,3 C 93 % 1026,2 hPa 0,0 l/m 1,7 km/h (1 Bft) SO 137 0 min 0,000 mm 0,0 UV-I 0 W/m 0,3 C 1,3 C 3,2 km/h (1 Bft) 97,87 %
13.12.2016 23:10 1,3 C 93 % 1026,1 hPa 0,0 l/m 1,5 km/h (1 Bft) SO 137 0 min 0,000 mm 0,0 UV-I 0 W/m 0,3 C 1,3 C 3,2 km/h (1 Bft) 100,00 %
13.12.2016 23:12 1,3 C 94 % 1026,2 hPa 0,0 l/m 0,7 km/h (0 Bft) SO 137 0 min 0,000 mm 0,0 UV-I 0 W/m 0,4 C 1,3 C 3,2 km/h (1 Bft) 100,00 %
13.12.2016 23:14 1,3 C 94 % 1026,2 hPa 0,0 l/m 1,5 km/h (1 Bft) SO 137 0 min 0,000 mm 0,0 UV-I 0 W/m 0,4 C 1,3 C 3,2 km/h (1 Bft) 100,00 %
13.12.2016 23:16 1,3 C 94 % 1026,1 hPa 0,0 l/m 1,0 km/h (0 Bft) SO 137 0 min 0,000 mm 0,0 UV-I 0 W/m 0,4 C 1,3 C 3,2 km/h (1 Bft) 97,87 %
13.12.2016 23:18 1,3 C 94 % 1026,1 hPa 0,0 l/m 2,0 km/h (1 Bft) SO 137 0 min 0,000 mm 0,0 UV-I 0 W/m 0,4 C 1,3 C 3,2 km/h (1 Bft) 100,00 %
13.12.2016 23:20 1,3 C 94 % 1026,1 hPa 0,0 l/m 1,0 km/h (0 Bft) SO 137 0 min 0,000 mm 0,0 UV-I 0 W/m 0,4 C 1,3 C 3,2 km/h (1 Bft) 100,00 %
13.12.2016 23:22 1,3 C 94 % 1026,2 hPa 0,0 l/m 0,1 km/h (0 Bft) SO 137 0 min 0,000 mm 0,0 UV-I 0 W/m 0,4 C 1,3 C 1,6 km/h (1 Bft) 97,37 %
13.12.2016 23:24 1,3 C 94 % 1026,2 hPa 0,0 l/m 0,0 km/h (0 Bft) SO 137 0 min 0,000 mm 0,0 UV-I 0 W/m 0,4 C 1,3 C 0,0 km/h (0 Bft) 97,87 %
13.12.2016 23:26 1,3 C 94 % 1026,2 hPa 0,0 l/m 0,4 km/h (0 Bft) SO 137 0 min 0,000 mm 0,0 UV-I 0 W/m 0,4 C 1,3 C 1,6 km/h (1 Bft) 100,00 %
13.12.2016 23:28 1,3 C 94 % 1026,1 hPa 0,0 l/m 1,5 km/h (1 Bft) SO 137 0 min 0,000 mm 0,0 UV-I 0 W/m 0,4 C 1,3 C 3,2 km/h (1 Bft) 100,00 %
13.12.2016 23:30 1,3 C 94 % 1026,1 hPa 0,0 l/m 2,1 km/h (1 Bft) SO 137 0 min 0,000 mm 0,0 UV-I 0 W/m 0,4 C 1,3 C 3,2 km/h (1 Bft) 100,00 %
13.12.2016 23:32 1,3 C 94 % 1026,1 hPa 0,0 l/m 1,3 km/h (1 Bft) SO 137 0 min 0,000 mm 0,0 UV-I 0 W/m 0,4 C 1,3 C 3,2 km/h (1 Bft) 100,00 %
13.12.2016 23:34 1,3 C 94 % 1026,0 hPa 0,0 l/m 2,7 km/h (1 Bft) SO 137 0 min 0,000 mm 0,0 UV-I 0 W/m 0,4 C 1,3 C 3,2 km/h (1 Bft) 100,00 %
13.12.2016 23:36 1,3 C 94 % 1026,0 hPa 0,0 l/m 2,5 km/h (1 Bft) SO 137 0 min 0,000 mm 0,0 UV-I 0 W/m 0,4 C 1,3 C 4,8 km/h (1 Bft) 97,37 %
13.12.2016 23:38 1,3 C 94 % 1026,1 hPa 0,0 l/m 1,5 km/h (1 Bft) SO 137 0 min 0,000 mm 0,0 UV-I 0 W/m 0,4 C 1,3 C 3,2 km/h (1 Bft) 100,00 %
13.12.2016 23:40 1,3 C 94 % 1026,1 hPa 0,0 l/m 0,4 km/h (0 Bft) SO 137 0 min 0,000 mm 0,0 UV-I 0 W/m 0,4 C 1,3 C 1,6 km/h (1 Bft) 98,00 %
13.12.2016 23:42 1,3 C 94 % 1026,1 hPa 0,0 l/m 0,3 km/h (0 Bft) SO 137 0 min 0,000 mm 0,0 UV-I 0 W/m 0,4 C 1,3 C 1,6 km/h (1 Bft) 98,00 %
13.12.2016 23:44 1,3 C 94 % 1026,1 hPa 0,0 l/m 0,1 km/h (0 Bft) SO 137 0 min 0,000 mm 0,0 UV-I 0 W/m 0,4 C 1,3 C 1,6 km/h (1 Bft) 94,74 %
13.12.2016 23:46 1,3 C 94 % 1026,1 hPa 0,0 l/m 0,4 km/h (0 Bft) SO 137 0 min 0,000 mm 0,0 UV-I 0 W/m 0,4 C 1,3 C 3,2 km/h (1 Bft) 100,00 %
13.12.2016 23:48 1,3 C 94 % 1026,0 hPa 0,0 l/m 2,8 km/h (1 Bft) SO 137 0 min 0,000 mm 0,0 UV-I 0 W/m 0,4 C 1,3 C 3,2 km/h (1 Bft) 100,00 %
13.12.2016 23:50 1,3 C 94 % 1026,0 hPa 0,0 l/m 3,9 km/h (1 Bft) SO 137 0 min 0,000 mm 0,0 UV-I 0 W/m 0,4 C 1,3 C 4,8 km/h (1 Bft) 98,00 %
13.12.2016 23:52 1,3 C 94 % 1026,0 hPa 0,0 l/m 4,5 km/h (1 Bft) O-SO 117 0 min 0,000 mm 0,0 UV-I 0 W/m 0,4 C 1,3 C 6,4 km/h (2 Bft) 98,00 %
13.12.2016 23:54 1,3 C 94 % 1025,9 hPa 0,0 l/m 5,0 km/h (1 Bft) O-SO 110 0 min 0,000 mm 0,0 UV-I 0 W/m 0,4 C 1,3 C 6,4 km/h (2 Bft) 97,44 %
13.12.2016 23:56 1,3 C 94 % 1026,0 hPa 0,0 l/m 2,6 km/h (1 Bft) O-SO 110 0 min 0,000 mm 0,0 UV-I 0 W/m 0,4 C 1,3 C 4,8 km/h (1 Bft) 97,87 %
13.12.2016 23:58 1,3 C 94 % 1026,0 hPa 0,0 l/m 2,3 km/h (1 Bft) O-SO 110 0 min 0,000 mm 0,0 UV-I 0 W/m 0,4 C 1,3 C 3,2 km/h (1 Bft) 96,00 %
_ Min-Zeit 08:50 11:16 23:54 - 02:04 - - - - - - 10:34 08:18 02:04 03:42
Minimum _ 0,5 C 89 % 1025,9 hPa - 0,0 km/h (0 Bft) - - - - - - -0,7 C -4,1 C 0,0 km/h (0 Bft) 91,49 %
_ Max-Zeit 00:00 07:42 10:26 00:00 06:38 - - 00:00 11:00 00:00 13:38 00:00 00:10 06:38 00:00
Maximum _ 4,3 C 96 % 1028,6 hPa 0,0 l/m 12,9 km/h
NO (3 Bft)
- - 0 min 0,026 mm 0,0 UV-I 127 W/m 3,0 C 4,3 C 17,7 km/h
O-NO (3 Bft)
100,00 %
Durchschnitt _ 2,0 C 92 % 1027,4 hPa #0,0 l/m 4,3 km/h (1 Bft) O-NO - #0 min. #0,152 mm 0,0 UV-I 54 W/m 0,9 C 1,6 C 6,6 km/h (2 Bft) 98,58 %